     2              OBSERVATION DATA    G (GPS)             RINEX VERSION / TYPE
ASRINEXO V2.4.4 UX USGS 23-NOV-94 11:48                     PGM / RUN BY / DATE
HI'S ARE VERT TO BASE OF ANTENNA                            COMMENT
tabl Table_1919_USC&GS                                      MARKER NAME
MHM USGS                                                    OBSERVER / AGENCY
827 ASHTECH Z-XII3 1C01                                     REC # / TYPE / VERS
*104 ASH700228A NONE                                        ANT # / TYPE
 -2724280.0000 -4009602.0000  4131446.0000                  APPROX POSITION XYZ
        1.2151        0.0000        0.0000                  ANTENNA: DELTA H/E/N
     1     1                                                WAVELENGTH FACT L1/2
     5    C1    L1    L2    P1    P2                        # / TYPES OF OBSERV
    30                                                      INTERVAL
  1994     4    30     1    52   30.000000                  TIME OF FIRST OBS
                                                            END OF HEADER
 94  4 30  1 52 30.0000000  0  7 25 20 17  5  6 16 24
  21102799.416        5469.85919
  17408939.674       14409.30319      7695.84759                  17408946.2484
  21061418.719      -57239.58019
  18243565.502       34673.15819
  18441306.284      -27832.95359    -16675.05259  18441299.5584   18441310.1264
  18931161.606      -17345.72719     -9198.15659                  18931169.4114
  19142415.465       69046.92819
 94  4 30  1 53  0.0000000  0  7 25 20 17  5  6 16 24
  21104265.911       13205.32459      8989.62659  21104268.3214   21104272.5824
  17412826.930       34840.34059     23616.16549  17412828.6194   17412833.9154
  21046097.160     -137809.77759    -92622.66059  21046096.0544   21046111.0104
  18260779.763      125141.05859     75952.58459  18260778.1044   18260783.9784
  18435054.547      -60655.75549    -42251.19249  18435057.1694   18435062.0144
  18926419.897      -42262.86459    -28614.10849  18926421.5254   18926427.2804
  19161250.930      168037.57859    114229.03859  19161253.5654   19161258.2164
 94  4 30  1 53 30.0000000  0  7 25 20 17  5  6 16 24
  24103573.006       20473.93049     14653.50449  24103575.4194   24103580.5714
  20414551.977       54814.49849     39180.44249  20414553.5464   20414558.9404
  24028529.483     -219216.27449   -156056.18549  24028531.4884   24028540.1234
  21275796.605      214984.67149    145960.52049  21275798.7004   21275803.6324
  21426578.174      -94292.04249    -68461.27749  21426579.8834   21426585.3214
  21919502.720      -67702.25649    -48436.99049  21919504.7294   21919510.4354
  22177845.641      266158.58249    190686.96249  22177847.8604   22177853.5554
 94  4 30  1 54  0.0000000  0  7 25 20 17  5  6 16 24
  24104870.203       27281.37049     19957.97149  24104870.2754   24104876.6524
  20418271.378       74357.85749     54409.01849  20418272.7194   20418278.0764
  24012873.684     -301496.29049   -220170.37549  24012874.7014   24012883.1904
  21292785.083      304257.36249    215523.63349  21292786.3904   21292791.6764
  21420023.076     -128739.19449    -95303.20049  21420024.9944   21420030.3724
  21914561.131      -93674.55049    -68675.11749  21914562.3744   21914568.1594
  22196367.316      363488.14849    266528.16949  22196369.1064   22196374.7314
 94  4 30  1 54 30.0000000  0  7 25 20 17  5  6 16 24
  24106074.297       33624.93849     24900.98749  24106078.3524   24106083.2324
  20421906.203       93459.64749     69293.51949  20421907.6084   20421913.0364
  23997057.112     -384610.25349   -284934.39449  23997058.3384   23997066.4734
  21309659.304      392929.71249    284618.94549  21309660.3814   21309665.6044
  21413316.496     -163984.36549   -122766.95749  21413318.0894   21413323.2634
  21909518.406     -120175.39449    -89325.10249  21909519.4064   21909525.4074
  22214730.736      459989.55349    341724.05849  22214732.8374   22214738.1974
 94  4 30  1 55  0.0000000  0  7 25 20 17  5  6 16 24
  24107206.553       39569.31049     29532.95649  24107208.7954   24107214.0354
  20425470.215      112189.04849     83887.84549  20425471.7394   20425477.2334
  23981097.027     -468483.48649   -350290.06749  23981098.3944   23981105.7984
  21326431.767      481071.63249    353300.93749  21326433.1594   21326438.5344
  21406468.636     -199970.06649   -150807.75449  21406470.3764   21406475.6984
  21904392.367     -147116.87949   -110318.44349  21904392.7034   21904398.7694
  22232947.668      555719.90049    416319.12149  22232949.7644   22232955.1184
 94  4 30  1 55 30.0000000  0  7 25 20 17  5  6 16 24
  24108264.670       45119.50349     33857.77449  24108265.5844   24108270.8114
  20428966.398      130560.25049     98203.05949  20428967.8024   20428973.3264
  23964992.384     -553111.32949   -416233.75549  23964993.5934   23965001.8344
  21343105.913      568694.66049    421578.59949  21343107.3174   21343112.7984
  21399479.477     -236698.88449   -179427.59849  21399480.9874   21399486.3294
  21899185.731     -174473.80749   -131635.50349  21899186.6994   21899192.9084
  22251021.574      650698.21649    490328.18649  22251023.6234   22251028.9714
 94  4 30  1 56  0.0000000  0  7 25 20 17  5  6 16 24
  24109255.829       50338.16949     37924.26649  24109258.3774   24109263.8734
  20432405.785      148634.26149    112286.69249  20432407.1084   20432412.6984
  23948754.786     -638439.03849   -482722.77249  23948756.4314   23948764.0574
  21359696.601      655879.66949    489514.94149  21359698.1784   21359703.4254
  21392355.815     -274133.32549   -208597.27749  21392357.5944   21392362.8494
  21893916.237     -202166.18849   -153213.95949  21893917.2944   21893923.3524
  22268966.363      744991.52149    563803.47549  22268967.0554   22268972.2874
 94  4 30  1 56 30.0000000  0  7 25 20 17  5  6 16 24
  24110205.142       55319.64349     41805.94249  24110206.5284   24110212.5984
  20435805.472      166500.49449    126208.41849  20435807.0254   20435812.5644
  23932402.187     -724370.32249   -549682.11749  23932404.3584   23932412.6274
  21376222.472      742723.68449    557185.57449  21376223.9974   21376229.3154
  21385115.013     -312184.47049   -238247.50849  21385116.6824   21385121.7894
  21888600.038     -230101.11649   -174981.41849  21888601.1724   21888607.4424
  22286793.159      838679.19849    636806.84649  22286795.2684   22286800.4364
 94  4 30  1 57  0.0000000  0  7 25 20 17  5  6 16 24
  24111122.585       60141.38549     45563.14149  24111123.3384   24111129.6654
  20439181.803      184240.76149    140031.99749  20439182.9394   20439188.5114
  23915947.737     -810839.79249   -617060.81849  23915949.2254   23915957.3414
  21392696.856      829296.37249    624644.78749  21392698.2834   21392703.6894
  21377768.791     -350789.93349   -268329.66649  21377770.4544   21377775.4324
  21883253.794     -258195.15849   -196872.85249  21883255.0434   21883261.2324
  22304521.566      931845.22149    709403.73449  22304524.1254   22304529.4784
 94  4 30  1 57 30.0000000  0  7 25 20 17  5  6 16 24
  24112023.518       64880.29649     49255.79849  24112025.1134   24112031.1664
  20442549.847      201940.52349    153824.01449  20442551.0564   20442556.6544
  23899406.557     -897763.89649   -684793.78649  23899408.9184   23899416.5144
  21409133.515      915671.04249    691949.70449  21409135.0264   21409140.2874
  21370332.490     -389868.18149   -298780.23449  21370334.1424   21370339.0154
  21877892.190     -286368.35649   -218825.96949  21877893.8614   21877900.1034
  22322170.937     1024584.53349    781668.12349  22322171.9024   22322177.2564
 94  4 30  1 58  0.0000000  0  7 25 20 17  5  6 16 24
  24112930.675       69646.53049     52969.73449  24112932.9994   24112938.7224
  20445931.154      219710.13349    167670.45749  20445932.4284   20445938.0444
  23882801.598     -985024.52549   -752788.98649  23882803.6684   23882810.6714
  21425553.021     1001954.57449    759183.60649  21425554.1344   21425559.6164
  21362825.751     -429313.97549   -329517.19949  21362827.6144   21362832.6374
  21872537.326     -314511.81449   -240755.91349  21872538.6594   21872544.7504
  22339756.778     1116999.07549    853679.44449  22339757.6884   22339763.1244
 94  4 30  1 58 30.0000000  0  7 25 20 17  5  6 16 24
  24113850.816       74483.31749     56738.64949  24113852.6814   24113858.7164
  20449335.299      237598.49049    181609.42849  20449336.3964   20449342.2044
  23866141.868    -1072575.05949   -821010.09149  23866142.8454   23866150.9054
  21441960.804     1088177.98949    826370.65449  21441962.0444   21441967.3924
  21355263.573     -469056.10449   -360485.07849  21355265.1424   21355270.0294
  21867195.691     -342582.47449   -262629.13349  21867196.7284   21867202.8174
  22357285.619     1209120.50949    925462.36549  22357287.7354   22357293.2824
 94  4 30  1 59  0.0000000  0  7 25 20 17  5  6 16 24
  24114802.695       79480.08549     60632.22849  24114804.1594   24114809.8114
  20452779.852      255701.09249    195715.34349  20452781.3664   20452787.0084
  23849442.393    -1160320.98449   -889383.44449  23849445.0214   23849452.6664
  21458375.455     1174437.04949    893585.47549  21458376.5174   21458381.9554
  21347665.142     -508986.97149   -391600.02349  21347666.6104   21347671.5224
  21861885.201     -370490.37249   -284375.52649  21861885.9044   21861892.0974
  22374778.010     1301043.29549    997090.49749  22374779.9254   22374785.5824
 94  4 30  1 59 30.0000000  0  7 25 20 17  5  6 16 24
  24115775.391       84591.99649     64615.52249  24115776.3334   24115782.5484
  20456255.930      273967.18749    209948.65449  20456257.2724   20456263.0194
  23832702.199    -1248299.66949   -957938.17349  23832703.2404   23832710.9274
  21474789.330     1260694.05849    960798.69949  21474790.6324   21474796.2974
  21340025.960     -549133.71249   -422883.18549  21340026.7514   21340031.5764
  21856593.095     -398298.88449   -306044.47449  21856594.1114   21856600.3094
  22392221.150     1392707.20549   1068516.90749  22392223.3064   22392228.7664
 94  4 30  2  0  0.0000000  0  7 25 20 17  5  6 16 24
  24116786.354       89903.16649     68754.07149  24116787.2884   24116792.9844
  20459775.522      292463.46649    224361.32949  20459776.9294   20459782.7284
  23815928.844    -1336442.55649  -1026620.87149  23815930.0584   23815938.5054
  21491218.715     1347029.99449   1028073.42249  21491219.8754   21491225.6664
  21332359.181     -589419.58349   -454274.75949  21332360.6184   21332365.3664
  21851332.881     -425940.19149   -327583.13249  21851334.1084   21851340.3344
  22409625.290     1484166.64049   1139783.98849  22409627.3314   22409633.0644
 94  4 30  2  0 30.0000000  0  7 25 20 17  5  6 16 24
  24117836.724       95422.46149     73054.81149  24117837.2124   24117843.2924
  20463339.971      311196.19449    238958.25149  20463341.5594   20463347.5354
  23799126.245    -1424741.86349  -1095425.45049  23799127.1624   23799135.3014
  21507662.849     1433447.38449   1095411.62449  21507664.5954   21507670.2974
  21324669.347     -629829.02549   -485762.62849  21324670.8654   21324675.7444
  21846104.737     -453410.45449   -348988.50749  21846106.6694   21846112.8454
  22426991.286     1575427.50549   1210896.33749  22426993.5114   22426999.1624
 94  4 30  2  1  0.0000000  0  7 25 20 17  5  6 16 24
  24118935.187      101194.10649     77552.19149  24118936.3094   24118941.1404
  20466957.147      330201.41749    253767.50949  20466958.2504   20466963.8884
  23782300.242    -1513162.29149  -1164324.40849  23782301.1814   23782309.2544
  21524130.778     1519984.27849   1162842.94549  21524132.0424   21524137.7134
  21316959.886     -670343.32349   -517332.19849  21316961.2904   21316966.2474
  21840917.709     -480674.17449   -370232.94349  21840918.6344   21840924.7614
  22444329.302     1666536.00649   1281889.96149  22444330.9934   22444336.9354
 94  4 30  2  1 30.0000000  0  7 25 20 17  5  6 16 24
  24120086.326      107247.20849     82268.88049  24120088.1134   24120093.8324
  20470630.123      349502.43649    268807.25449  20470631.4534   20470636.8924
  23765455.014    -1601689.24049  -1233306.37249  23765455.6784   23765463.1244
  21540622.864     1606651.08949   1230375.50449  21540624.1564   21540629.9654
  21309231.092     -710958.87249   -548980.65949  21309232.4874   21309237.4524
  21835775.268     -507694.71349   -391287.88649  21835776.5294   21835782.8124
  22461641.922     1757515.46849   1352783.04449  22461644.1744   22461649.6624
 94  4 30  2  2  0.0000000  0  7 25 20 17  5  6 16 24
  24121289.917      113567.53849     87193.79649  24121290.9254   24121296.6594
  20474358.967      369099.32749    284077.55049  20474360.4624   20474366.0224
  23748585.665    -1690327.36749  -1302374.96249  23748588.2624   23748595.9544
  21557137.069     1693434.85849   1297999.18849  21557138.5824   21557144.2814
  21301479.977     -751691.23549   -580720.15249  21301481.3764   21301486.3284
  21830682.972     -534456.57349   -412141.25949  21830684.0434   21830690.3414
  22478931.398     1848373.24349   1423581.29049  22478933.4734   22478939.3084
 94  4 30  2  2 30.0000000  0  7 25 20 17  5  6 16 24
  24122544.227      120158.99349     92329.98949  24122544.9724   24122550.5004
  20478149.905      389017.01449    299597.80849  20478150.7674   20478156.2774
  23731702.717    -1779051.99049  -1371510.96149  23731704.0884   23731712.0914
  21573677.107     1780350.05749   1365725.29849  21573678.4144   21573683.9814
  21293711.279     -792515.41149   -612531.18949  21293712.6604   21293717.5924
  21825644.992     -560931.95349   -432771.40549  21825645.5954   21825652.1364
  22496204.750     1939143.29149   1494311.18049  22496206.4794   22496212.4574
 94  4 30  2  3  0.0000000  0  7 25 20 17  5  6 16 24
  24123856.610      127063.55649     97710.15349  24123858.4954   24123864.6354
  20482008.811      409299.16949    315402.06449  20482010.1084   20482016.0364
  23714810.852    -1867817.87649  -1440679.11349  23714812.3054   23714819.9744
  21590250.048     1867442.76249   1433589.72149  21590251.4464   21590257.1844
  21285933.099     -833387.88549   -644379.85849  21285934.9944   21285939.9104
  21820669.390     -587077.27249   -453144.36049  21820670.3274   21820676.6934
  22513467.894     2029860.78849   1565000.11949  22513469.6884   22513475.5654
 94  4 30  2  3 30.0000000  0  7 25 20 17  5  6 16 24
  24125232.641      134294.27449    103344.46049  24125234.4204   24125241.0204
  20485941.891      429968.91749    331508.34649  20485943.3994   20485949.4354
  23697917.974    -1956590.10349  -1509852.21749  23697919.2844   23697927.8024
  21606859.967     1954728.29349   1501604.39749  21606861.3394   21606867.0384
  21278152.121     -874281.28249   -676244.83549  21278153.3284   21278158.1964
  21815760.394     -612869.09149   -473241.86449  21815761.9364   21815768.7154
  22530723.462     2120536.01349   1635656.12049  22530724.6844   22530730.4564
 94  4 30  2  4  0.0000000  0  7 25 20 17  5  6 16 24
  24126668.771      141841.31149    109225.26149  24126670.3794   24126676.4504
  20489948.081      451020.28149    347911.99649  20489949.5184   20489955.4264
  23681025.332    -2045359.53549  -1579023.13849  23681027.1834   23681035.1514
  21623508.010     2042212.96849   1569774.24549  21623509.3084   21623514.7734
  21270368.472     -915184.98949   -708117.85049  21270369.6084   21270374.5884
  21810918.903     -638314.45849   -493069.40549  21810920.1304   21810926.6924
  22547967.283     2211156.74949   1706269.66549  22547969.2944   22547974.9244
 94  4 30  2  4 30.0000000  0  7 25 20 17  5  6 16 24
  24128170.348      149719.19149    115363.85749  24128170.9574   24128175.2854
  20494025.445      472445.12249    364606.66449  20494026.6274   20494032.2924
  23664135.456    -2134124.43549  -1648190.52849  23664135.7174   23664144.0744
  21640191.155     2129882.12649   1638087.84649  21640192.2354   21640197.5714
  21262581.919     -956100.61149   -740000.14649  21262583.5754   21262588.4724
  21806140.711     -663428.78349   -512638.99349  21806141.3584   21806147.5664
  22565195.618     2301690.34249   1776815.30949  22565197.2304   22565203.1334
 94  4 30  2  5  0.0000000  0  7 25 20 17  5  6 16 24
  24129730.586      157934.55849    121765.43249  24129733.6074   24129739.1054
  20498172.942      494239.70549    381589.44249  20498174.1364   20498179.8514
  23647244.265    -2222882.17249  -1717352.32949  23647246.0204   23647253.1894
  21656907.821     2217728.90049   1706539.85249  21656908.8424   21656914.2244
  21254791.429     -997041.35449   -771902.01749  21254792.9894   21254797.8004
  21801422.563     -688218.79949   -531955.87049  21801423.9094   21801430.1194
  22582404.998     2392130.74249   1847288.33649  22582407.4444   22582413.2334
 94  4 30  2  5 30.0000000  0  7 25 20 17  5  6 16 24
  24131361.880      166490.23649    128432.18649  24131362.0394   24131367.3304
  20502390.309      516402.65149    398859.25849  20502391.5004   20502397.3604
  23630355.672    -2311636.43849  -1786511.43449  23630356.4894   23630364.3894
  21673657.448     2305748.77149   1775126.72849  21673658.4464   21673663.9024
  21246995.015    -1038012.07549   -803827.24349  21246996.4684   21247001.2284
  21796770.311     -712670.95849   -551009.48049  21796770.9084   21796777.0714
  22599599.867     2482485.84149   1917694.90049  22599601.5154   22599607.1934
 94  4 30  2  6  0.0000000  0  7 25 20 17  5  6 16 24
  24133055.597      175401.90249    135376.32149  24133057.7164   24133062.6764
  20506678.618      538939.08749    416420.10149  20506679.9144   20506685.9174
  23613468.429    -2400383.24749  -1855664.72849  23613468.9574   23613476.3074
  21690441.982     2393952.07249   1843856.54249  21690443.0524   21690448.4164
  21239194.450    -1079005.82549   -835770.42249  21239195.4824   21239200.3204
  21792182.529     -736775.81349   -569792.47049  21792183.7994   21792189.9704
  22616779.066     2572765.79849   1988042.90749  22616781.1574   22616786.9534
 94  4 30  2  6 30.0000000  0  7 25 20 17  5  6 16 24
  24134820.339      184671.48949    142599.36549  24134821.9744   24134827.0724
  20511038.846      561852.13349    434274.41049  20511040.1954   20511046.0994
  23596579.178    -2489131.78549  -1924819.36749  23596580.2444   23596587.8544
  21707261.650     2482337.29349   1912728.11749  21707262.3414   21707267.7744
  21231387.730    -1120028.13249   -867735.85149  21231389.1924   21231394.1514
  21787659.954     -760543.10049   -588312.41749  21787661.0244   21787667.1284
  22633946.750     2662984.38149   2058343.09249  22633949.1644   22633955.0944
 94  4 30  2  7  0.0000000  0  7 25 20 17  5  6 16 24
  24136647.175      194273.96749    150081.79749  24136649.2114   24136654.2384
  20515470.789      585140.89349    452421.48649  20515472.1474   20515477.8724
  23579687.320    -2577894.68549  -1993985.20249  23579688.9554   23579696.7834
  21724116.661     2570914.67249   1981749.42149  21724117.9444   21724123.5734
  21223577.887    -1161070.77149   -899717.12349  21223579.2694   21223584.0574
  21783203.693     -783961.66449   -606560.63049  21783204.6954   21783210.9584
  22651107.080     2753161.73449   2128611.14649  22651109.3124   22651115.1984
 94  4 30  2  7 30.0000000  0  7 25 20 17  5  6 16 24
  24138536.895      204209.49449    157823.74649  24138538.8124   24138545.4984
  20519974.152      608807.25649    470862.80149  20519975.6174   20519981.3384
  23562794.220    -2666675.09549  -2063164.66849  23562794.6414   23562802.0124
  21741010.150     2659690.18949   2050925.11949  21741011.3244   21741017.2734
  21215767.036    -1202117.63349   -931701.67949  21215768.3844   21215773.0074
  21778814.758     -807022.84949   -624530.36049  21778816.0494   21778822.3084
  22668259.085     2843289.83949   2198840.82649  22668260.4604   22668266.0974
 94  4 30  2  8  0.0000000  0  7 25 20 17  5  6 16 24
  24140487.515      214456.02849    165808.03349  24140489.9794   24140495.4814
  20524549.699      632848.91249    489596.54649  20524550.6214   20524556.3364
  23545895.386    -2755477.04449  -2132360.92049  23545895.9634   23545904.0364
  21757940.311     2748659.53349   2120251.84849  21757941.7914   21757947.3524
  21207957.013    -1243158.08649   -963681.24349  21207958.6174   21207963.3834
  21774492.052     -829743.50149   -642234.74349  21774492.7204   21774498.7024
  22685398.290     2933357.24949   2269023.21349  22685399.4174   22685405.4244
 94  4 30  2  8 30.0000000  0  7 25 20 17  5  6 16 24
  24142492.817      224992.81349    174018.49649  24142494.2144   24142500.7024
  20529194.388      657260.30049    508618.39849  20529195.8284   20529201.6104
  23528989.302    -2844315.46949  -2201585.60449  23528990.8844   23528998.5844
  21774907.137     2837819.01949   2189726.74849  21774908.3894   21774913.7914
  21200150.428    -1284182.19649   -995648.07149  21200151.8654   21200156.6814
  21770231.323     -852131.28549   -659679.75249  21770232.4964   21770238.4294
  22702523.023     3023350.28749   2339147.64149  22702524.7594   22702530.7114
 94  4 30  2  9  0.0000000  0  7 25 20 17  5  6 16 24
  24144553.002      235824.68149    182458.89449  24144554.6294   24144561.4394
  20533911.817      682049.94249    527934.98949  20533912.9734   20533919.0224
  23512080.160    -2933173.74049  -2270825.75249  23512081.2974   23512089.1944
  21791910.139     2927169.25449   2259350.27549  21791911.3224   21791916.6714
  21192350.749    -1325168.39049  -1027585.35849  21192352.4144   21192357.3074
  21766039.019     -874161.76949   -676846.34649  21766040.0604   21766046.2644
  22719633.091     3113266.60049   2409212.28049  22719635.4564   22719641.3224
 94  4 30  2  9 30.0000000  0  7 25 20 17  5  6 16 24
  24146676.033      246974.97449    191147.41849  24146677.1134   24146683.3214
  20538703.587      707228.94649    547554.98049  20538704.6084   20538710.4184
  23495169.893    -3022035.40249  -2340068.53049  23495171.7024   23495179.5654
  21808949.642     3016712.60949   2329124.29449  21808950.7174   21808956.0674
  21184560.020    -1366111.20049  -1059488.83549  21184561.2314   21184566.1624
  21761914.923     -895833.46149   -693733.35949  21761916.1454   21761922.2334
  22736729.674     3203105.97249   2479216.96849  22736731.2794   22736737.0574
 94  4 30  2 10  0.0000000  0  7 25 20 17  5  6 16 24
  24148858.163      258443.21649    200083.68549  24148858.9224   24148865.3574
  20543569.676      732800.64149    567480.95849  20543570.8964   20543576.5054
  23478261.340    -3110893.20049  -2409308.31749  23478262.5644   23478270.1494
  21826024.478     3106442.78049   2399043.88149  21826025.6424   21826031.3004
  21176776.152    -1407014.39749  -1091361.45049  21176777.6954   21176782.5624
  21757858.881     -917144.70249   -710339.50549  21757860.6604   21757866.8344
  22753812.442     3292878.26849   2549169.38849  22753814.2364   22753820.2894
 94  4 30  2 10 30.0000000  0  7 25 20 17  5  6 16 24
  24151105.445      270265.73849    209296.02349  24151108.1984   24151114.7844
  20548511.451      758772.08849    587718.43449  20548513.1024   20548518.8624
  23461356.131    -3199727.23549  -2478529.56849  23461357.6354   23461365.9094
  21843136.672     3196367.78049   2469115.28049  21843137.7564   21843143.8064
  21168997.265    -1447890.80249  -1123213.18349  21168999.0464   21169003.9744
  21753876.279     -938074.99349   -726648.80149  21753877.8994   21753883.9544
  22770886.501     3382601.43649   2619083.52249  22770888.0474   22770894.1394
 94  4 30  2 11  0.0000000  0  7 25 20 17  5  6 16 24
  24153426.942      282449.21849    218789.62249  24153428.8624   24153433.7214
  20553529.953      785142.07049    608266.46149  20553531.2284   20553536.8244
  23444458.760    -3288524.96949  -2547722.53849  23444460.1014   23444468.2664
  21860282.248     3286468.35849   2539323.48749  21860283.4964   21860289.5184
  21161218.397    -1488770.63449  -1155067.58649  21161220.0114   21161224.7664
  21749970.614     -958602.75849   -742644.44649  21749971.6804   21749977.6484
  22787950.983     3472274.15349   2688958.34249  22787951.9664   22787958.1264
 94  4 30  2 11 30.0000000  0  7 25 20 17  5  6 16 24
  24155817.292      295004.89949    228573.25249  24155817.3274   24155822.7864
  20558625.153      811917.54649    629130.45849  20558626.5394   20558632.1504
  23427571.551    -3377265.08449  -2616870.61549  23427573.6274   23427581.3334
  21877461.505     3376748.08449   2609671.29449  21877463.0744   21877468.9304
  21153437.401    -1529660.36149  -1186929.70149  21153438.8964   21153443.8594
  21746142.452     -978715.46149   -758316.66049  21746144.2084   21746150.2414
  22805003.946     3561895.39049   2758793.05549  22805006.4504   22805012.4974
 94  4 30  2 12  0.0000000  0  7 25 20 17  5  6 16 24
  24158276.538      307936.28049    238649.62249  24158278.4674   24158283.7694
  20563797.489      839098.14249    650310.13449  20563798.8104   20563804.4504
  23410699.549    -3465934.36349  -2685963.49949  23410700.4314   23410707.5164
  21894675.988     3467207.49449   2680159.11549  21894677.1454   21894682.9504
  21145654.482    -1570561.19549  -1218800.46949  21145655.6924   21145660.7474
  21742397.816     -998399.48649   -773654.84149  21742398.7084   21742404.3054
  22822048.708     3651463.25849   2828586.18549  22822050.7134   22822056.5514
 94  4 30  2 12 30.0000000  0  7 25 20 17  5  6 16 24
  24160809.540      321245.67549    249020.55049  24160811.4674   24160816.3374
  20569046.957      866683.14049    671804.92649  20569048.0234   20569053.6554
  23393837.710    -3554541.11949  -2755007.66349  23393838.8704   23393846.0384
  21911924.084     3557845.59549   2750786.18149  21911925.1064   21911930.7494
  21137869.770    -1611470.37749  -1250677.74549  21137871.0564   21137875.9044
  21738734.057    -1017648.53549   -788654.08149  21738735.2664   21738741.5714
  22839080.764     3740966.21249   2898328.73449  22839082.4554   22839088.3814
 94  4 30  2 13  0.0000000  0  7 25 20 17  5  6 16 24
  24163411.277      334911.51549    259669.23849  24163411.6644   24163417.8954
  20574373.349      894675.67149    693617.27949  20574374.8174   20574380.5274
  23376986.496    -3643093.07249  -2824009.11549  23376988.3894   23376995.3374
  21929205.307     3648659.85049   2821550.50449  21929206.5014   21929212.4114
  21130088.822    -1652357.83549  -1282538.08949  21130090.3264   21130095.2314
  21735152.284    -1036473.37049   -803322.76049  21735153.3124   21735159.4164
  22856097.374     3830389.52949   2968009.23449  22856099.3294   22856105.0904
 94  4 30  2 13 30.0000000  0  7 25 20 17  5  6 16 24
  24166078.507      348934.23649    270596.01349  24166080.2844   24166085.6224
  20579777.602      923076.24849    715747.58649  20579779.1994   20579784.9844
  23360143.967    -3731604.66149  -2892979.12449  23360144.9844   23360151.8964
  21946522.031     3739661.10749   2892460.53949  21946523.3394   21946529.1954
  21122318.093    -1693193.53949  -1314358.10949  21122319.5794   21122324.4724
  21731644.962    -1054901.79849   -817682.55949  21731646.3374   21731652.4894
  22873101.059     3919746.66649   3037638.16149  22873103.4094   22873109.3164
 94  4 30  2 14  0.0000000  0  7 25 20 17  5  6 16 24
  24168814.880      363311.58949    281799.11349  24168816.3324   24168821.2704
  20585260.139      951883.29249    738194.62049  20585261.2114   20585266.8464
  23343303.870    -3820103.21849  -2961938.98249  23343304.5144   23343310.8754
  21963874.757     3830849.22649   2963516.18349  21963876.1044   21963881.8354
  21114558.344    -1733971.83549  -1346133.39549  21114559.6664   21114564.5344
  21728210.970    -1072948.35649   -831744.79449  21728212.1634   21728218.2804
  22890095.052     4009051.80449   3107226.57049  22890097.6524   22890103.5454
 94  4 30  2 14 30.0000000  0  7 25 20 17  5  6 16 24
  24171615.832      378024.77749    293263.91049  24171616.0084   24171621.1874
  20590819.525      981098.66649    760959.83149  20590820.5714   20590826.3224
  23326464.283    -3908590.50049  -3030890.06449  23326465.5344   23326472.3184
  21981261.623     3922216.58749   3034711.49749  21981262.6254   21981268.4374
  21106811.303    -1774682.98549  -1377856.36049  21106812.6934   21106817.4734
  21724848.699    -1090619.36049   -845514.38749  21724849.5494   21724855.8144
  22907081.579     4098310.26249   3176778.60449  22907082.8474   22907088.8734
 94  4 30  2 15  0.0000000  0  7 25 20 17  5  6 16 24
  24174477.080      393069.85849    304987.33649  24174479.1494   24174483.5314
  20596457.018     1010725.36049    784045.54949  20596458.4014   20596464.0254
  23309630.175    -3997048.94549  -3099818.67549  23309632.5794   23309639.3544
  21998681.268     4013758.88049   3106043.12149  21998682.7224   21998688.4314
  21099077.668    -1815321.71149  -1409522.89449  21099079.3614   21099084.1814
  21721556.203    -1107918.91449   -858994.54049  21721557.5484   21721563.7224
  22924060.088     4187532.26049   3246302.22349  22924061.2914   22924067.3054
 94  4 30  2 15 30.0000000  0  7 25 20 17  5  6 16 24
  24177403.752      408455.93649    316976.46849  24177406.3574   24177412.3764
  20602173.701     1040766.53949    807454.24849  20602174.8834   20602180.7144
  23292805.930    -4085464.22349  -3168713.64349  23292807.3304   23292814.6204
  22016135.401     4105479.85349   3177513.97849  22016136.6214   22016142.1904
  21091355.007    -1855905.95249  -1441146.97349  21091356.4284   21091361.2954
  21718338.010    -1124829.01249   -872171.22049  21718339.6354   21718345.7174
  22941034.667     4276736.72649   3315812.17849  22941036.2894   22941042.2924
 94  4 30  2 16  0.0000000  0  7 25 20 17  5  6 16 24
  24180398.494      424187.77449    329235.01849  24180400.0254   24180405.4704
  20607969.491     1071222.60949    831186.23549  20607970.5944   20607976.4104
  23275993.075    -4173815.83749  -3237559.00749  23275994.2964   23276001.5224
  22033623.670     4197379.44249   3249124.01849  22033624.6944   22033629.9964
  21083639.893    -1896448.23849  -1472738.35949  21083641.4004   21083646.3314
  21715196.875    -1141339.45949   -885036.48549  21715197.8634   21715204.0644
  22958002.758     4365905.49249   3385294.32049  22958004.7354   22958010.4654
 94  4 30  2 16 30.0000000  0  7 25 20 17  5  6 16 24
  24183457.569      440261.79449    341760.19849  24183458.8404   24183465.1404
  20613843.942     1102092.62549    855240.77749  20613845.1224   20613850.8454
  23259197.001    -4262079.46949  -3306335.81449  23259198.3924   23259205.4284
  22051147.202     4289467.17249   3320880.66749  22051148.3764   22051153.8034
  21075933.460    -1936946.89049  -1504295.74249  21075934.8264   21075939.7654
  21712132.165    -1157443.91049   -897585.39149  21712133.3394   21712139.4534
  22974961.655     4455020.84649   3454734.84249  22974962.8714   22974968.6244
 94  4 30  2 17  0.0000000  0  7 25 20 17  5  6 16 24
  24186585.907      456695.34149    354565.52549  24186586.7654   24186592.2504
  20619797.348     1133379.23049    879619.93649  20619798.7754   20619804.4994
  23242418.670    -4350254.67449  -3375043.72549  23242419.3784   23242426.7664
  22068710.241     4381761.02449   3392797.92249  22068711.4114   22068716.6264
  21068234.790    -1977405.49349  -1535821.91749  21068235.8634   21068240.7504
  21709145.633    -1173138.21549   -909814.70549  21709146.8904   21709152.9274
  22991908.532     4544080.47449   3524131.94549  22991910.2854   22991916.1054
 94  4 30  2 17 30.0000000  0  7 25 20 17  5  6 16 24
  24189781.405      473499.05549    367659.29549  24189784.4774   24189789.8934
  20625830.749     1165082.03349    904323.40549  20625831.4954   20625837.3084
  23225656.611    -4438333.55849  -3443676.57349  23225658.5994   23225665.3234
  22086315.909     4474276.88549   3464888.17249  22086316.7414   22086322.1094
  21060544.970    -2017814.34849  -1567309.32649  21060546.1444   21060550.9394
  21706238.541    -1188413.25949   -921717.32449  21706240.0144   21706246.0414
  23008844.213     4633079.20949   3593481.59549  23008846.3314   23008851.9594
 94  4 30  2 18  0.0000000  0  7 25 20 17  5  6 16 24
  24193051.609      490668.31549    381037.91149  24193050.8004   24193056.9784
  20631942.475     1197201.16049    929351.27749  20631943.6004   20631949.3914
  23208915.153    -4526314.52549  -3512233.12749  23208916.2034   23208923.1674
  22103962.540     4567013.13349   3537150.15549  22103963.8034   22103969.5104
  21052868.831    -2058151.32849  -1598740.73149  21052870.3314   21052874.9774
  21703411.740    -1203271.83849   -933295.42849  21703412.5714   21703418.7284
  23025765.092     4722001.49549   3662771.67449  23025767.3044   23025773.4944
 94  4 30  2 18 30.0000000  0  7 25 20 17  5  6 16 24
  24196386.488      508198.18649    394697.52149  24196387.4224   24196392.4774
  20638134.019     1229738.85249    954705.30349  20638135.3514   20638141.3304
  23192189.277    -4614209.98449  -3580723.05149  23192190.3604   23192196.7644
  22121650.527     4659963.57349   3609579.03349  22121651.5864   22121657.1454
  21045208.447    -2098407.46549  -1630109.13849  21045209.8134   21045214.8134
  21700664.644    -1217707.38249   -944543.88749  21700665.5864   21700671.5904
  23042674.045     4810853.49849   3732006.98949  23042675.4324   23042681.2774
 94  4 30  2 19  0.0000000  0  7 25 20 17  5  6 16 24
  24199790.020      526086.30249    408636.27949  24199791.0784   24199796.0814
  20644405.513     1262693.41349    980384.16249  20644406.2774   20644412.2614
  23175474.267    -4702044.24549  -3649165.28349  23175475.7484   23175483.3434
  22139375.258     4753107.35149   3682158.56849  22139376.1044   22139381.9674
  21037563.992    -2138578.76949  -1661411.43849  21037565.4344   21037570.3574
  21697997.767    -1231719.24349   -955462.20349  21697999.0774   21698005.2414
  23059570.036     4899641.40449   3801192.35649  23059571.4794   23059577.4524
 94  4 30  2 19 30.0000000  0  7 25 20 17  5  6 16 24
  24203261.113      544329.12749    422851.43749  24203262.6634   24203268.2084
  20650755.631     1296064.71149   1006387.75549  20650756.8394   20650762.6084
  23158770.341    -4789824.91749  -3717565.75449  23158772.0264   23158779.1364
  22157134.223     4846432.63049   3754879.52449  22157135.2464   22157141.3264
  21029936.998    -2178660.12149  -1692643.64449  21029938.2654   21029943.2354
  21695411.568    -1245309.01649   -966051.62149  21695412.9634   21695418.8774
  23076454.392     4988373.27849   3870334.05549  23076456.3254   23076462.5224
 94  4 30  2 20  0.0000000  0  7 25 20 17  5  6 16 24
  24206798.318      562919.87449    437337.71049  24206800.0054   24206806.4244
  20657184.569     1329849.51949   1032713.56849  20657185.9534   20657191.7554
  23142070.252    -4877583.88949  -3785949.31949  23142071.9814   23142079.0474
  22174924.259     4939918.85349   3827725.89549  22174925.2974   22174931.1904
  21022321.970    -2218677.46249  -1723825.97349  21022323.1644   21022328.0654
  21692906.295    -1258481.93049   -976316.21649  21692906.4154   21692912.0234
  23093327.303     5077037.47849   3939423.02549  23093328.7594   23093334.6924
 94  4 30  2 20 30.0000000  0  7 25 20 17  5  6 16 24
  24210406.444      581867.93549    452102.40549  24210406.2794   24210412.3374
  20663693.787     1364052.57149   1059365.27749  20663694.8154   20663700.3534
  23125374.812    -4965319.92149  -3854315.00349  23125375.7944   23125383.5994
  22192744.994     5033568.57049   3900699.66549  22192746.1044   22192752.1164
  21014717.341    -2258639.63749  -1754965.31949  21014718.7324   21014723.5884
  21690478.450    -1271230.96449   -986250.51449  21690480.3034   21690486.1594
  23110189.001     5165647.34949   4008469.66449  23110190.5674   23110196.8264
 94  4 30  2 21  0.0000000  0  7 25 20 17  5  6 16 24
  24214076.765      601170.09349    467143.02349  24214078.5054   24214084.9114
  20670280.446     1398668.18649   1086338.46149  20670281.8164   20670287.4274
  23108687.549    -5053012.75949  -3922647.04249  23108688.7474   23108695.8764
  22210596.281     5127378.10549   3973797.97349  22210597.5504   22210603.5764
  21007120.903    -2298559.81249  -1786071.93749  21007122.1224   21007127.0734
  21688133.397    -1283558.81949   -995856.62249  21688134.5734   21688140.4094
  23127040.808     5254203.36049   4077474.33349  23127042.4524   23127048.5264
 94  4 30  2 21 30.0000000  0  7 25 20 17  5  6 16 24
  24217817.981      620822.99749    482456.96349  24217818.9304   24217825.3684
  20676945.459     1433692.92249   1113630.45049  20676946.7724   20676952.4644
  23092013.092    -5140638.02549  -3990926.42449  23092014.1194   23092021.4154
  22228479.647     5221352.90049   4047025.05349  22228480.3344   22228486.3274
  20999529.792    -2338451.04649  -1817155.99849  20999531.1024   20999536.0214
  21685868.918    -1295461.51949  -1005131.44249  21685869.4554   21685875.2994
  23143878.199     5342685.07149   4146421.10849  23143880.0444   23143886.0624
 94  4 30  2 22  0.0000000  0  7 25 20 17  5  6 16 24
  24221621.399      640824.61549    498042.61349  24221625.4454   24221631.0054
  20683689.348     1469132.45649   1141245.65549  20683690.6404   20683696.3434
  23075356.971    -5228164.48449  -4059128.81849  23075358.4834   23075365.6664
  22246393.174     5315490.19749   4120378.75449  22246394.3344   22246399.9834
  20991947.001    -2378298.78249  -1848206.16749  20991948.4814   20991953.2804
  21683686.436    -1306924.77549  -1014063.83849  21683687.7804   21683693.9834
  23160699.781     5431083.67949   4215303.12349  23160701.5834   23160707.7114
 94  4 30  2 22 30.0000000  0  7 25 20 17  5  6 16 24
  24225491.905      661166.90449    513893.76349  24225495.5844   24225502.4884
  20690511.956     1504982.85349   1169181.01249  20690512.9364   20690518.3814
  23058725.734    -5315563.85649  -4127232.17949  23058726.5874   23058734.2204
  22264338.618     5409793.69649   4193861.96549  22264339.7354   22264345.5074
  20984375.520    -2418085.37149  -1879208.69349  20984377.1534   20984381.9474
  21681587.340    -1317958.98049  -1022661.90549  21681588.1554   21681594.1984
  23177506.623     5519403.70249   4284123.90349  23177508.3374   23177514.4334
 94  4 30  2 23  0.0000000  0  7 25 20 17  5  6 16 24
  24229429.305      681844.05549    530005.80449  24229430.6744   24229437.4384
  20697411.538     1541242.53449   1197435.29049  20697412.9484   20697418.4054
  23042117.308    -5402838.37849  -4195238.24349  23042118.9824   23042126.3114
  22282314.881     5504261.76549   4267473.41349  22282316.4114   22282322.1874
  20976816.867    -2457806.57249  -1910160.26749  20976818.3674   20976823.1034
  21679569.264    -1328565.11849  -1030926.41249  21679569.9774   21679575.8674
  23194294.609     5607622.32849   4352865.68049  23194296.0044   23194301.8904
 94  4 30  2 23 30.0000000  0  7 25 20 17  5  6 16 24
  24233427.695      702851.02849    546374.87349  24233427.6894   24233433.6924
  20704388.977     1577908.21749   1226005.93849  20704390.1954   20704395.6374
  23025529.322    -5490011.16849  -4263165.03949  23025530.6494   23025538.0394
  22300322.953     5598894.28149   4341212.99749  22300324.1954   22300329.9734
  20969273.302    -2497449.88849  -1941051.14749  20969274.6664   20969279.3394
  21677632.824    -1338737.90949  -1038853.24749  21677634.2014   21677640.0884
  23211061.083     5695735.81349   4421525.53049  23211063.4294   23211069.3304
 94  4 30  2 24  0.0000000  0  7 25 20 17  5  6 16 24
  24237487.839      724193.77749    563005.57349  24237490.6874   24237496.6864
  20711443.139     1614977.86749   1254891.36049  20711444.3004   20711449.8944
  23008957.595    -5577095.75749  -4331023.11149  23008959.0644   23008966.1984
  22318362.092     5693687.82049   4415078.05649  22318363.1014   22318368.9044
  20961744.825    -2537013.31649  -1971879.78149  20961745.8784   20961750.7144
  21675780.247    -1348475.29349  -1046440.80649  21675781.2954   21675787.3454
  23227811.923     5783759.30449   4490115.25149  23227813.5944   23227819.4174
 94  4 30  2 24 30.0000000  0  7 25 20 17  5  6 16 24
  24241614.781      745881.69949    579905.22949  24241615.8484   24241621.8194
  20718574.445     1652451.76549   1284091.78749  20718575.3934   20718581.0424
  22992399.175    -5664112.34549  -4398828.20349  22992400.2784   22992407.2294
  22336433.157     5788651.54449   4489075.73349  22336433.9394   22336439.7194
  20954228.156    -2576513.21949  -2002658.91149  20954229.5474   20954234.2494
  21674011.094    -1357771.75549  -1053684.78249  21674012.1594   21674018.0784
  23244546.651     5871696.28849   4558637.56449  23244547.5724   23244553.6424
 94  4 30  2 25  0.0000000  0  7 25 20 17  5  6 16 24
  24245809.946      767917.27949    597075.79649  24245810.3814   24245816.3514
  20725781.588     1690328.92549   1313606.44149  20725782.9744   20725788.8664
  22975850.691    -5751073.90849  -4466590.41849  22975851.9234   22975858.6314
  22354534.774     5883778.28249   4563200.42649  22354535.8694   22354541.9794
  20946723.645    -2615948.44949  -2033387.65449  20946725.1444   20946729.8734
  21672328.433    -1366610.11649  -1060571.80449  21672329.9574   21672336.2644
  23261264.583     5959553.29749   4627097.55449  23261266.1584   23261272.0154
 94  4 30  2 25 30.0000000  0  7 25 20 17  5  6 16 24
  24250066.956      790305.78549    614521.36549  24250069.9694   24250076.7414
  20733066.813     1728610.18649   1343435.97849  20733067.8634   20733073.4984
  22959313.762    -5837972.93849  -4534303.90849  22959315.7864   22959322.7134
  22372667.337     5979065.56949   4637450.21949  22372668.5604   22372674.5864
  20939232.917    -2655312.53949  -2064060.96149  20939234.2954   20939239.0794
  21670734.876    -1374988.86049  -1067100.67949  21670735.6094   21670741.7424
  23277974.688     6047363.29249   4695520.91449  23277975.8124   23277981.8714
 94  4 30  2 26  0.0000000  0  7 25 20 17  5  6 16 24
  24254396.788      813051.83149    632245.55349  24254399.7994   24254404.2054
  20740428.746     1767298.43249   1373582.64449  20740429.8914   20740435.7984
  22942791.239    -5924800.75849  -4601961.90449  22942792.5134   22942799.9074
  22390829.878     6074508.64649   4711821.40849  22390830.7564   22390836.6824
  20931754.936    -2694610.36649  -2094682.63349  20931756.2154   20931760.9654
  21669225.350    -1382921.13949  -1073281.65849  21669226.3124   21669232.2374
  23294674.207     6135125.28049   4763906.86349  23294676.6264   23294682.4704
 94  4 30  2 26 30.0000000  0  7 25 20 17  5  6 16 24
  24258791.255      836143.10649    650238.72349  24258792.4084   24258799.4974
  20747868.342     1806392.97249   1404045.90749  20747869.2644   20747875.4164
  22926282.244    -6011554.59349  -4669562.24849  22926284.2054   22926290.8554
  22409019.651     6170096.83749   4786305.67649  22409020.5204   22409026.7364
  20924292.119    -2733826.06649  -2125240.31149  20924293.6924   20924298.5074
  21667797.283    -1390425.23249  -1079128.98849  21667798.3064   21667804.3304
  23311366.110     6222836.11849   4832252.95549  23311367.2004   23311373.2634
 94  4 30  2 27  0.0000000  0  7 25 20 17  5  6 16 24
  24263247.816      859574.24749    668496.76849  24263252.1064   24263257.2894
  20755384.834     1845893.94549   1434825.87049  20755386.0314   20755392.1444
  22909790.549    -6098222.06149  -4737095.30349  22909791.7964   22909798.6734
  22427234.993     6265820.49849   4860895.49949  22427236.3824   22427242.1164
  20916849.970    -2772935.61649  -2155715.27449  20916851.3244   20916856.0904
  21666447.936    -1397515.71549  -1084654.02549  21666449.1334   21666454.9664
  23328045.973     6310492.14949   4900556.34449  23328047.6694   23328053.6364
 94  4 30  2 27 30.0000000  0  7 25 20 17  5  6 16 24
  24267773.315      883335.18449    687011.76049  24267774.8874   24267779.8214
  20762978.823     1885800.05149   1465921.52049  20762979.8514   20762985.8814
  22893316.379    -6184792.21949  -4804552.52949  22893317.7834   22893324.7254
  22445476.213     6361676.31449   4935588.31149  22445477.0224   22445482.7894
  20909425.914    -2811949.17449  -2186115.43949  20909427.1654   20909432.0524
  21665174.639    -1404204.37549  -1089865.95849  21665176.2224   21665182.1254
  23344711.677     6398071.92649   4968800.30949  23344713.3774   23344719.4884
 94  4 30  2 28  0.0000000  0  7 25 20 17  5  6 16 24
  24272355.839      907423.58449    705781.92449  24272357.5434   24272362.9244
  20770650.109     1926112.38949   1497333.71249  20770651.0994   20770657.2564
  22876862.803    -6271256.63249  -4871927.35149  22876864.0684   22876871.1394
  22463741.907     6457664.45349   5010384.22949  22463743.0304   22463748.8564
  20902019.492    -2850868.68349  -2216442.31749  20902020.9054   20902025.8864
  21663977.737    -1410496.82949  -1094769.15349  21663978.9234   21663984.6274
  23361358.211     6485548.94449   5036964.20249  23361359.9114   23361365.8444
 94  4 30  2 28 30.0000000  0  7 25 20 17  5  6 16 24
  24277001.645      931835.35249    724804.05649  24277002.8604   24277009.1854
  20778397.692     1966827.97849   1529060.12649  20778398.9564   20778404.9844
  22860429.594    -6357613.27849  -4939218.19949  22860431.0454   22860437.9014
  22482032.179     6553781.42049   5085280.54249  22482033.5574   22482039.1964
  20894632.074    -2889691.48449  -2246693.83949  20894633.3924   20894638.1234
  21662858.050    -1416380.67749  -1099353.95149  21662859.3154   21662864.9074
  23377982.278     6572910.61249   5105038.21849  23377984.4184   23377989.7864
 94  4 30  2 29  0.0000000  0  7 25 20 17  5  6 16 24
  24281709.320      956578.83149    744084.66849  24281711.0304   24281717.8624
  20786224.178     2007954.13749   1561106.46249  20786225.1304   20786230.9924
  22844018.198    -6443855.85549  -5006420.16149  22844019.5004   22844026.3414
  22500349.373     6650035.73149   5160283.87349  22500350.3474   22500355.9574
  20887262.810    -2928418.51449  -2276870.73449  20887263.9564   20887268.6234
  21661821.621    -1421821.46949  -1103593.51549  21661823.5824   21661829.5604
  23394585.798     6660164.08849   5173027.92849  23394587.9774   23394593.9874
 94  4 30  2 29 30.0000000  0  7 25 20 17  5  6 16 24
  24286482.378      981654.36649    763624.01749  24286483.8374   24286488.3034
  20794126.985     2049485.81349   1593468.78449  20794128.3764   20794134.2654
  22827626.051    -6529999.57549  -5073545.09249  22827627.3844   22827634.0584
  22518691.714     6746426.89449   5235393.84449  22518692.9164   22518698.6194
  20879907.370    -2967070.62849  -2306989.26149  20879908.6314   20879913.4574
  21660874.023    -1426806.24549  -1107477.74049  21660875.0514   21660881.0344
  23411171.125     6747318.85249   5240940.70749  23411173.2154   23411179.1224
 94  4 30  2 30  0.0000000  0  7 25 20 17  5  6 16 24
  24291315.184     1007060.70949    783421.16149  24291317.9964   24291324.3364
  20802106.968     2091419.15449   1626144.09949  20802108.1414   20802113.9404
  22811247.528    -6616068.51049  -5140611.74249  22811248.6304   22811255.7384
  22537058.869     6842946.22549   5310603.67949  22537060.0284   22537065.8264
  20872567.676    -3005639.36349  -2337042.80949  20872569.0744   20872574.0774
  21660013.198    -1431330.61349  -1111003.20549  21660014.3584   21660020.2234
  23427739.587     6834383.67949   5308783.41849  23427741.4454   23427747.2664
 94  4 30  2 30 30.0000000  0  7 25 20 17  5  6 16 24
  24296212.823     1032792.80449    803472.10849  24296215.2504   24296219.9214
  20810163.540     2133757.89749   1659135.30849  20810164.8124   20810170.7394
  22794882.939    -6702061.37649  -5207619.12049  22794884.4594   22794891.4684
  22555451.032     6939596.03849   5385915.18949  22555451.9254   22555457.7254
  20865246.419    -3044112.46449  -2367021.83949  20865247.9494   20865252.8504
  21659244.040    -1435369.93649  -1114150.71549  21659245.5144   21659251.3524
  23444294.329     6921381.03549   5376573.55849  23444296.2964   23444302.4424
 94  4 30  2 31  0.0000000  0  7 25 20 17  5  6 16 24
  24301169.325     1058842.04349    823770.19449  24301171.3364   24301177.7454
  20818297.821     2176503.61749   1692443.64449  20818299.1274   20818304.8904
  22778535.955    -6787967.05049  -5274558.55649  22778537.2574   22778544.2174
  22573867.860     7036377.26349   5461329.09249  22573868.9224   22573874.6444
  20857944.066    -3082487.19649  -2396924.22049  20857945.5684   20857950.4604
  21658566.065    -1438935.77049  -1116929.27649  21658566.9514   21658572.8184
  23460838.987     7008324.90849   5444322.01349  23460841.1144   23460847.0264
 94  4 30  2 31 30.0000000  0  7 25 20 17  5  6 16 24
  24306186.936     1085201.82849    844310.27549  24306187.6164   24306193.3074
  20826509.302     2219653.47349   1726066.88849  20826510.4084   20826516.1374
  22762207.232    -6873770.30149  -5341418.17949  22762208.9984   22762216.4524
  22592310.049     7133291.75849   5536846.84949  22592311.0634   22592316.7664
  20850660.382    -3120763.01549  -2426749.52549  20850661.9034   20850666.6974
  21657972.108    -1442056.51349  -1119361.01249  21657972.9424   21657979.0874
  23477371.606     7095200.67149   5512017.39349  23477372.9804   23477378.8014
 94  4 30  2 32  0.0000000  0  7 25 20 17  5  6 16 24
  24311254.441     1111855.23449    865079.13049  24311259.2904   24311265.5594
  20834797.658     2263209.53949   1760006.66149  20834798.9534   20834804.6284
  22745904.628    -6959444.91649  -5408177.57149  22745905.7244   22745912.5334
  22610778.314     7230343.96749   5612471.91949  22610779.4544   22610785.2094
  20843399.372    -3158919.63749  -2456481.94449  20843400.9904   20843405.8464
  21657459.415    -1444747.82049  -1121458.12249  21657460.7424   21657467.0864
  23493888.678     7182002.75149   5579655.36749  23493890.8214   23493896.8764
 94  4 30  2 32 30.0000000  0  7 25 20 17  5  6 16 24
  24316385.857     1138802.15149    886076.70149  24316387.5564   24316393.8864
  20843163.320     2307172.72449   1794263.67149  20843164.8224   20843170.5964
  22729630.282    -7044966.66449  -5474817.84849  22729631.8614   22729638.2964
  22629275.792     7327548.48849   5688215.66849  22629276.9574   22629282.6634
  20836162.715    -3196949.11349  -2486115.29449  20836164.3064   20836169.0534
  21657027.356    -1447019.61849  -1123228.34049  21657028.6414   21657034.7774
  23510391.065     7268721.70049   5647228.56049  23510393.3644   23510398.9794
 94  4 30  2 33  0.0000000  0  7 25 20 17  5  6 16 24
  24321571.035     1166059.43849    907316.12149  24321574.3584   24321580.5034
  20851606.879     2351543.49949   1828838.28749  20851608.3084   20851614.0614
  22713383.972    -7130342.88949  -5541344.72649  22713385.2204   22713391.3474
  22647803.117     7424910.38449   5764082.04449  22647804.3454   22647810.0194
  20828950.363    -3234852.16049  -2515650.12649  20828951.6714   20828956.4684
  21656672.767    -1448883.64049  -1124680.80949  21656673.7074   21656679.9734
  23526874.719     7355340.93449   5714724.05449  23526876.1104   23526881.5464
 94  4 30  2 33 30.0000000  0  7 25 20 17  5  6 16 24
  24326820.113     1193636.40349    928804.64049  24326821.7684   24326828.5604
  20860127.598     2396319.08149   1863728.33249  20860128.9944   20860134.6234
  22697162.636    -7215587.28749  -5607768.88149  22697163.7904   22697170.1664
  22666359.077     7522425.44949   5840067.77649  22666360.7564   22666366.8184
  20821761.116    -3272630.94849  -2545088.13549  20821762.6304   20821767.3274
  21656398.767    -1450323.65249  -1125802.88349  21656399.9114   21656405.8174
  23543338.927     7441861.62149   5782142.75149  23543340.3474   23543346.1024
 94  4 30  2 34  0.0000000  0  7 25 20 17  5  6 16 24
  24332134.484     1221554.91149    950559.29749  24332135.1684   24332141.3604
  20868726.010     2441503.05149   1898936.60149  20868727.2374   20868733.0414
  22680963.031    -7300713.43549  -5674100.89949  22680964.6994   22680971.0614
  22684944.534     7620092.15549   5916171.67049  22684946.1824   22684952.3724
  20814595.098    -3310288.45049  -2574431.63249  20814596.5054   20814601.2244
  21656211.404    -1451310.20749  -1126571.61149  21656212.1844   21656217.9204
  23559787.046     7528298.23449   5849495.94549  23559788.4454   23559794.2114
 94  4 30  2 34 30.0000000  0  7 25 20 17  5  6 16 24
  24337513.685     1249835.05649    972595.74049  24337516.7184   24337522.3054
  20877401.596     2487092.17249   1934460.57549  20877402.6744   20877408.3634
  22664783.261    -7385735.67549  -5740351.94249  22664785.3734   22664791.7804
  22703555.667     7717895.34949   5992381.92349  22703557.4454   22703563.5334
  20807448.438    -3347843.87649  -2603695.58849  20807449.7664   20807454.5644
  21656113.359    -1451822.68849  -1126970.93349  21656114.7274   21656120.6234
  23576217.249     7614640.17749   5916775.36749  23576219.1834   23576224.8724
 94  4 30  2 35  0.0000000  0  7 25 20 17  5  6 16 24
  24342964.912     1278476.87549    994914.01749  24342967.0704   24342972.8374
  20886153.789     2533087.96949   1970301.43649  20886155.1104   20886160.8954
  22648623.794    -7470656.46149  -5806523.94049  22648625.5404   22648632.2644
  22722188.678     7815812.31249   6068680.82149  22722190.4014   22722196.5304
  20800320.238    -3385303.03349  -2632884.53549  20800321.6034   20800326.4484
  21656109.352    -1451848.41649  -1126990.96849  21656109.7714   21656115.7014
  23592631.871     7700899.74349   5983990.59949  23592633.6824   23592639.5004
 94  4 30  2 35 30.0000000  0  7 25 20 17  5  6 16 24
  24348481.707     1307466.19849   1017503.06649  24348483.1964   24348490.2854
  20894984.681     2579493.50349   2006461.57649  20894985.9194   20894991.5754
  22632487.005    -7555458.38349  -5872603.30649  22632488.1164   22632494.8034
  22740842.144     7913834.66849   6145061.84249  22740843.3394   22740849.8984
  20793210.146    -3422665.76449  -2661998.35049  20793211.7334   20793216.4254
  21656196.681    -1451385.45449  -1126630.20549  21656198.0254   21656203.7904
  23609033.503     7787089.66649   6051151.56149  23609034.9934   23609040.9164
 94  4 30  2 36  0.0000000  0  7 25 20 17  5  6 16 24
  24354060.557     1336787.70349   1040350.97649  24354063.1214   24354069.3934
  20903892.521     2626305.49649   2042938.43749  20903893.8624   20903899.7984
  22616373.982    -7640130.87549  -5938581.81949  22616375.6564   22616382.3154
  22759515.234     8011960.96549   6221523.85549  22759516.3254   22759522.7204
  20786120.570    -3459923.01349  -2691029.97049  20786121.9344   20786126.5594
  21656375.782    -1450446.08649  -1125898.21749  21656376.7564   21656382.5414
  23625417.178     7873189.46849   6118242.30049  23625419.3734   23625425.3314
 94  4 30  2 36 30.0000000  0  7 25 20 17  5  6 16 24
  24359701.170     1366424.55349   1063444.60049  24359702.8664   24359708.8734
  20912878.487     2673528.42149   2079735.50649  20912880.0834   20912886.1434
  22600288.853    -7724659.97449  -6004448.60249  22600290.1994   22600296.9194
  22778209.917     8110201.74249   6298075.08149  22778211.0354   22778217.1364
  20779055.619    -3497047.66149  -2719958.25849  20779057.2014   20779061.9224
  21656644.100    -1449036.67749  -1124799.95849  21656644.9214   21656650.6144
  23641784.485     7959196.29649   6185260.59549  23641786.0064   23641792.1584
 94  4 30  2 37  0.0000000  0  7 25 20 17  5  6 16 24
  24365397.789     1396362.85249   1086773.10349  24365399.6284   24365406.5014
  20921942.335     2721156.08249   2116847.94849  20921943.2894   20921949.4274
  22584230.352    -7809043.49049  -6070201.93949  22584232.1954   22584239.1414
  22796925.450     8208552.91749   6374712.32849  22796926.4774   22796932.6544
  20772017.473    -3534035.38149  -2748779.85749  20772018.8904   20772023.4844
  21656999.322    -1447168.63649  -1123344.32649  21657000.3674   21657006.2204
  23658134.383     8045114.22449   6252209.61049  23658135.9414   23658141.4474
 94  4 30  2 37 30.0000000  0  7 25 20 17  5  6 16 24
  24371155.048     1426613.36049   1110344.90849  24371156.8604   24371162.7514
  20931083.310     2769192.56249   2154278.95649  20931084.4214   20931090.4394
  22568202.468    -7893275.74849  -6135837.41449  22568203.5394   22568210.2794
  22815668.443     8307048.40249   6451462.02249  22815669.6724   22815675.9854
  20765006.980    -3570875.25449  -2777486.24849  20765008.4254   20765013.0524
  21657443.513    -1444833.47649  -1121524.70549  21657444.6514   21657450.5934
  23674466.805     8130942.20949   6319088.54649  23674468.5174   23674474.1364
 94  4 30  2 38  0.0000000  0  7 25 20 17  5  6 16 24
  24376972.796     1457193.45449   1134173.49349  24376974.7404   24376981.4144
  20940301.710     2817634.99049   2192026.28049  20940302.7884   20940308.6314
  22552203.037    -7977352.42849  -6201351.66349  22552204.2584   22552210.8814
  22834441.563     8405698.86349   6528332.47149  22834442.2404   22834448.7274
  20758026.678    -3607558.36849  -2806070.48849  20758027.9644   20758032.6334
  21657978.699    -1442020.64449  -1119332.87849  21657979.8734   21657985.9394
  23690780.834     8216672.84149   6385891.62149  23690782.4924   23690788.3224
 94  4 30  2 38 30.0000000  0  7 25 20 17  5  6 16 24
  24382856.067     1488111.14549   1158265.18249  24382859.7524   24382864.0624
  20949598.006     2866485.54249   2230091.62649  20949598.8194   20949604.5544
  22536232.819    -8061274.20849  -6266745.22049  22536234.6514   22536241.2914
  22853241.966     8504498.88549   6605319.46949  22853243.5864   22853249.3274
  20751075.822    -3644083.11349  -2834531.32249  20751077.4304   20751082.1904
  21658602.888    -1438739.22049  -1116775.90849  21658604.3634   21658610.3044
  23707079.771     8302326.74549   6452634.91049  23707081.7994   23707087.6164
 94  4 30  2 39  0.0000000  0  7 25 20 17  5  6 16 24
  24388804.185     1519370.01849   1182622.69849  24388807.6514   24388813.9914
  20958971.144     2915745.99449   2268476.37649  20958972.6494   20958978.4604
  22520291.462    -8145046.57649  -6332022.34749  22520292.9704   22520299.9634
  22872071.586     8603446.63749   6682421.57849  22872072.6494   22872078.7104
  20744154.767    -3680454.84049  -2862872.93049  20744156.1494   20744160.9084
  21659313.896    -1435000.73049  -1113862.78849  21659315.7484   21659321.7164
  23723366.828     8387916.67949   6519328.34849  23723368.7574   23723374.8664
 94  4 30  2 39 30.0000000  0  7 25 20 17  5  6 16 24
  24394819.128     1550961.94349   1207239.76549  24394819.8304   24394824.6424
  20968422.599     2965411.68249   2307176.89649  20968423.6824   20968429.6934
  22504376.287    -8228684.73249  -6397194.88849  22504377.1484   22504384.0894
  22890928.613     8702543.36849   6759639.77549  22890929.9904   22890935.9954
  20737264.370    -3716664.19949  -2891088.01649  20737265.8584   20737270.4214
  21660109.960    -1430822.15749  -1110606.74849  21660110.8004   21660116.8854
  23739640.136     8473437.01549   6585967.56149  23739642.6614   23739648.9594
 94  4 30  2 40  0.0000000  0  7 25 20 17  5  6 16 24
  24400891.008     1582878.07049   1232109.44049  24400893.0424   24400900.2014
  20977950.631     3015483.31149   2346193.73149  20977951.9814   20977957.9694
  22488484.866    -8312191.03849  -6462264.69449  22488486.5114   22488493.3774
  22909808.643     8801759.47449   6836950.98849  22909810.2754   22909816.2164
  20730404.117    -3752713.66249  -2919178.50749  20730405.7764   20730410.5174
  21660986.586    -1426216.51649  -1107017.92849  21660987.3844   21660993.2464
  23755903.177     8558892.77149   6652556.44249  23755904.0914   23755910.7754
 94  4 30  2 40 30.0000000  0  7 25 20 17  5  6 16 24
  24407024.088     1615107.44049   1257223.20449  24407025.9094   24407030.8424
  20987556.826     3065963.63749   2385529.03249  20987558.1414   20987564.0834
  22472616.384    -8395584.50849  -6527246.57249  22472617.1914   22472624.1674
  22928708.929     8901079.60249   6914343.26549  22928710.3724   22928716.4514
  20723572.169    -3788617.02149  -2947155.14549  20723573.4034   20723578.2224
  21661945.221    -1421175.89649  -1103090.16049  21661946.4774   21661952.4694
  23772153.873     8644289.90149   6719099.64549  23772155.0014   23772160.9234
 94  4 30  2 41  0.0000000  0  7 25 20 17  5  6 16 24
  24413215.306     1647651.07349   1282581.86749  24413219.0664   24413226.1474
  20997240.853     3116851.32149   2425181.75549  20997241.7474   20997247.9264
  22456768.338    -8478860.93249  -6592137.25449  22456770.1274   22456777.0644
  22947628.004     9000498.16749   6991812.24649  22947629.1874   22947635.2034
  20716764.747    -3824388.45249  -2975028.98249  20716766.6104   20716771.3064
  21662994.396    -1415665.43249  -1098796.27749  21662995.2084   21663001.1154
  23788388.882     8729609.72349   6785582.61849  23788390.7024   23788397.2524
 94  4 30  2 41 30.0000000  0  7 25 20 17  5  6 16 24
  24419471.961     1680510.21649   1308186.35049  24419471.9324   24419478.4444
  21007001.477     3168144.87149   2465150.73449  21007002.6624   21007008.8014
  22440947.446    -8562001.18749  -6656921.82749  22440948.8004   22440955.6524
  22966563.517     9100006.10449   7069350.86049  22966564.7754   22966570.7964
  20709982.291    -3860033.66549  -3002804.46749  20709983.5584   20709988.3084
  21664135.618    -1409663.72249  -1094119.60449  21664137.1904   21664143.1044
  23804607.291     8814840.33649   6851996.07049  23804609.4854   23804616.0424
 94  4 30  2 42  0.0000000  0  7 25 20 17  5  6 16 24
  24425782.741     1713684.58149   1334036.47849  24425784.4784   24425790.7504
  21016840.593     3219847.17649   2505438.22649  21016841.4564   21016847.4414
  22425155.851    -8644988.04049  -6721586.86949  22425157.2044   22425163.7854
  22985514.302     9199590.22249   7146948.83949  22985515.0364   22985521.1464
  20703220.722    -3895564.60349  -3030490.90949  20703222.2264   20703226.9704
  21665375.296    -1403150.87649  -1089044.64549  21665376.4744   21665382.4744
  23820811.248     8899985.18949   6918342.70049  23820812.3134   23820818.4534
 94  4 30  2 42 30.0000000  0  7 25 20 17  5  6 16 24
  24432153.668     1747175.81149   1360133.51049  24432157.3004   24432163.6234
  21026756.503     3271959.37549   2546045.11849  21026757.8914   21026763.9974
  22409396.460    -8727804.66449  -6786119.25949  22409397.8764   22409404.1194
  23004482.138     9299267.47649   7224619.38949  23004483.0714   23004489.0484
  20696484.282    -3930963.03749  -3058074.09949  20696485.9654   20696490.7614
  21666714.916    -1396109.33249  -1083557.71549  21666716.3044   21666722.2354
  23836995.715     8985043.07649   6984621.55749  23836997.9584   23837004.5374
 94  4 30  2 43  0.0000000  0  7 25 20 17  5  6 16 24
  24438588.841     1780977.41649   1386472.38749  24438590.0044   24438596.5754
  21036751.080     3324480.33049   2586970.52149  21036752.3904   21036758.3614
  22393672.794    -8810429.85149  -6850502.47849  22393674.5384   22393681.3214
  23023469.521     9399052.24749   7302373.72049  23023471.2654   23023477.8694
  20689778.668    -3966203.71749  -3085534.36249  20689780.1274   20689784.7334
  21668151.277    -1388562.75649  -1077677.25249  21668152.5564   21668158.3884
  23853165.679     9070009.82149   7050829.39049  23853166.7054   23853173.0864
 94  4 30  2 43 30.0000000  0  7 25 20 17  5  6 16 24
  24445077.667     1815087.77849   1413051.84349  24445081.7084   24445087.9294
  21046823.031     3377409.76649   2628214.21649  21046824.5004   21046830.5354
  22377986.350    -8892864.74949  -6914737.42349  22377987.6654   22377994.4254
  23042480.555     9498955.33949   7380220.25249  23042482.6534   23042488.8184
  20683106.239    -4001268.86149  -3112857.84149  20683107.5394   20683112.2794
  21669677.441    -1380541.45849  -1071426.87349  21669678.9864   21669684.7624
  23869317.363     9154896.42049   7116974.77749  23869320.1674   23869326.6084
 94  4 30  2 44  0.0000000  0  7 25 20 17  5  6 16 24
  24451629.169     1849499.99549   1439866.53249  24451629.7464   24451635.7334
  21056972.607     3430744.10349   2669773.41949  21056973.7514   21056979.7684
  22362334.498    -8975117.77549  -6978830.63949  22362335.5674   22362342.2944
  23061516.829     9598988.21249   7458167.90149  23061517.9094   23061524.7424
  20676466.609    -4036158.50949  -3140044.57249  20676468.1524   20676472.7894
  21671294.068    -1372047.37349  -1064808.09049  21671295.5094   21671300.9344
  23885457.564     9239704.33349   7183058.85149  23885458.7454   23885464.6624
 94  4 30  2 44 30.0000000  0  7 25 20 17  5  6 16 24
  24458234.467     1884223.42149   1466923.70249  24458237.6044   24458243.7574
  21067199.286     3484485.81649   2711650.05649  21067200.5584   21067206.4344
  22346717.468    -9057182.85049  -7042777.41449  22346718.8454   22346725.7574
  23080582.311     9699181.23349   7536240.33849  23080584.0814   23080590.5004
  20669864.083    -4070854.91549  -3167080.72249  20669865.5314   20669870.2624
  21672998.219    -1363092.81049  -1057830.49549  21672999.4934   21673004.8884
  23901578.987     9324424.81349   7249074.78349  23901580.7404   23901586.1084
 94  4 30  2 45  0.0000000  0  7 25 20 17  5  6 16 24
  24464902.605     1919263.66149   1494227.74449  24464905.4564   24464911.1364
  21077503.426     3538632.09549   2753841.93949  21077504.3254   21077510.3454
  22331134.611    -9139069.34049  -7106585.02749  22331136.4224   22331143.1934
  23099678.559     9799529.15849   7614433.48649  23099679.9194   23099686.3774
  20663296.607    -4105367.56349  -3193973.68749  20663297.8964   20663302.5944
  21674789.404    -1353681.15849  -1050496.72549  21674790.4524   21674795.7514
  23917683.361     9409056.35449   7315021.41449  23917685.2564   23917691.5744
 94  4 30  2 45 30.0000000  0  7 25 20 17  5  6 16 24
  24471632.674     1954624.74249   1521781.79449  24471633.7584   24471640.5034
  21087884.041     3593184.30249   2796350.12649  21087885.1894   21087891.2644
  22315588.000    -9220773.18049  -7170250.31449  22315588.7404   22315595.3354
  23118801.611     9900022.28049   7692739.77949  23118802.9774   23118809.4234
  20656763.437    -4139698.87249  -3220725.34549  20656764.9264   20656769.6464
  21676671.097    -1343788.91149  -1042788.47049  21676672.6694   21676678.3544
  23933773.654     9493608.52249   7380906.20949  23933775.1854   23933781.1604
 94  4 30  2 46  0.0000000  0  7 25 20 17  5  6 16 24
  24478424.640     1990304.59949   1549584.23749  24478424.5674   24478429.8134
  21098342.051     3648139.50749   2839172.34049  21098342.9094   21098348.9124
  22300072.556    -9302302.27749  -7233779.43749  22300074.1924   22300080.6004
  23137951.139    10000651.74549   7771152.30949  23137952.3004   23137958.6814
  20650265.813    -4173845.02049  -3247332.72549  20650267.2324   20650271.8364
  21678647.632    -1333405.36249  -1034697.38049  21678648.6134   21678654.2884
  23949847.545     9578076.42949   7446725.33849  23949848.6964   23949855.1884
 94  4 30  2 46 30.0000000  0  7 25 20 17  5  6 16 24
  24485273.598     2026311.96349   1577641.88849  24485276.5024   24485281.8504
  21108875.802     3703498.07549   2882308.86749  21108877.0784   21108883.2714
  22284589.229    -9383666.96949  -7297180.45849  22284590.9024   22284597.4804
  23157121.186    10101395.38549   7849653.79949  23157123.0204   23157129.4094
  20643805.539    -4207793.44549  -3273786.03049  20643807.1474   20643811.5414
  21680716.492    -1322533.31249  -1026225.64749  21680717.2694   21680723.2384
  23965905.548     9662464.19849   7512482.02549  23965907.5044   23965913.1974
 94  4 30  2 47  0.0000000  0  7 25 20 17  5  6 16 24
  24492188.630     2062646.28549   1605954.31749  24492189.8214   24492195.6704
  21119487.233     3759262.26949   2925761.46249  21119488.7524   21119494.8264
  22269136.579    -9464873.00649  -7360457.85349  22269137.9924   22269144.4854
  23176307.916    10202217.21349   7928216.22449  23176308.7814   23176315.4654
  20637381.122    -4241556.87349  -3300095.18149  20637382.2964   20637386.7244
  21682883.118    -1311147.22649  -1017353.36349  21682883.9754   21682889.9624
  23981952.289     9746792.43549   7578192.31749  23981954.4534   23981960.6794
 94  4 30  2 47 30.0000000  0  7 25 20 17  5  6 16 24
  24499160.801     2099295.42449   1634512.04349  24499165.8754   24499170.9154
  21130176.589     3815432.46849   2969530.42749  21130177.7014   21130183.6624
  22253715.808    -9545913.33249  -7423606.12049  22253716.6864   22253722.9014
  23195508.398    10303119.03049   8006840.98149  23195509.8434   23195516.6374
  20630990.143    -4275139.77249  -3326263.66149  20630991.5664   20630995.8944
  21685146.062    -1299251.20149  -1008083.72349  21685147.8664   21685153.7994
  23997988.170     9831058.23449   7643853.96249  23997989.3874   23997995.9514
 94  4 30  2 48  0.0000000  0  7 25 20 17  5  6 16 24
  24506199.198     2136254.63749   1663311.37349  24506197.6764   24506204.0464
  21140941.662     3872005.70649   3013613.45049  21140943.3444   21140949.1914
  22238323.532    -9626796.49749  -7486631.92549  22238325.0094   22238331.3254
  23214724.428    10404101.90249   8085528.88949  23214726.0294   23214732.9244
  20624633.086    -4308547.21149  -3352295.42349  20624634.3424   20624638.7484
  21687506.693    -1286849.88649   -998420.34749  21687507.8684   21687513.8154
  24014008.593     9915246.90149   7709455.51449  24014010.1254   24014016.1234
 94  4 30  2 48 30.0000000  0  7 25 20 17  5  6 16 24
  24513286.442     2173519.19849   1692348.67149  24513289.8594   24513294.3914
  21151784.085     3928982.40249   3058010.85749  21151785.7134   21151791.3934
  22222963.676    -9707509.59549  -7549525.21149  22222965.6294   22222971.9614
  23233954.517    10505152.06449   8164269.23349  23233955.4434   23233962.4714
  20618308.115    -4341783.62249  -3378193.91249  20618309.5764   20618314.1554
  21689963.894    -1273941.88849   -988362.15349  21689964.2214   21689970.0714
  24030014.225     9999357.17849   7774995.99149  24030016.0394   24030021.6824
 94  4 30  2 49  0.0000000  0  7 25 20 17  5  6 16 24
  24520434.609     2211072.19649   1721610.70749  24520433.8394   24520441.2174
  21162703.196     3986360.61749   3102721.13049  21162704.4764   21162710.2384
  22207642.190    -9788027.42549  -7612266.33949  22207643.5004   22207649.9394
  23253199.685    10606289.10149   8243077.26349  23253201.3614   23253208.1634
  20612017.152    -4374842.11349  -3403953.76649  20612018.7694   20612023.3764
  21692514.430    -1260534.63249   -977914.92949  21692515.4814   21692521.3504
  24046001.580    10083376.44449   7840465.53649  24046003.9504   24046009.9074
 94  4 30  2 49 30.0000000  0  7 25 20 17  5  6 16 24
  24527634.602     2248904.14049   1751090.07949  24527634.0084   24527640.4494
  21173697.522     4044136.74749   3147741.47049  21173698.9524   21173704.8374
  22192356.774    -9868349.43149  -7674854.88849  22192358.6814   22192365.1744
  23272465.410    10707532.97349   8321968.53949  23272467.3864   23272474.0194
  20605765.039    -4407697.64349  -3429555.46949  20605766.3434   20605770.9654
  21695156.122    -1246648.43849   -967094.50749  21695158.0174   21695163.7224
  24061969.366    10167283.87649   7905847.94149  24061971.2144   24061977.3034
 94  4 30  2 50  0.0000000  0  7 25 20 17  5  6 16 24
  24534883.439     2287025.39949   1780794.92649  24534888.0044   24534895.2804
  21184768.338     4102313.46549   3193073.95349  21184769.5144   21184775.5644
  22177108.540    -9948482.59749  -7737296.28749  22177109.8744   22177116.1784
  23291751.012    10808877.77849   8400938.47449  23291752.9894   23291759.7854
  20599555.623    -4440328.99549  -3454982.48549  20599556.9314   20599561.6844
  21697891.131    -1232277.97049   -955896.72749  21697892.4014   21697898.2604
  24077918.489    10251092.38649   7971153.27049  24077919.7274   24077925.5054
 94  4 30  2 50 30.0000000  0  7 25 20 17  5  6 16 24
  24542198.981     2325438.71149   1810727.32949  24542197.8524   24542204.0364
  21195914.476     4160887.65549   3238716.15749  21195915.9034   21195921.7864
  22161895.582   -10028426.90649  -7799590.52849  22161896.8124   22161903.3184
  23311056.329    10910321.38249   8479985.38949  23311057.1704   23311063.8114
  20593390.569    -4472724.35449  -3480225.61549  20593392.2044   20593396.9094
  21700715.632    -1217435.88049   -944331.45149  21700716.8724   21700722.6924
  24093850.366    10334821.23949   8036396.54249  24093852.5314   24093858.4714
 94  4 30  2 51  0.0000000  0  7 25 20 17  5  6 16 24
  24549561.373     2364146.47749   1840889.18649  24549564.2774   24549570.2744
  21207136.942     4219860.56049   3284669.04749  21207138.0374   21207143.9334
  22146718.828   -10108181.00749  -7861736.55849  22146720.2754   22146726.4984
  23330381.871    11011880.10049   8559121.99849  23330383.2814   23330389.8974
  20587271.568    -4504882.86849  -3505284.18649  20587272.8624   20587277.5494
  21703626.763    -1202139.90949   -932412.50249  21703627.5204   21703633.3734
  24109769.491    10418477.30849   8101583.09049  24109771.2174   24109778.2584
 94  4 30  2 51 30.0000000  0  7 25 20 17  5  6 16 24
  24556985.903     2403159.68949   1871289.04249  24556987.3374   24556993.5224
  21218434.227     4279230.38449   3330931.23249  21218435.6204   21218441.5874
  22131575.067   -10187764.14949  -7923749.36649  22131576.2424   22131582.4854
  23349725.446    11113533.81649   8638332.64249  23349727.1954   23349733.4744
  20581194.274    -4536816.81049  -3530167.76949  20581195.8774   20581200.6234
  21706623.705    -1186389.57249   -920139.49649  21706624.9054   21706630.5514
  24125677.936    10502074.35949   8166723.66449  24125680.0494   24125685.5224
 94  4 30  2 52  0.0000000  0  7 25 20 17  5  6 16 24
  24564470.432     2442483.38549   1901930.83849  24564471.1324   24564477.9834
  21229807.512     4338996.59349   3377502.28349  21229808.7994   21229814.5974
  22116466.199   -10267161.50249  -7985617.40349  22116467.4054   22116473.6354
  23369086.520    11215273.10249   8717609.95149  23369087.7874   23369094.2064
  20575158.194    -4568539.36549  -3554886.63549  20575159.4594   20575164.0204
  21709707.640    -1170185.81949   -907513.18449  21709708.4204   21709714.0764
  24141576.556    10585624.02849   8231827.30549  24141578.9294   24141584.7704
 94  4 30  2 52 30.0000000  0  7 25 20 17  5  6 16 24
  24572010.431     2482120.68149   1932816.98149  24572014.0074   24572020.3364
  21241255.941     4399157.49449   3424380.88949  21241257.2754   21241262.8404
  22101396.789   -10346349.02449  -8047321.93649  22101398.3824   22101404.5824
  23388463.628    11317102.71949   8796957.65649  23388465.2234   23388471.9254
  20569159.029    -4600062.79649  -3579450.34049  20569160.6334   20569165.3214
  21712876.520    -1153531.28749   -894535.61549  21712877.6794   21712883.3274
  24157465.536    10669115.87549   8296885.90749  24157466.6104   24157473.3164
 94  4 30  2 53  0.0000000  0  7 25 20 17  5  6 16 24
  24579617.785     2522074.11049   1963949.48249  24579616.0814   24579622.8554
  21252779.667     4459715.11149   3471568.62149  21252781.0374   21252786.6414
  22086369.858   -10425317.19749  -8108855.55549  22086371.0764   22086377.3574
  23407857.416    11419013.83549   8876368.85649  23407858.2284   23407864.8964
  20563197.426    -4631392.92549  -3603863.42449  20563198.8034   20563203.4744
  21716133.705    -1136415.37049   -881198.52949  21716134.6054   21716140.4924
  24173338.003    10752531.14249   8361884.82149  24173340.1334   24173346.2044
 94  4 30  2 53 30.0000000  0  7 25 20 17  5  6 16 24
  24587276.978     2562342.68949   1995327.53849  24587278.9514   24587285.2014
  21264378.948     4520670.63749   3519066.41549  21264380.2294   21264386.2544
  22071385.604   -10504060.69549  -8170214.09449  22071386.6494   22071393.0534
  23427264.562    11521003.17449   8955841.00749  23427266.1384   23427272.7374
  20557273.390    -4662523.89249  -3628121.31249  20557274.7484   20557279.4774
  21719483.820    -1118807.09349   -867477.78249  21719485.2434   21719490.9944
  24189197.529    10835871.95649   8426825.73649  24189199.2854   24189205.5094
 94  4 30  2 54  0.0000000  0  7 25 20 17  5  6 16 24
  24595001.764     2602915.05849   2026942.32349  24595000.7344   24595007.0034
  21276053.425     4582018.24149   3566869.72049  21276054.4454   21276060.3884
  22056446.995   -10582564.53649  -8231385.89849  22056448.0434   22056454.4124
  23446687.860    11623076.41249   9035378.54149  23446689.7964   23446696.3214
  20551386.818    -4693456.64549  -3652224.75049  20551388.3024   20551393.1314
  21722930.054    -1100696.26149   -853365.43949  21722931.6334   21722937.4144
  24205042.398    10919133.74749   8491705.05449  24205043.6564   24205050.3544
 94  4 30  2 54 30.0000000  0  7 25 20 17  5  6 16 24
  24602778.683     2643784.34749   2058788.46549  24602778.3954   24602783.0594
  21287802.413     4643759.33649   3614979.64249  21287803.5814   21287809.4484
  22041551.363   -10660837.59049  -8292377.87149  22041553.1524   22041559.5434
  23466129.583    11725239.90549   9114986.39649  23466131.0564   23466137.8604
  20545538.971    -4724186.56549  -3676170.13649  20545540.6694   20545545.5424
  21726476.379    -1082063.56949   -838846.44949  21726477.4204   21726483.0024
  24220871.077    11002321.06749   8556526.35549  24220873.7044   24220879.7714
 94  4 30  2 55  0.0000000  0  7 25 20 17  5  6 16 24
  24610603.927     2684933.49349   2090852.70449  24610607.9034   24610614.3354
  21299625.724     4705892.00849   3663394.69249  21299627.0454   21299632.9864
  22026697.939   -10738894.63649  -8353201.51849  22026699.3044   22026705.8314
  23485587.151    11827490.88449   9194662.42849  23485589.2734   23485595.2884
  20539730.399    -4754711.98449  -3699956.17449  20539731.8324   20539736.6864
  21730122.323    -1062901.15249   -823914.68549  21730123.8214   21730129.6834
  24236688.493    11085437.36649   8621292.30649  24236690.2254   24236696.2114
 94  4 30  2 55 30.0000000  0  7 25 20 17  5  6 16 24
  24618490.825     2726357.23449   2123130.89749  24618491.3784   24618497.2784
  21311523.568     4768416.21849   3712114.83449  21311524.8574   21311530.9574
  22011883.663   -10816742.73349  -8413862.35149  22011885.2314   22011891.7514
  23505064.131    11929842.56749   9274416.92849  23505065.8184   23505072.1904
  20533961.147    -4785030.03849  -3723580.63049  20533962.5204   20533967.3234
  21733870.894    -1043204.07449   -808566.30549  21733872.0544   21733877.8084
  24252493.057    11168492.98049   8686010.96649  24252495.0404   24252501.3524
 94  4 30  2 56  0.0000000  0  7 25 20 17  5  6 16 24
  24626422.664     2768048.70549   2155617.71649  24626423.9714   24626430.9454
  21323494.818     4831326.62749   3761135.91049  21323496.2314   21323502.5534
  21997107.228   -10894392.73049  -8474368.81849  21997109.1234   21997115.4644
  23524562.527    12032294.39349   9354249.45749  23524561.6264   23524568.4184
  20528231.217    -4815140.54749  -3747043.35649  20528232.6024   20528237.4184
  21737716.953    -1022995.16949   -792819.09649  21737717.7194   21737723.3834
  24268283.127    11251470.21149   8750668.56449  24268285.3254   24268291.3434
 94  4 30  2 56 30.0000000  0  7 25 20 17  5  6 16 24
  24634407.720     2810010.98849   2188315.57049  24634408.6494   24634416.4374
  21335539.752     4894624.40249   3810458.82949  21335541.4214   21335547.5084
  21982366.195   -10971857.81549  -8534731.19849  21982367.8894   21982374.2174
  23544073.862    12134838.50849   9434153.90949  23544075.7344   23544081.9834
  20522543.107    -4845031.49549  -3770334.99349  20522544.5324   20522549.4244
  21741656.716    -1002291.25749   -776686.16449  21741657.5014   21741663.3204
  24284056.106    11334352.13949   8815251.88349  24284057.1334   24284063.6044
 94  4 30  2 57  0.0000000  0  7 25 20 17  5  6 16 24
  24642445.367     2852257.19449   2221234.64349  24642448.9964   24642454.9574
  21347658.908     4958309.35949   3860083.44749  21347660.2424   21347666.4564
  21967662.884   -11049126.16249  -8594940.27649  21967664.3054   21967670.5134
  23563605.353    12237471.98349   9514127.99249  23563606.3884   23563612.5394
  20516901.334    -4874678.92249  -3793436.88149  20516902.7234   20516907.5404
  21745687.497     -981105.05949   -760177.43449  21745688.9254   21745694.8534
  24299808.309    11417133.35049   8879756.72849  24299809.0744   24299816.3894
 94  4 30  2 57 30.0000000  0  7 25 20 17  5  6 16 24
  24650543.997     2894793.34449   2254379.62949  24650543.8904   24650550.5564
  21359850.708     5022377.64049   3910006.76149  21359851.9564   21359858.3254
  21952997.398   -11126192.39049  -8654991.85649  21952998.8464   21953005.3634
  23583150.631    12340185.88949   9594164.75849  23583151.6894   23583158.5854
  20511308.101    -4904070.57349  -3816339.46249  20511309.6904   20511314.5694
  21749809.840     -959442.45449   -743297.47349  21749811.3884   21749817.0354
  24315540.640    11499814.75149   8944183.78449  24315543.4804   24315549.8714
 94  4 30  2 58  0.0000000  0  7 25 20 17  5  6 16 24
  24658690.241     2937625.52949   2287755.30149  24658693.9334   24658700.8144
  21372116.059     5086833.82749   3960232.34049  21372117.6324   21372124.0654
  21938375.561   -11203031.03049  -8714866.09249  21938377.1074   21938383.3164
  23602711.207    12442980.01449   9674264.02949  23602713.4024   23602719.5384
  20505766.318    -4933194.11649  -3839033.12649  20505767.8684   20505772.5264
  21754023.764     -937301.90949   -726045.09149  21754024.5534   21754030.2844
  24331255.937    11582403.22149   9008538.43149  24331259.2694   24331265.8694
 94  4 30  2 58 30.0000000  0  7 25 20 17  5  6 16 24
  24666900.467     2980757.16049   2321364.31849  24666901.5164   24666908.0174
  21384456.043     5151674.87149   4010757.80949  21384456.8744   21384463.0084
  21923798.381   -11279634.88349  -8774557.38249  21923799.7324   21923806.0794
  23622286.038    12545844.12749   9754417.82249  23622287.3774   23622293.9904
  20500275.813    -4962047.53749  -3861516.30649  20500277.2444   20500281.9864
  21758329.250     -914675.66549   -708414.24649  21758330.3564   21758336.1554
  24346958.639    11664912.94749   9072831.70749  24346961.2754   24346967.4684
 94  4 30  2 59  0.0000000  0  7 25 20 17  5  6 16 24
  24675164.855     3024178.59849   2355199.14949  24675165.2894   24675170.2904
  21396867.635     5216901.40649   4061583.66049  21396869.0244   21396875.0924
  21909266.856   -11355998.21549  -8834061.25149  21909268.5024   21909274.5954
  23641874.544    12648779.71349   9834627.31649  23641875.3914   23641882.6604
  20494833.876    -4990643.53849  -3883798.89449  20494835.6394   20494840.2964
  21762731.024     -891545.72249   -690390.90749  21762731.7544   21762737.4604
  24362648.643    11747366.52949   9137081.24849  24362651.1424   24362657.6274
 94  4 30  2 59 30.0000000  0  7 25 20 17  5  6 16 24
  24683478.251     3067876.19849   2389249.16949  24683479.6544   24683487.0984
  21409353.265     5282511.25949   4112708.19849  21409354.1684   21409360.2964
  21894777.970   -11432134.98649  -8893388.57149  21894779.9224   21894786.3144
  23661476.842    12751788.59549   9914893.91749  23661477.2874   23661484.1684
  20489436.789    -5019005.03549  -3905898.75449  20489438.4324   20489443.3744
  21767228.082     -867911.37749   -671974.52749  21767229.0754   21767234.8194
  24378328.478    11829755.07649   9201280.08849  24378329.3474   24378336.3254
 94  4 30  3  0  0.0000000  0  7 25 20 17  5  6 16 24
  24691845.156     3111844.11249   2423509.83649  24691846.7724   24691852.6194
  21421910.946     5348502.76549   4164130.13049  21421911.7674   21421918.1324
  21880331.947   -11508053.46449  -8952545.79949  21880333.3194   21880339.5364
  23681091.085    12854867.03149   9995214.71149  23681092.6674   23681099.4004
  20484083.175    -5047140.17249  -3927822.24149  20484084.5804   20484089.3214
  21771820.132     -843781.58949   -653172.09049  21771820.8314   21771826.7054
  24393990.652    11912068.77549   9265420.62249  24393993.1254   24393999.3724
 94  4 30  3  0 30.0000000  0  7 25 20 17  5  6 16 24
  24700258.395     3156079.33349   2457978.79049  24700264.6724   24700271.8374
  21434540.116     5414872.89649   4215847.09349  21434541.5854   21434547.9584
  21865924.383   -11583764.19249  -9011541.14749  21865926.0464   21865932.2474
  23700719.083    12958009.43949  10075585.35749  23700720.1404   23700726.7864
  20478771.127    -5075054.33449  -3949573.52849  20478772.7394   20478777.5054
  21776505.457     -819157.39649   -633984.40049  21776506.7134   21776512.5574
  24409640.456    11994308.91049   9329503.81949  24409642.8734   24409649.2984
 94  4 30  3  1  0.0000000  0  7 25 20 17  5  6 16 24
  24708734.078     3200586.55649   2492659.67549  24708734.6084   24708739.9724
  21447242.796     5481622.54849   4267859.78849  21447243.7884   21447249.9304
  21851557.148   -11659262.46949  -9070370.94249  21851559.1704   21851565.4114
  23720359.280    13061218.44249  10156007.89449  23720360.2584   23720366.7494
  20473501.458    -5102747.19249  -3971152.37149  20473502.8404   20473507.6334
  21781284.848     -794045.38249   -614416.58649  21781285.4254   21781291.0934
  24425275.444    12076470.15749   9393525.55049  24425277.5734   24425284.0684
 94  4 30  3  1 30.0000000  0  6 20 17  5  6 16 24
  21460016.098     5548749.01949   4320166.10849  21460017.5334   21460023.7634
  21837233.150   -11734537.72049  -9129026.94549  21837234.4994   21837241.0974
  23740010.014    13164488.29949  10236477.85149  23740011.4554   23740017.3944
  20468276.921    -5130201.52649  -3992545.34849  20468278.3404   20468283.3024
  21786152.264     -768461.86549   -594481.36849  21786153.6024   21786159.4264
  24440894.815    12158548.20349   9457482.44549  24440897.0124   24440903.1774
 94  4 30  3  2  0.0000000  0  6 20 17  5  6 16 24
  21472861.532     5616251.53849   4372765.45049  21472862.9264   21472869.0374
  21822954.266   -11809574.19749  -9187496.89749  21822955.6514   21822961.8684
  23759673.034    13267811.66349  10316989.48749  23759673.3924   23759680.4744
  20463100.700    -5157403.02749  -4013741.31749  20463102.1124   20463106.9374
  21791110.374     -742411.18149   -574182.12849  21791110.8214   21791116.7254
  24456502.158    12240563.73749   9521390.64549  24456503.7544   24456510.1184
 94  4 30  3  2 30.0000000  0  6 20 17  5  6 16 24
  21485779.312     5684132.73649   4425659.87349  21485780.3864   21485786.3844
  21808723.173   -11884355.75849  -9245768.21749  21808724.8664   21808731.3794
  23779344.899    13371190.53449  10397544.38249  23779345.6644   23779352.7204
  20457975.825    -5184333.64049  -4034726.20249  20457977.2214   20457982.1054
  21796158.756     -715880.38249   -553508.76949  21796159.3744   21796165.5164
  24472099.694    12322528.80549   9585259.52449  24472101.0584   24472107.5064
 94  4 30  3  3  0.0000000  0  6 20 17  5  6 16 24
  21498767.086     5752386.47349   4478844.58449  21498768.4084   21498774.7404
  21794539.505   -11958892.87349  -9303849.06249  21794540.9844   21794547.3374
  23799027.889    13474620.36449  10478138.98449  23799028.1084   23799034.7284
  20452907.122    -5210969.79849  -4055481.64749  20452908.6174   20452913.5614
  21801297.992     -688872.70649   -532463.82149  21801298.9274   21801304.7654
  24487684.191    12404431.51849   9649079.80949  24487686.7504   24487692.6044
 94  4 30  3  3 30.0000000  0  6 20 17  5  6 16 24
  21511826.178     5821012.39649   4532319.30849  21511827.7214   21511833.7164
  21780402.596   -12033184.51449  -9361738.62249  21780403.9404   21780410.0644
  23818717.108    13578100.71649  10558772.94649  23818719.5534   23818727.0254
  20447895.779    -5237301.68549  -4075999.99349  20447897.7804   20447902.7294
  21806528.966     -661381.03949   -511041.73649  21806530.3024   21806536.1744
  24503258.248    12486269.96549   9712850.03049  24503259.3354   24503266.1044
 94  4 30  3  4  0.0000000  0  6 20 17  5  6 16 24
  21524956.434     5890010.09149   4586083.72849  21524957.7274   21524963.6094
  21766311.751   -12107230.09049  -9419436.44249  21766313.4444   21766319.6984
  23838420.764    13681634.63349  10639448.64849  23838421.2264   23838428.3074
  20442942.659    -5263333.16849  -4096284.25449  20442944.3224   20442949.2054
  21811854.350     -633394.35049   -489233.91649  21811855.9154   21811861.8954
  24518818.102    12568039.64349   9776566.67949  24518820.4894   24518826.5544
 94  4 30  3  4 30.0000000  0  6 20 17  5  6 16 24
  21538157.130     5959379.89749   4640138.11549  21538158.4754   21538164.1544
  21752267.803   -12181032.18749  -9476944.53849  21752269.2544   21752275.7204
  23858134.674    13785231.89249  10720173.70449  23858135.5524   23858142.5074
  20438044.574    -5289072.57749  -4116340.93149  20438046.2084   20438051.1544
  21817277.796     -604902.20349   -467032.23349  21817278.0224   21817283.8104
  24534363.942    12649732.88049   9840223.73749  24534366.2654   24534371.8974
 94  4 30  3  5  0.0000000  0  6 20 17  5  6 16 24
  21551428.239     6029119.26549   4694480.45949  21551429.2334   21551435.2204
  21738269.025   -12254598.69349  -9534269.05849  21738270.1584   21738276.5764
  23877862.132    13888901.27149  10800954.96049  23877862.9994   23877870.2684
  20433198.509    -5314538.43749  -4136184.44849  20433200.3144   20433205.2334
  21822794.059     -575908.26549   -444439.54149  21822795.4034   21822801.2044
  24549894.655    12731348.47849   9903820.31449  24549896.8394   24549902.9434
 94  4 30  3  5 30.0000000  0  6 20 17  5  6 16 24
  21564768.566     6099225.87149   4749108.96349  21564770.0534   21564776.1834
  21724316.363   -12327917.35349  -9591400.44749  21724317.9764   21724324.5754
  23897601.583    13992631.88049  10881783.92749  23897602.8514   23897609.7214
  20428398.408    -5339764.64749  -4155841.22849  20428399.7134   20428404.7344
  21828405.802     -546423.63649   -421464.49149  21828406.2624   21828412.0354
  24565412.155    12812894.25549   9967362.49549  24565414.8144   24565420.3904
 94  4 30  3  6  0.0000000  0  6 20 17  5  6 16 24
  21578179.057     6169696.84649   4804021.39349  21578180.1454   21578186.3624
  21710411.200   -12400991.03449  -9648340.94949  21710412.4814   21710419.0844
  23917353.378    14096426.00349  10962662.37749  23917354.0204   23917361.0754
  20423642.226    -5364757.64849  -4175316.29449  20423643.8084   20423648.8364
  21834107.757     -516455.09949   -398112.38049  21834109.0074   21834114.9024
  24580919.754    12894383.86649  10030860.90949  24580921.4234   24580927.8064
 94  4 30  3  6 30.0000000  0  7 20 17 23  5  6 16 24
  21591657.417     6240530.13049   4859216.14449  21591659.1684   21591665.4914
  21696549.482   -12473832.53949  -9705100.53549  21696551.0994   21696557.5114
  24902029.704    -3852653.07659  -2984740.10959  24902030.7504   24902038.9864
  23937116.958    14200286.23549  11043592.34949  23937117.7264   23937125.2694
  20418931.035    -5389513.21749  -4194606.34649  20418932.8414   20418937.8904
  21839901.147     -486010.28549   -374389.14449  21839902.3934   21839908.4524
  24596413.729    12975809.26449  10094309.27249  24596416.4894   24596422.3784
 94  4 30  3  7  0.0000000  0  7 20 17 23  5  6 16 24
  21605205.712     6311724.64049   4914692.35749  21605206.8884   21605213.3724
  21682733.565   -12546437.82049  -9761676.04949  21682734.7954   21682741.2284
  24879621.584    -3970415.53049  -3076502.91449  24879620.5544   24879629.7924
  23956891.094    14304193.91749  11124559.30649  23956891.4684   23956898.7644
  20414268.457    -5414017.90549  -4213700.89949  20414269.8884   20414274.9784
  21845785.122     -455092.09549   -350297.03949  21845785.7764   21845791.9904
  24611895.091    13057160.72449  10157700.04349  24611897.1714   24611903.6014
 94  4 30  3  7 30.0000000  0  7 20 17 23  5  6 16 24
  21618822.748     6383281.96549   4970451.28749  21618823.7974   21618830.3304
  21668964.238   -12618794.55949  -9818057.90249  21668965.7994   21668972.1514
  24857205.772    -4088199.17849  -3168282.25449  24857206.4364   24857215.7544
  23976670.656    14408140.03849  11205556.20849  23976671.3554   23976678.2964
  20409657.112    -5438249.99749  -4232583.04149  20409658.8654   20409663.8864
  21851758.861     -423696.26849   -325832.75249  21851760.2034   21851766.3294
  24627360.891    13138436.64249  10221031.94449  24627362.9184   24627369.4634
 94  4 30  3  8  0.0000000  0  7 20 17 23  5  6 16 24
  21632508.086     6455197.53949   5026489.37349  21632509.1944   21632515.5484
  21655239.984   -12690914.43549  -9874255.18049  21655241.6594   21655248.3064
  24834787.389    -4206009.62149  -3260082.49049  24834788.9724   24834796.5574
  23996459.908    14512136.26449  11286592.15549  23996461.6404   23996468.5734
  20405101.889    -5462187.48549  -4251235.62149  20405103.6054   20405108.6894
  21857826.340     -391814.04149   -300989.45449  21857827.3004   21857833.1924
  24642809.481    13219614.19149  10284287.19249  24642810.9434   24642816.9594
 94  4 30  3  8 30.0000000  0  7 20 17 23  5  6 16 24
  21646261.025     6527468.93849   5082804.72949  21646262.0854   21646268.3244
  21641563.326   -12762789.26549  -9930261.51349  21641564.5754   21641571.1654
  24812363.906    -4323848.61649  -3351904.93149  24812364.7024   24812373.2414
  24016257.040    14616168.11349  11367655.85149  24016257.7784   24016265.3284
  20400604.543    -5485822.44049  -4269652.46249  20400606.1144   20400611.0974
  21863987.195     -359435.43449   -275759.36249  21863988.6184   21863994.4874
  24658233.511    13300678.23449  10347454.01149  24658236.1584   24658243.1544
 94  4 30  3  9  0.0000000  0  7 20 17 23  5  6 16 24
  21660081.742     6600097.42349   5139398.32849  21660083.0064   21660089.0854
  21627935.406   -12834403.36349  -9986064.68249  21627936.8894   21627943.4574
  24789936.062    -4441706.95049  -3443742.46149  24789936.7154   24789945.0674
  24036059.687    14720235.63349  11448747.34449  24036061.5574   24036069.1194
  20396165.720    -5509149.10449  -4287829.07849  20396167.3034   20396172.0754
  21870244.422     -326552.89649   -250136.59849  21870245.9194   21870251.9064
  24673642.644    13381645.38649  10410545.31249  24673643.7224   24673650.9944
 94  4 30  3  9 30.0000000  0  7 20 17 23  5  6 16 24
  21673970.004     6673081.69749   5196269.16649  21673971.4704   21673977.4534
  21614356.418   -12905757.03949 -10041664.92349  21614358.5844   21614365.0004
  24767504.840    -4559582.65449  -3535593.52649  24767505.7744   24767513.4394
  24055874.673    14824358.16149  11529881.70249  24055875.4194   24055882.9484
  20391786.521    -5532162.12149  -4305761.29449  20391787.8974   20391792.9424
  21876597.048     -293169.14549   -224123.28249  21876598.7944   21876604.6464
  24689032.719    13462523.79449  10473567.46549  24689035.1934   24689041.8794
 94  4 30  3 10  0.0000000  0  7 20 17 23  5  6 16 24
  21687925.640     6746419.43449   5253415.43549  21687927.2164   21687933.1534
  21600827.346   -12976856.99849 -10097067.46249  21600828.6934   21600834.8794
  24745070.159    -4677475.30449  -3627457.77249  24745070.9694   24745080.1594
  24075698.902    14928541.13649  11611063.16549  24075700.5174   24075708.1154
  20387465.863    -5554867.74949  -4323453.98749  20387467.0604   20387471.9984
  21883044.922     -259285.46749   -197720.41049  21883046.3664   21883052.5644
  24704406.807    13543318.69249  10536524.54349  24704409.1264   24704415.7554
 94  4 30  3 10 30.0000000  0  6 20 17 23  5  6 16
  21701949.259     6820112.57849   5310838.65049  21701950.5374   21701956.5604
  21587347.002   -13047696.59149 -10152267.11749  21587348.4404   21587354.6314
  24722635.474    -4795369.54549  -3719323.24049  24722636.7144   24722643.6404
  24095534.842    15032775.96249  11692285.03149  24095536.2204   24095543.6474
  20383202.853    -5577268.90249  -4340909.43449  20383204.4804   20383209.1804
  21889585.788     -224909.66349   -170934.06549  21889587.9074   21889593.9494
 94  4 30  3 11  0.0000000  0  7 20 17 23  5  6 22 16
  21716039.060     6894157.47349   5368535.95749  21716040.6314   21716046.7994
  21573913.616   -13118290.04549 -10207274.97549  21573914.9144   21573921.1344
  24700202.220    -4913263.90149  -3811188.80249  24700201.4424   24700210.4784
  24115380.963    15137068.31349  11773551.73749  24115382.2294   24115389.8344
  20378996.704    -5599372.12849  -4358132.72149  20378998.4124   20379003.1484
  24825564.812    -4210457.33059  -3259332.50059  24825566.8994   24825573.5224
  21896218.061     -190061.15449   -143779.37249  21896219.4964   21896225.2544
 94  4 30  3 11 30.0000000  0  7 20 17 23  5  6 22 16
  21730195.587     6968549.11849   5426503.45449  21730196.9574   21730203.1094
  21560525.590   -13188645.32349 -10262097.24349  21560526.8734   21560532.8964
  24677763.930    -5031169.98149  -3903063.50849  24677764.7614   24677773.0974
  24135234.217    15241397.06749  11854846.78349  24135235.5304   24135243.0884
  20374845.236    -5621187.31249  -4375131.56349  20374846.8954   20374851.8714
  24806496.290    -4310675.56449  -3337424.60549  24806496.8694   24806501.5574
  21902937.619     -154748.47949   -116262.99749  21902939.3424   21902944.8594
 94  4 30  3 12  0.0000000  0  7 20 17 23  5  6 22 16
  21744417.618     7043288.02849   5484741.53949  21744419.1244   21744425.6084
  21547184.694   -13258751.97149 -10316725.77349  21547186.0154   21547192.2294
  24655322.610    -5149095.62249  -3994953.46549  24655323.7364   24655332.7634
  24155091.655    15345744.40849  11936156.32849  24155091.8374   24155099.7374
  20370747.664    -5642720.26549  -4391910.48049  20370749.2544   20370754.3054
  24787466.295    -4410674.37549  -3415345.72949  24787466.8434   24787473.1344
  21909747.102     -118963.77449    -88378.80349  21909749.1004   21909754.7094
 94  4 30  3 12 30.0000000  0  7 20 17 23  5  6 22 16
  21758705.639     7118372.85249   5543249.17149  21758707.3144   21758713.7144
  21533892.719   -13328599.82849 -10371152.64949  21533894.2854   21533900.5354
  24632878.380    -5267040.03749  -4086858.05349  24632880.3314   24632888.4874
  24174947.274    15450096.14149  12017469.29349  24174949.3414   24174957.8854
  20366703.529    -5663973.99249  -4408471.81549  20366704.9744   20366709.9934
  24768476.310    -4510459.46049  -3493100.31549  24768479.0094   24768484.3514
  21916647.389      -82709.55749    -60128.75349  21916647.9494   21916653.5684
 94  4 30  3 13  0.0000000  0  7 20 17 23  5  6 22 16
  21773060.015     7193800.07149   5602023.61649  21773060.9244   21773067.0104
  21520651.604   -13398181.60849 -10425372.19649  21520653.1164   21520659.4184
  24610430.356    -5385011.03149  -4178783.36749  24610430.6014   24610439.2604
  24194804.333    15554441.04349  12098776.93149  24194805.6404   24194813.5814
  20362710.805    -5684954.24549  -4424820.05249  20362712.4094   20362717.5624
  24749533.516    -4610034.23749  -3570691.01949  24749530.3424   24749536.1964
  21923635.887      -45986.63749    -31513.47949  21923636.3314   21923641.7104
 94  4 30  3 13 30.0000000  0  7 20 17 23  5  6 22 16
  21787477.553     7269567.53149   5661063.18049  21787478.8034   21787485.0054
  21507463.177   -13467486.69149 -10479376.13049  21507464.8404   21507470.9334
  24587976.560    -5503000.83749  -4270723.33749  24587978.3954   24587986.8294
  24214656.235    15658771.83449  12180073.57049  24214658.8734   24214666.3594
  20358771.255    -5705656.28649  -4440951.50649  20358772.9744   20358777.9504
  24730621.146    -4709394.71249  -3648114.73949  24730622.6354   24730627.9674
  21930715.651       -8782.48549     -2523.22049  21930715.9974   21930721.4534
 94  4 30  3 14  0.0000000  0  7 20 17 23  5  6 22 16
  21801959.924     7345673.77549   5720366.73349  21801961.1794   21801967.4304
  21494327.509   -13536514.16649 -10533163.74549  21494329.2554   21494335.4984
  24565524.947    -5620982.05449  -4362656.62249  24565527.0934   24565535.0694
  24234512.042    15763102.39849  12261370.02749  24234512.6504   24234520.0824
  20354884.782    -5726080.18149  -4456866.22449  20354886.6234   20354891.4824
  24711755.138    -4808549.31249  -3725378.03649  24711754.1664   24711759.2834
  21937884.353       28892.54049     26833.94549  21937885.1574   21937890.7334
 94  4 30  3 14 30.0000000  0  7 20 17 23  5  6 22 16
  21816506.704     7422118.15249   5779933.77649  21816508.0424   21816514.3684
  21481243.582   -13605272.64849 -10586741.75849  21481245.0454   21481251.1824
  24543080.388    -5738933.17849  -4454566.45149  24543081.5524   24543089.9094
  24254367.866    15867446.98549  12342677.42349  24254368.5224   24254376.1764
  20351052.271    -5746219.21449  -4472558.97549  20351054.0964   20351058.9004
  24692923.034    -4907504.67949  -3802486.09049  24692923.6574   24692928.9984
  21945139.715       67023.88549     56546.68649  21945141.1024   21945146.7784
 94  4 30  3 15  0.0000000  0  7 20 17 23  5  6 22 16
  21831117.518     7498899.13149   5839763.11549  21831118.9264   21831125.4594
  21468208.535   -13673770.84049 -10640116.95049  21468210.4114   21468216.3964
  24520642.535    -5856843.98449  -4546444.86649  24520643.6084   24520652.0684
  24274228.888    15971820.86149  12424007.62649  24274230.1824   24274237.1764
  20347276.960    -5766060.80049  -4488019.95049  20347278.5324   20347283.1794
  24674130.659    -5006253.78749  -3879433.41749  24674131.8084   24674137.4264
  21952485.267      105622.35649     86623.42149  21952486.3814   21952492.0004
 94  4 30  3 15 30.0000000  0  7 20 17 23  5  6 22 16
  21845791.708     7576014.35849   5899852.90449  21845793.5254   21845799.7934
  21455223.798   -13742004.10449 -10693285.69849  21455225.8184   21455232.1994
  24498214.537    -5974708.49749  -4638287.20149  24498214.8004   24498223.4834
  24294099.325    16076240.29649  12505373.33849  24294100.0944   24294109.2654
  20343561.411    -5785585.46849  -4503233.97449  20343563.1614   20343567.8264
  24655383.364    -5104780.81949  -3956207.68649  24655383.0804   24655389.2994
  21959920.502      144696.58449    117070.87749  21959921.9134   21959927.6204
 94  4 30  3 16  0.0000000  0  7 20 17 23  5  6 22 16
  21860531.215     7653464.03649   5960203.29849  21860532.0874   21860538.0784
  21442290.602   -13809971.93849 -10746247.61949  21442292.1164   21442298.1004
  24475794.289    -6092530.46049  -4730096.39549  24475793.8094   24475801.8864
  24313980.269    16180710.55049  12586778.63949  24313980.8014   24313987.6524
  20339909.912    -5804776.90349  -4518188.33449  20339911.3074   20339915.9884
  24636677.044    -5203073.72549  -4032799.52749  24636678.4774   24636684.7994
  21967446.560      184240.58049    147884.38249  21967446.9834   21967452.6244
 94  4 30  3 16 30.0000000  0  7 20 17 23  5  6 22 16
  21875331.716     7731242.57649   6020809.94049  21875332.7964   21875338.7974
  21429406.443   -13877676.02849 -10799004.02349  21429408.4984   21429414.3794
  24453373.937    -6210341.70749  -4821897.20749  24453374.8234   24453383.3904
  24333865.419    16285220.04749  12668214.53149  24333869.0644   24333876.7614
  20336324.034    -5823618.88449  -4532870.39349  20336325.6494   20336330.3664
  24618021.951    -5301116.90149  -4109196.77749  24618021.6784   24618027.5584
  21975062.248      224268.23049    179074.76449  21975063.7654   21975069.6444
 94  4 30  3 17  0.0000000  0  7 20 17 23  5  6 22 16
  21890194.138     7809346.95349   6081670.47049  21890195.5294   21890201.6744
  21416573.729   -13945116.24449 -10851554.81849  21416575.1434   21416581.1074
  24430956.342    -6328146.62649  -4913693.10549  24430957.4164   24430965.5064
  24353759.346    16389757.79349  12749672.44049  24353761.3124   24353768.1834
  20332807.618    -5842099.57249  -4547270.92749  20332808.8544   20332813.4904
  24599411.547    -5398900.20649  -4185391.51449  24599413.6034   24599419.7924
  21982772.074      264778.93249    210641.54949  21982772.7974   21982778.6564
 94  4 30  3 17 30.0000000  0  7 20 17 23  5  6 22 16
  21905118.865     7887778.32149   6142785.82749  21905120.4184   21905126.7734
  21403791.861   -14012284.40949 -10903893.61649  21403793.3214   21403799.2354
  24408539.300    -6445945.06449  -5005483.92949  24408541.0344   24408548.7524
  24373656.335    16494313.70949  12831144.50849  24373658.7054   24373665.2354
  20329360.077    -5860215.86049  -4561387.51049  20329361.3364   20329366.1664
  24580854.088    -5496424.91649  -4261384.76249  24580855.4964   24580861.9994
  21990569.009      305754.43949    242570.51849  21990570.1864   21990576.0224
 94  4 30  3 18  0.0000000  0  7 20 17 23  5  6 22 16
  21920105.701     7966536.55449   6204155.87349  21920107.5754   21920114.1894
  21391058.909   -14079195.08649 -10956031.77649  21391060.5724   21391066.6484
  24386124.913    -6563735.87349  -5097268.83249  24386125.9754   24386134.0924
  24393553.810    16598876.33149  12912621.79549  24393555.9164   24393562.8414
  20325978.081    -5877985.65849  -4575234.10549  20325979.8194   20325984.8084
  24562344.396    -5593695.44249  -4337179.95349  24562345.8774   24562351.1634
  21998454.022      347185.26049    274854.27649  21998454.1894   21998460.1264
 94  4 30  3 18 30.0000000  0  7 20 17 23  5  6 22 16
  21935155.117     8045618.58549   6265778.22649  21935156.2584   21935163.0064
  21378376.604   -14145842.62249 -11007964.88749  21378377.9194   21378383.9204
  24363715.558    -6681502.86049  -5189035.15049  24363715.5784   24363723.6274
  24413453.683    16703445.96849  12994104.54849  24413454.2114   24413462.2214
  20322659.981    -5895422.63249  -4588821.35649  20322661.7534   20322666.6344
  24543880.531    -5690721.34249  -4412784.51349  24543882.4734   24543887.8844
  22006423.133      389068.22349    307490.35149  22006424.5574   22006430.1924
 94  4 30  3 19  0.0000000  0  7 20 17 23  5  6 22 16
  21950264.505     8125019.50249   6327649.06149  21950265.8294   21950272.3274
  21365745.751   -14212217.97649 -11059685.91249  21365747.1354   21365753.3134
  24341311.803    -6799225.05549  -5280766.58149  24341313.6274   24341321.5524
  24433352.584    16808023.70749  13075593.62549  24433355.2494   24433362.7924
  20319402.457    -5912541.75349  -4602160.92949  20319404.1314   20319408.9724
  24525462.594    -5787512.14449  -4488205.90049  24525463.3754   24525468.8664
  22014476.948      431392.78549    340470.53149  22014478.4334   22014484.1524
 94  4 30  3 19 30.0000000  0  7 20 17 23  5  6 22 16
  21965435.581     8204739.18349   6389768.27349  21965436.1264   21965442.5804
  21353169.315   -14278308.20749 -11111184.76249  21353170.6944   21353176.6984
  24318918.146    -6916899.50549  -5372460.80449  24318920.7024   24318928.4394
  24453253.226    16912605.44849  13157085.82849  24453258.0464   24453264.6724
  20316202.414    -5929358.98249  -4615265.26249  20316203.7794   20316208.8214
  24507091.059    -5884058.54349  -4563436.83249  24507091.3104   24507097.2154
  22022618.734      474175.02449    373807.34249  22022619.7794   22022625.3714
 94  4 30  3 20  0.0000000  0  7 20 17 23  5  6 22 16
  21980664.542     8284774.75249   6452133.63449  21980666.3384   21980672.5784
  21340647.657   -14344109.50949 -11162458.46749  21340648.8334   21340654.6834
  24296538.091    -7034515.28949  -5464109.31249  24296538.9344   24296546.1944
  24473157.234    17017189.29149  13238579.66649  24473159.9314   24473164.8674
  20313060.595    -5945870.05449  -4628131.02049  20313061.8694   20313066.7384
  24488766.226    -5980359.55449  -4638476.56149  24488765.6044   24488771.0584
  22030848.589      517426.03649    407509.43349  22030849.9464   22030855.7394
 94  4 30  3 20 30.0000000  0  8 20 17 23  5  6 22 26 16
  21995955.725     8365126.68449   6514745.53149  21995956.6584   21995963.0664
  21328183.720   -14409603.46449 -11213492.68249  21328185.6624   21328191.7634
  24274169.922    -7152055.61549  -5555699.03149  24274172.0544   24274178.8234
  24493059.402    17121776.40949  13320076.06849  24493059.2114   24493068.8734
  20309980.308    -5962055.04149  -4640742.69249  20309982.1404   20309986.8774
  24470486.813    -6076412.70349  -4713323.14349  24470487.7484   24470493.3674
  24681027.307    -4430724.96059  -3438983.86559  24681028.9134   24681034.8444
  22039170.397      561157.37849    441585.81049  22039171.6534   22039177.4504
 94  4 30  3 21  0.0000000  0  8 20 17 23  5  6 22 26 16
  22011306.129     8445791.36849   6577601.10049  22011306.8804   22011313.1804
  21315776.305   -14474806.79649 -11264300.44549  21315777.9744   21315783.8514
  24251815.708    -7269525.84549  -5647234.13849  24251817.2324   24251824.7634
  24512959.921    17226357.42349  13401567.69949  24512961.9814   24512969.5094
  20306962.736    -5977912.56549  -4653099.20749  20306964.3814   20306969.3214
  24452258.232    -6172211.87849  -4787971.82149  24452257.5494   24452263.4514
  24664409.273    -4518058.92949  -3507036.23149  24664411.1894   24664416.0024
  22047583.736      605370.82849    476037.85349  22047585.3314   22047590.9964
 94  4 30  3 21 30.0000000  0  8 20 17 23  5  6 22 26 16
  22026714.606     8526766.39549   6640698.51149  22026715.9294   22026722.1524
  21303423.079   -14539722.78849 -11314884.30249  21303424.8864   21303430.8834
  24229476.713    -7386926.27049  -5738714.84949  24229477.5014   24229484.2514
  24532859.520    17330929.34749  13483052.25349  24532860.8114   24532869.1744
  20304009.146    -5993434.84949  -4665194.49149  20304010.7784   20304015.5884
  24434073.061    -6267760.53449  -4862425.29749  24434075.1864   24434080.8534
  24647804.576    -4605318.31949  -3575030.48949  24647806.4114   24647812.8224
  22056089.428      650065.45749    510864.84049  22056090.6054   22056096.2594
 94  4 30  3 22  0.0000000  0  8 20 17 23  5  6 22 26 16
  22042181.693     8608047.49049   6704034.40649  22042183.2004   22042189.6304
  21291124.985   -14604354.82749 -11365246.90049  21291125.9254   21291131.7544
  24207147.737    -7504258.12549  -5830142.12249  24207149.1744   24207157.3524
  24552761.265    17435504.51649  13564539.32749  24552761.5134   24552768.4804
  20301120.734    -6008614.81949  -4677023.03749  20301122.2394   20301126.7414
  24415937.445    -6363067.44149  -4936690.39349  24415938.6214   24415944.6124
  24631213.308    -4692499.06049  -3642963.49349  24631217.3644   24631221.2874
  22064684.349      695232.30349    546059.78749  22064685.5774   22064691.1774
 94  4 30  3 22 30.0000000  0  8 20 17 23  5  6 22 26 16
  22057706.753     8689629.88849   6767605.08449  22057707.8714   22057714.4614
  21278877.206   -14668711.55449 -11415394.96649  21278879.1354   21278885.0334
  24184831.999    -7621535.98949  -5921527.34449  24184832.0134   24184839.9754
  24572661.764    17540081.16649  13646027.57149  24572661.8974   24572668.4234
  20298292.944    -6023473.19149  -4688600.98649  20298294.7984   20298299.1594
  24397849.399    -6458123.03149  -5010759.64649  24397849.6204   24397856.8354
  24614639.236    -4779601.53649  -3710835.46449  24614640.1104   24614647.1244
  22073367.643      740861.22149    581614.79549  22073368.5244   22073374.0254
 94  4 30  3 23  0.0000000  0  8 20 17 23  5  6 22 26 16
  22073289.359     8771515.97349   6831412.40549  22073290.1664   22073296.6484
  21266685.087   -14732785.21449 -11465322.46149  21266685.9774   21266692.1754
  24162521.337    -7738764.10849  -6012873.79149  24162524.3704   24162531.7454
  24592561.168    17644660.55849  13727517.94849  24592562.8124   24592570.2314
  20295527.107    -6038009.29149  -4699927.81449  20295528.5664   20295533.2004
  24379811.139    -6552913.41649  -5084622.23849  24379812.2944   24379817.3434
  24598075.918    -4866637.69949  -3778655.77749  24598078.5304   24598085.4034
  22082136.132      786945.98549    617525.00749  22082138.0824   22082143.6894
 94  4 30  3 23 30.0000000  0  8 20 17 23  5  6 22 26 16
  22088929.216     8853704.94549   6895455.75149  22088930.4584   22088936.7944
  21254548.425   -14796557.36149 -11515015.01449  21254550.7454   21254556.7654
  24140223.855    -7855947.09349  -6104185.10049  24140224.8234   24140232.2104
  24612463.948    17749239.64149  13809008.06449  24612462.7894   24612470.8194
  20292823.600    -6052215.36149  -4710997.47249  20292825.2604   20292829.8664
  24361824.437    -6647433.83349  -5158274.47149  24361825.4074   24361830.9034
  24581527.133    -4953607.19949  -3846424.15849  24581528.6484   24581533.9294
  22090991.978      833479.31649    653784.75049  22090993.1154   22090998.7024
 94  4 30  3 24  0.0000000  0  8 20 17 23  5  6 22 26 16
  22104626.018     8936194.38349   6959733.22149  22104627.6734   22104634.0524
  21242468.825   -14860041.42749 -11564483.08649  21242470.0744   21242476.1904
  24117932.986    -7973090.45349  -6195465.50349  24117932.8704   24117940.3194
  24632361.096    17853806.75149  13890488.84749  24632360.8384   24632369.9184
  20290182.805    -6066095.61849  -4721813.25349  20290183.8124   20290188.5934
  24343890.814    -6741673.24649  -5231707.74249  24343892.0844   24343897.7134
  24564991.778    -5040494.59549  -3914128.54249  24564994.1474   24565000.8114
  22099930.042      880448.35049    690384.00249  22099931.0644   22099936.7814
 94  4 30  3 24 30.0000000  0  8 20 17 23  5  6 22 26 16
  22120380.016     9018982.25249   7024243.24149  22120381.6744   22120388.1024
  21230439.973   -14923251.07149 -11613737.32749  21230441.6894   21230447.6434
  24095649.726    -8090181.60649  -6286705.26249  24095651.8154   24095658.4654
  24652251.742    17958338.52649  13971942.10549  24652254.3604   24652262.6564
  20287605.376    -6079636.96849  -4732364.94649  20287607.1224   20287612.0244
  24326015.990    -6835615.93349  -5304909.81949  24326016.0134   24326021.2434
  24548476.231    -5127285.88049  -3981758.03549  24548479.5294   24548484.3454
  22108949.784      927849.27549    727319.79449  22108951.1054   22108957.0384
 94  4 30  3 25  0.0000000  0  8 20 17 23  5  6 22 26 16
  22136190.303     9102062.98849   7088981.46149  22136191.5884   22136197.5514
  21218463.781   -14986185.87749 -11662777.40649  21218465.5394   21218471.5914
  24073381.619    -8207208.64949  -6377895.04149  24073381.4524   24073388.7674
  24672135.070    18062830.17049  14053364.08949  24672137.9974   24672145.4574
  20285095.362    -6092826.36849  -4742642.39549  20285097.0634   20285102.0994
  24308193.487    -6929269.74949  -5377886.79349  24308193.8924   24308199.6564
  24531980.619    -5213973.23549  -4049306.55449  24531982.1214   24531987.9794
  22118053.366      975685.02049    764594.40249  22118053.8454   22118059.8764
 94  4 30  3 25 30.0000000  0  8 20 17 23  5  6 22 26 16
  22152055.894     9185438.98249   7153949.75449  22152057.5724   22152063.3974
  21206537.311   -15048859.39649 -11711613.88849  21206539.0254   21206545.1184
  24051126.638    -8324161.26349  -6469026.84949  24051126.4154   24051133.8384
  24692015.246    18167293.11549  14134763.71349  24692016.7794   24692024.8974
  20282652.442    -6105664.19249  -4752645.88349  20282653.9794   20282659.0334
  24290427.391    -7022630.49649  -5450635.39049  24290428.0264   24290432.9074
  24515508.890    -5300529.22349  -4116752.71449  24515510.4544   24515517.6154
  22127239.732     1023964.30449    802214.62749  22127241.0784   22127247.1354
 94  4 30  3 26  0.0000000  0  8 20 17 23  5  6 22 26 16
  22167977.591     9269105.98249   7219144.79949  22167978.6184   22167984.8664
  21194658.763   -15111281.62149 -11760254.55549  21194660.2924   21194666.5094
  24028887.865    -8441026.92049  -6560090.89449  24028887.6834   24028894.5914
  24711890.358    18271726.76349  14216140.49749  24711889.9314   24711898.3514
  20280275.653    -6118157.19749  -4762380.68349  20280276.6684   20280281.4784
  24272716.588    -7115691.99549  -5523150.80849  24272719.2104   24272724.2254
  24499063.149    -5386954.20349  -4184096.79349  24499065.4984   24499071.7154
  22136511.654     1072688.30449    840181.38249  22136512.8204   22136518.8994
 94  4 30  3 26 30.0000000  0  7 20 17 23  6 22 26 16
  22183953.474     9353063.00549   7284565.83449  22183955.1364   22183961.4274
  21182832.367   -15173431.24849 -11808682.80949  21182833.9214   21182840.0464
  24006666.518    -8557795.49249  -6651079.28849  24006667.1534   24006674.4424
  20277964.513    -6130302.68949  -4771844.69749  20277965.8084   20277970.3364
  24255068.497    -7208445.95549  -5595426.59049  24255068.5844   24255073.1734
  24482640.434    -5473259.54349  -4251347.65449  24482640.8664   24482648.0194
  22145870.975     1121869.84049    878504.65749  22145871.8234   22145877.7084
 94  4 30  3 27  0.0000000  0  7 20 17 23  6 22 26 16
  22199983.735     9437304.00249   7350208.14949  22199985.8204   22199991.8824
  21171061.258   -15235289.27549 -11856883.84349  21171062.6644   21171068.7584
  23984461.614    -8674481.75449  -6742003.55549  23984462.4054   23984469.6494
  20275716.976    -6142112.36049  -4781047.03349  20275718.2914   20275722.8804
  24237471.799    -7300906.01449  -5667473.35649  24237473.1894   24237479.5124
  24466235.019    -5559470.26949  -4318524.76249  24466236.8094   24466242.1974
  22155314.761     1171498.86449    917176.62849  22155316.0554   22155321.8024
 94  4 30  3 27 30.0000000  0  7 20 17 23  6 22 26 16
  22216068.848     9521829.29149   7416071.99249  22216070.4834   22216076.8174
  21159347.026   -15296846.35949 -11904850.37649  21159348.5654   21159354.6994
  23962272.946    -8791077.36649  -6832857.18749  23962275.1344   23962282.0764
  20273535.149    -6153578.32549  -4789981.54449  20273536.5184   20273541.1664
  24219934.701    -7393061.29249  -5739282.64549  24219937.3464   24219942.9874
  24449846.722    -5645587.92749  -4385629.36149  24449847.8124   24449855.5604
  22164841.293     1221563.27749    956187.86749  22164842.9104   22164848.7054
 94  4 30  3 28  0.0000000  0  7 20 17 23  6 22 26 16
  22232207.654     9606636.20449   7482155.28149  22232208.5564   22232214.7914
  21147692.497   -15358091.03649 -11952573.48249  21147694.1754   21147700.0964
  23940104.399    -8907578.42949  -6923637.13849  23940105.5374   23940112.8834
  20271420.986    -6164687.99249  -4798638.42449  20271422.3404   20271427.0304
  24202457.044    -7484912.51849  -5810854.99649  24202458.0604   24202463.6894
  24433475.951    -5731622.04149  -4452668.86549  24433476.8864   24433482.7264
  22174450.381     1272055.41049    995532.38749  22174451.1744   22174457.0944
 94  4 30  3 28 30.0000000  0  7 20 17 23  6 22 26 16
  22248398.967     9691725.37749   7548458.51049  22248400.5864   22248406.6574
  21136097.518   -15419023.68349 -12000053.45049  21136098.8994   21136105.0004
  23917955.362    -9023976.71549  -7014337.01649  23917955.8614   23917963.1394
  20269377.624    -6175425.16449  -4807005.05449  20269379.2594   20269383.7774
  24185037.588    -7576461.11649  -5882191.54949  24185037.2124   24185042.3084
  24417122.683    -5817554.65549  -4519629.26849  24417124.3544   24417131.6594
  22184138.844     1322969.10049   1035205.39049  22184139.9064   22184145.7894
 94  4 30  3 29  0.0000000  0  7 20 17 23  6 22 26 16
  22264644.064     9777093.28049   7614978.93449  22264645.4014   22264651.8704
  21124560.006   -15479654.51449 -12047298.22649  21124561.4544   21124567.5294
  23895826.234    -9140259.95049  -7104947.24249  23895827.7844   23895834.9974
  20267406.250    -6185785.30249  -4815077.88449  20267407.9234   20267412.2924
  24167670.307    -7667720.83949  -5953302.99449  24167671.2094   24167676.2974
  24400793.284    -5903364.12049  -4586493.73549  24400795.5794   24400801.6054
  22193905.074     1374290.09349   1075195.77849  22193906.0044   22193911.8024
 94  4 30  3 29 30.0000000  0  7 20 17 23  6 22 26 16
  22280941.944     9862739.51249   7681716.23649  22280943.3294   22280949.7894
  21113075.529   -15540005.38549 -12094324.86449  21113077.0314   21113082.8274
  23873722.955    -9256415.39949  -7195457.89749  23873723.9284   23873731.6754
  20265506.869    -6195765.87049  -4822854.94649  20265508.5094   20265513.0944
  24150363.068    -7758683.86849  -6024183.26349  24150361.3314   24150366.5084
  24384492.054    -5989028.46749  -4653245.11049  24384494.7174   24384500.2844
  22203750.996     1426033.70449   1115515.47849  22203752.5064   22203757.9704
 94  4 30  3 30  0.0000000  0  7 20 17 23  6 22 26 16
  22297291.178     9948655.50849   7748663.74549  22297292.6234   22297299.1484
  21101643.017   -15600084.99549 -12141140.12549  21101644.4624   21101650.2454
  23851639.875    -9372461.71449  -7285883.51049  23851641.5044   23851648.9724
  20263677.794    -6205378.25749  -4830345.11149  20263679.4934   20263684.0174
  24133106.419    -7849351.86249  -6094833.62549  24133108.0994   24133113.3684
  24368217.420    -6074557.04649  -4719890.69249  24368218.0094   24368224.2894
  22213679.776     1478207.19249   1156170.14849  22213680.7484   22213686.4014
 94  4 30  3 30 30.0000000  0  7 20 17 23  6 22 26 16
  22313691.635    10034839.57149   7815820.14849  22313692.9294   22313699.3904
  21090262.808   -15659886.68549 -12187738.82549  21090264.4134   21090270.2144
  23829578.000    -9488399.58149  -7376224.60649  23829578.7024   23829585.9814
  20261917.513    -6214629.04749  -4837553.51449  20261918.9624   20261923.5954
  24115910.355    -7939718.33749  -6165249.04649  24115912.0734   24115917.3844
  24351968.578    -6159943.11549  -4786425.22949  24351970.6004   24351976.3714
  22223691.067     1530822.36849   1197168.98649  22223693.0184   22223698.6474
 94  4 30  3 31  0.0000000  0  7 20 17 23  6 22 26 16
  22330143.310    10121291.18249   7883184.98749  22330144.1164   22330150.5044
  21078936.607   -15719404.18349 -12234116.07249  21078938.7454   21078944.4074
  23807532.519    -9604250.56949  -7466498.03049  23807533.4564   23807540.5394
  20260223.671    -6223529.01149  -4844488.55949  20260225.1314   20260230.0214
  24098772.974    -8029780.37249  -6235427.22049  24098773.3734   24098779.4774
  24335746.333    -6245189.83149  -4852851.21049  24335748.2304   24335754.5304
  22233789.914     1583891.83049   1238521.82849  22233791.7354   22233797.6514
 94  4 30  3 31 30.0000000  0  7 20 17 23  6 22 26 16
  22346644.844    10208011.02149   7950758.87149  22346646.4574   22346652.7274
  21067666.552   -15778630.87249 -12280266.71649  21067668.3754   21067674.1174
  23785498.041    -9720037.96649  -7556721.88049  23785499.3984   23785506.5364
  20258598.631    -6232067.65849  -4851142.05949  20258600.2534   20258605.1524
  24081697.546    -8119510.70849  -6305346.94249  24081698.3324   24081703.2724
  24319552.173    -6330295.80549  -4919167.47749  24319553.4904   24319558.9644
  22243977.891     1637426.77849   1280237.37049  22243978.9764   22243984.8164
 94  4 30  3 32  0.0000000  0  7 20 17 23  6 22 26 16
  22363197.907    10294996.01549   8018539.37249  22363199.4074   22363205.6454
  21056455.181   -15837550.09349 -12326177.77349  21056456.4804   21056462.0014
  23763476.180    -9835761.63149  -7646896.07849  23763477.8784   23763485.0454
  20257042.805    -6240242.82749  -4857512.31649  20257044.4634   20257049.3884
  24064686.699    -8208904.09449  -6375004.11049  24064687.2564   24064692.8334
  24303385.511    -6415247.52249  -4985363.56049  24303387.4284   24303393.7564
  22254248.806     1691405.06249   1322298.37449  22254250.7784   22254256.6294
 94  4 30  3 32 30.0000000  0  7 20 17 23  6 22 26 16
  22379800.644    10382241.78249   8086523.07149  22379801.5494   22379807.9474
  21045300.123   -15896167.61249 -12371853.74149  21045301.8354   21045307.4574
  23741469.992    -9951408.35649  -7737010.31449  23741471.0214   23741478.4944
  20255558.003    -6248048.13649  -4863594.37949  20255559.3104   20255564.3264
  24047737.505    -8297968.26349  -6444404.74149  24047738.4984   24047743.5564
  24287251.453    -6500035.41049  -5051431.99349  24287252.4924   24287258.9964
  22264602.408     1745816.26049   1364696.71949  22264604.8534   22264610.6684
 94  4 30  3 33  0.0000000  0  7 20 17 23  6 22 26 16
  22396450.864    10469741.06549   8154704.31149  22396452.3494   22396458.7904
  21034201.562   -15954489.67749 -12417299.48049  21034203.4164   21034209.1094
  23719481.919   -10066962.62649  -7827052.50249  23719482.0884   23719489.1914
  20254143.714    -6255480.07249  -4869385.50549  20254145.1044   20254150.0574
  24030849.966    -8386705.94849  -6513550.96749  24030852.4764   24030858.1734
  24271145.300    -6584663.85649  -5117376.17149  24271148.1074   24271154.6334
  22275035.890     1800640.85449   1407417.19049  22275037.5914   22275043.5004
 94  4 30  3 33 30.0000000  0  7 20 17 23  6 22 26 16
  22413151.398    10557502.70049   8223089.97749  22413152.5724   22413159.1584
  21023163.627   -16012496.75949 -12462499.78149  21023164.8564   21023170.6964
  23697517.455   -10182376.61849  -7916985.38949  23697518.8674   23697526.1764
  20252803.310    -6262522.64149  -4874873.22049  20252804.8204   20252809.6544
  24014031.203    -8475095.44849  -6582425.87249  24014032.4344   24014038.2894
  24255073.820    -6669122.93349  -5183188.38349  24255076.1614   24255082.9554
  22285548.195     1855878.40549   1450459.44149  22285549.0434   22285554.7514
 94  4 30  3 34  0.0000000  0  7 20 17 23  6 22 26 16
  22429900.001    10645517.22749   8291672.70149  22429901.2694   22429907.6294
  21012181.192   -16070206.61549 -12507468.47449  21012183.1214   21012188.8794
  23675586.554   -10297623.89349  -8006788.36649  23675588.1384   23675595.0514
  20251533.337    -6269197.36649  -4880074.30449  20251534.7414   20251539.3744
  23997274.647    -8563153.41449  -6651042.43349  23997275.5314   23997281.4364
  24239032.279    -6753423.66849  -5248877.20649  24239033.9884   24239040.2644
  22296133.007     1911507.79749   1493807.02549  22296134.9774   22296140.6654
 94  4 30  3 34 30.0000000  0  7 20 17 23  6 22 26 16
  22446695.535    10733780.37949   8360449.15549  22446697.1424   22446703.7774
  21001255.498   -16127622.03449 -12552207.73949  21001257.3404   21001262.8774
  23653688.818   -10412695.27249  -8096454.29649  23653690.1814   23653698.0894
  20250332.069    -6275508.09549  -4884991.75949  20250333.8054   20250338.7664
  23980578.938    -8650883.93349  -6719403.84249  23980580.5774   23980586.5594
  24223017.421    -6837585.19049  -5314457.54849  24223018.5364   24223025.0074
  22306795.010     1967529.93849   1537460.63949  22306795.7504   22306801.3104
 94  4 30  3 35  0.0000000  0  7 20 17 23  6 22 26 16
  22463539.733    10822296.02649   8429422.36149  22463541.0054   22463547.5694
  20990387.224   -16184737.24249 -12596713.07049  20990388.7034   20990394.3744
  23631826.419   -10527586.70049  -8185979.98449  23631827.5674   23631834.4134
  20249200.619    -6281456.57049  -4889626.93049  20249201.7684   20249206.7894
  23963952.162    -8738272.49549  -6787498.78249  23963951.8494   23963957.1284
  24207029.122    -6921596.88849  -5379921.15749  24207031.9314   24207037.7594
  22317530.438     2023948.79249   1581423.38349  22317531.7304   22317537.3444
 94  4 30  3 35 30.0000000  0  7 20 17 23  6 22 26 16
  22480430.833    10911060.01349   8498589.08649  22480432.2414   22480439.0614
  20979575.244   -16241552.62649 -12640984.77449  20979576.9264   20979582.7164
  23609992.861   -10642320.10649  -8275382.55849  23609994.5284   23610000.8514
  20248135.605    -6287050.46449  -4893985.81149  20248137.5124   20248142.3394
  23947386.128    -8825314.84249  -6855323.95849  23947388.1524   23947393.9884
  24191073.725    -7005452.97449  -5445263.49949  24191075.1874   24191080.7314
  22328342.675     2080767.12149   1625697.40449  22328343.7134   22328349.6884
 94  4 30  3 36  0.0000000  0  7 20 17 23  6 22 26 16
  22497368.178    11000066.28149   8567944.59749  22497369.5214   22497376.4074
  20968819.575   -16298075.82849 -12685028.80249  20968820.8294   20968826.6394
  23588186.289   -10756914.89849  -8364677.12849  23588187.4434   23588194.1744
  20247139.476    -6292287.86449  -4898066.91349  20247140.9824   20247145.7784
  23930887.662    -8912019.42849  -6922885.93449  23930888.5884   23930894.6714
  24175146.635    -7089147.96849  -5510480.31449  24175147.8424   24175154.3414
  22339233.844     2137997.25749   1670292.31249  22339234.2064   22339240.2854
 94  4 30  3 36 30.0000000  0  7 20 17 23  6 22 26 16
  22514351.909    11089313.25249   8637487.66849  22514352.9094   22514359.6994
  20958122.045   -16354293.80849 -12728834.99749  20958122.9254   20958128.5064
  23566403.545   -10871387.18949  -8453876.24249  23566404.0054   23566410.6464
  20246214.195    -6297146.63249  -4901852.96949  20246216.1234   20246221.0974
  23914455.003    -8998377.07149  -6990177.57049  23914455.4564   23914460.9944
  24159251.317    -7172678.64749  -5575569.09749  24159253.4514   24159258.5404
  22350205.456     2195654.60049   1715220.11349  22350206.2764   22350212.1804
 94  4 30  3 37  0.0000000  0  7 20 17 23  6 22 26 16
  22531380.336    11178800.33249   8707217.83449  22531381.8464   22531388.3644
  20947480.556   -16410207.42149 -12772404.02149  20947482.8254   20947488.5444
  23544639.228   -10985751.89949  -8542991.52349  23544641.4384   23544647.8074
  20245364.878    -6301612.93849  -4905333.20949  20245366.3084   20245371.1924
  23898091.840    -9084364.56549  -7057180.77949  23898092.6694   23898097.7604
  24143391.166    -7256022.14949  -5640512.02649  24143392.7644   24143398.6804
  22361261.539     2253749.39849   1760488.79349  22361261.5244   22361267.0314
 94  4 30  3 37 30.0000000  0  7 20 17 23  6 22 26 16
  22548454.081    11268522.82149   8777131.44049  22548455.2034   22548461.8924
  20936897.013   -16465825.13949 -12815742.47149  20936899.1334   20936904.8634
  23522898.032   -11100007.53549  -8632021.80749  23522899.1414   23522905.4654
  20244592.553    -6305670.89049  -4908495.25249  20244594.2204   20244599.1794
  23881800.562    -9169976.94249  -7123891.69049  23881800.8444   23881806.2684
  24127567.085    -7339176.41749  -5705307.49749  24127568.6884   24127574.5604
  22372396.430     2312271.56849   1806090.49149  22372397.8954   22372403.1184
 94  4 30  3 38  0.0000000  0  7 20 17 23  6 22 26 16
  22565572.703    11358481.27349   8847228.91149  22565573.9774   22565580.5184
  20926369.558   -16521153.25849 -12858855.26549  20926370.6094   20926376.3184
  23501178.741   -11214139.07349  -8720955.40049  23501180.1414   23501186.7794
  20243900.859    -6309306.05649  -4911327.85449  20243902.3794   20243907.3684
  23865580.510    -9255209.16149  -7190306.37649  23865581.5734   23865587.3964
  24111780.834    -7422132.42149  -5769948.47549  24111783.4524   24111788.3964
  22383611.713     2371209.82949   1852016.40849  22383613.4324   22383618.7474
 94  4 30  3 38 30.0000000  0  7 20 17 23  6 22 26 16
  22582735.202    11448669.86349   8917505.70749  22582736.4704   22582742.8894
  20915895.798   -16576193.93249 -12901744.08249  20915896.6374   20915902.3434
  23479485.064   -11328146.88949  -8809792.58749  23479485.5464   23479491.8974
  20243288.408    -6312522.90749  -4913834.49149  20243290.1244   20243295.1484
  23849434.586    -9340060.62049  -7256424.37049  23849435.2854   23849440.5744
  24096032.686    -7504891.99349  -5834436.40749  24096034.2424   24096039.0874
  22394902.112     2430540.80349   1898248.33749  22394903.6944   22394909.0664
 94  4 30  3 39  0.0000000  0  7 20 17 23  6 22 26 16
  22599940.772    11539086.17849   8987959.96249  22599942.1724   22599948.3534
  20905475.833   -16630946.75349 -12944408.59449  20905477.5714   20905483.2204
  23457816.087   -11442017.34349  -8898522.74149  23457816.3094   23457823.1234
  20242752.691    -6315340.79449  -4916030.24849  20242754.1294   20242759.0224
  23833356.221    -9424547.62349  -7322258.37049  23833357.6344   23833363.1974
  24080324.455    -7587442.83249  -5898761.68249  24080325.7154   24080330.5604
  22406265.750     2490252.64749   1944777.04849  22406266.4794   22406272.1284
 94  4 30  3 39 30.0000000  0  7 20 17 23  6 22 26 16
  22617189.657    11629728.70749   9058590.48449  22617190.8134   22617197.1294
  20895113.198   -16685402.21349 -12986841.38849  20895115.1074   20895120.7184
  23436176.966   -11555728.70849  -8987128.92449  23436177.8794   23436184.4514
  20242288.969    -6317773.92249  -4917926.19449  20242290.8644   20242295.9174
  23817344.628    -9508694.66649  -7387827.46749  23817344.9294   23817350.6884
  24064654.056    -7669787.97749  -5962926.68149  24064655.5384   24064661.4384
  22417698.118     2550334.83949   1991594.34249  22417699.8184   22417705.2874
 94  4 30  3 40  0.0000000  0  7 20 17 23  6 22 26 16
  22634480.974    11720594.92649   9129395.30549  22634482.0444   22634488.3044
  20884810.602   -16739544.59049 -13029030.21949  20884811.9594   20884817.5194
  23414568.739   -11669278.09849  -9075608.89549  23414570.3344   23414576.6594
  20241894.776    -6319848.81749  -4919542.99749  20241896.0134   20241901.1464
  23801394.632    -9592511.70949  -7453139.42249  23801395.6224   23801400.5384
  24049023.792    -7751926.52149  -6026930.69549  24049025.0754   24049030.4364
  22429203.812     2610796.66449   2038707.45649  22429205.1964   22429210.9684
 94  4 30  3 40 30.0000000  0  7 20 17 23  6 22 26 16
  22651813.613    11811682.84649   9200372.88749  22651815.6454   22651821.8814
  20874568.174   -16793364.12449 -13070967.48949  20874570.4844   20874575.9884
  23392992.938   -11782661.47449  -9163959.50049  23392993.9054   23393000.7984
  20241566.071    -6321573.70649  -4920887.06049  20241567.8594   20241572.8574
  23785508.035    -9675995.61149  -7518191.80349  23785508.7834   23785514.5154
  24033432.916    -7833856.35149  -6090772.07649  24033434.9974   24033440.2564
  22440782.275     2671640.04049   2086117.88349  22440783.4164   22440789.0314
 94  4 30  3 41  0.0000000  0  7 20 17 23  6 22 26 16
  22669189.119    11902990.34349   9271521.56849  22669190.7844   22669197.1434
  20864389.828   -16846856.62249 -13112649.92949  20864391.2124   20864396.6914
  23371450.446   -11895867.87049  -9252172.19049  23371451.5214   23371458.1684
  20241306.087    -6322942.11049  -4921953.33749  20241307.4284   20241312.3364
  23769687.221    -9759143.78049  -7582982.56749  23769686.3804   23769691.8774
  24017882.409    -7915568.27849  -6154443.66349  24017885.4484   24017890.5424
  22452433.021     2732860.48849   2133822.13249  22452433.3014   22452439.0514
 94  4 30  3 41 30.0000000  0  7 20 17 23  6 22 26 16
  22686607.026    11994516.78349   9342840.84949  22686607.8464   22686614.2684
  20854271.951   -16900024.37849 -13154079.32749  20854273.7634   20854279.0354
  23349941.580   -12008895.63049  -9340245.69549  23349942.7894   23349949.8664
  20241115.749    -6323943.50449  -4922733.64149  20241116.9744   20241121.9724
  23753932.805    -9841926.97749  -7647488.93949  23753933.0244   23753938.8564
  24002373.524    -7997068.24549  -6217950.09149  24002376.2694   24002381.2184
  22464155.451     2794466.82649   2181827.07249  22464156.6924   22464162.1924
 94  4 30  3 42  0.0000000  0  7 20 17 23  6 22 26 16
  22704064.955    12086260.85649   9414329.71149  22704066.2184   22704072.4224
  20844215.006   -16952875.91249 -13195262.31949  20844216.3994   20844221.8614
  23328464.841   -12121755.60849  -9428188.44749  23328466.4964   23328473.4974
  20240999.360    -6324552.96949  -4923208.55149  20241001.0134   20241005.9704
  23738252.373    -9924323.29149  -7711693.84749  23738253.8134   23738259.4094
  23986905.462    -8078356.44149  -6281291.50449  23986907.3394   23986913.5404
  22475953.633     2856464.67749   2230137.08649  22475954.3974   22475959.8554
 94  4 30  3 42 30.0000000  0  7 20 17 23  6 22 26 16
  22721563.693    12178213.97849   9485981.47349  22721564.4264   22721570.3724
  20834215.900   -17005422.74249 -13236207.87249  20834217.1214   20834222.5004
  23307019.295   -12234455.19049  -9516006.22149  23307020.2984   23307027.3104
  20240961.435    -6324754.17449  -4923365.32749  20240962.7004   20240967.5014
  23722645.679   -10006335.58849  -7775599.52149  23722646.6944   23722652.5554
  23971476.598    -8159437.73949  -6344471.68149  23971478.5564   23971483.9194
  22487825.497     2918849.86649   2278748.93349  22487825.9164   22487831.5404
 94  4 30  3 43  0.0000000  0  7 20 17 23  6 22 26 16
  22739100.710    12270373.01149   9557793.69149  22739101.7524   22739107.6174
  20824272.127   -17057671.97249 -13276921.52649  20824274.2484   20824279.8114
  23285602.493   -12346997.18549  -9603701.19849  23285604.3004   23285611.0034
  20241001.086    -6324545.25849  -4923202.54249  20241002.4124   20241007.3554
  23707112.741   -10087964.20849  -7839206.22449  23707113.6994   23707119.6134
  23956087.413    -8240308.70849  -6407487.98149  23956088.9444   23956094.4564
  22499771.971     2981634.75949   2327672.22649  22499773.5844   22499778.9814
 94  4 30  3 43 30.0000000  0  7 20 17 23  6 22 26 16
  22756677.065    12362738.84549   9629767.03649  22756678.4684   22756684.5764
  20814383.715   -17109634.42149 -13317411.72049  20814386.1404   20814391.7904
  23264215.015   -12459389.12049  -9691279.24349  23264216.7254   23264223.7864
  20241120.220    -6323917.58749  -4922713.45849  20241121.8694   20241126.8854
  23691654.539   -10169188.57149  -7902497.92549  23691657.2934   23691662.9354
  23940740.075    -8320952.32049  -6470327.10949  23940742.5774   23940748.0044
  22511798.482     3044831.09349   2376916.12149  22511799.3194   22511804.9104
 94  4 30  3 44  0.0000000  0  7 20 17 23  6 22 26 16
  22774292.571    12455308.75749   9701899.41049  22774293.9434   22774300.1324
  20804552.335   -17161304.30849 -13357673.94649  20804553.6894   20804559.3884
  23242856.577   -12571630.98049  -9778740.35949  23242858.0044   23242864.6134
  20241321.369    -6322860.54949  -4921889.79849  20241322.8674   20241328.1534
  23676273.701   -10250015.30149  -7965479.78049  23676275.8504   23676282.1404
  23925441.246    -8401351.66949  -6532975.89849  23925443.2864   23925448.8154
  22523900.431     3108423.78149   2426468.87349  22523900.5784   22523906.2164
 94  4 30  3 44 30.0000000  0  7 20 17 23  6 22 26 16
  22791946.007    12548080.29249   9774188.89849  22791947.7994   22791953.6044
  20794775.336   -17212684.12549 -13397710.14349  20794776.6074   20794781.9544
  23221529.430   -12683707.35949  -9866072.53149  23221530.4374   23221537.1054
  20241600.742    -6321391.26949  -4920744.90949  20241602.5964   20241607.7604
  23660971.355   -10330436.08949  -8028145.30649  23660972.2934   23660978.2764
  23910192.298    -8481492.93249  -6595423.58649  23910193.3364   23910198.1624
  22536073.792     3172399.52049   2476320.10149  22536074.9524   22536080.2624
 94  4 30  3 45  0.0000000  0  7 20 17 23  6 22 26 16
  22809638.767    12641053.43049   9846635.47949  22809639.7134   22809646.3274
  20785051.474   -17263780.57849 -13437525.53549  20785053.2194   20785058.5664
  23200236.614   -12795600.90849  -9953262.23049  23200237.8314   23200244.3604
  20241959.676    -6319508.79749  -4919278.05249  20241961.0184   20241965.8844
  23645750.540   -10410424.02349  -8090473.54949  23645751.3404   23645757.5294
  23894990.688    -8561364.18149  -6657660.88249  23894993.3504   23894999.8524
  22548319.355     3236748.96049   2526462.52449  22548320.2304   22548325.6894
 94  4 30  3 45 30.0000000  0  7 20 17 23  6 22 26 16
  22827368.676    12734224.23449   9919236.09149  22827369.7104   22827376.0044
  20775382.779   -17314585.52749 -13477113.78549  20775385.1584   20775390.6814
  23178981.037   -12907298.76449 -10040299.45849  23178982.1794   23178988.7484
  20242394.734    -6317220.32749  -4917494.83049  20242396.6534   20242401.3584
  23630610.092   -10489983.80049  -8152468.16249  23630611.7004   23630617.2654
  23879841.792    -8640976.02549  -6719696.04349  23879843.7594   23879850.0054
  22560635.042     3301465.02149   2576890.62249  22560635.0324   22560640.9044
 94  4 30  3 46  0.0000000  0  7 20 17 23  6 22 26 16
  22845135.487    12827586.95849   9991986.25849  22845135.9744   22845142.6074
  20765772.562   -17365091.23549 -13516468.85949  20765774.4424   20765779.8654
  23157765.111   -13018791.46249 -10127176.81249  23157765.4644   23157772.5494
  20242904.323    -6314546.46049  -4915411.29649  20242905.6564   20242910.2454
  23615549.981   -10569129.53749  -8214140.14549  23615550.6844   23615556.6664
  23864734.987    -8720362.13449  -6781555.30249  23864737.3224   23864742.4894
  22573017.278     3366540.11049   2627598.48349  22573018.3274   22573024.3254
 94  4 30  3 46 30.0000000  0  7 20 17 23  6 22 26 16
  22862937.232    12921143.37549  10064887.34549  22862939.0214   22862945.5724
  20756219.397   -17415296.79849 -13555590.05749  20756220.2744   20756225.9914
  23136591.663   -13130056.67449 -10213876.91749  23136592.3874   23136599.5354
  20243484.378    -6311494.50949  -4913033.16149  20243486.0394   20243491.0534
  23600570.206   -10647852.87349  -8275482.98649  23600570.5974   23600575.8044
  23849670.954    -8799527.02449  -6843242.19049  23849672.8844   23849678.1874
  22585470.292     3431983.45349   2678593.30049  22585471.9804   22585477.7694
 94  4 30  3 47  0.0000000  0  7 20 17 23  6 22 26 16
  22880777.366    13014889.66649  10137936.39049  22880778.4894   22880784.7334
  20746726.203   -17465179.93249 -13594460.01149  20746727.8264   20746733.6504
  23115461.020   -13241096.22749 -10300401.18349  23115462.2094   23115468.9344
  20244138.837    -6308055.86249  -4910353.70649  20244140.3774   20244145.4554
  23585665.035   -10726173.75449  -8336512.23149  23585666.3754   23585671.8024
  23834646.739    -8878477.06349  -6904761.66249  23834649.0474   23834654.1194
  22597995.518     3497799.52549   2729878.55449  22597996.2174   22598002.0074
 94  4 30  3 47 29.9990000  0  7 20 17 23  6 22 26 16
  22898650.485    13108818.38249  10211127.57949  22898652.3544   22898658.9314
  20737299.250   -17514720.63349 -13633063.13649  20737300.8804   20737306.3474
  23094370.898   -13351925.24149 -10386761.39349  23094372.0464   23094379.1024
  20244866.879    -6304228.32049  -4907371.20849  20244868.6964   20244873.7984
  23570836.877   -10804102.72149  -8397236.09449  23570837.2274   23570842.4734
  23819662.892    -8957221.59049  -6966120.99249  23819665.0774   23819670.4304
  22610588.074     3563973.46949   2781442.65749  22610588.7604   22610594.7264
 94  4 30  3 47 59.9990000  0  7 20 17 23  6 22 26 16
  22916560.949    13202935.35649  10284465.46149  22916562.2054   22916568.7984
  20727935.530   -17563925.59649 -13671404.64349  20727937.2844   20727942.7774
  23073318.144   -13462551.54549 -10472963.65349  23073320.8184   23073327.4354
  20245674.307    -6299987.65249  -4904066.79549  20245675.6864   20245680.6854
  23556082.944   -10881637.36749  -8457652.68649  23556082.7174   23556087.8684
  23804719.515    -9035745.62349  -7027308.50249  23804721.2624   23804727.5964
  22623246.041     3630501.50849   2833282.68349  22623248.5884   22623254.3964
 94  4 30  3 48 29.9990000  0  7 20 17 23  6 22 26 16
  22934505.628    13297233.41949  10357944.44849  22934506.4574   22934513.3014
  20718635.113   -17612797.07549 -13709486.29749  20718637.3004   20718642.8054
  23052308.396   -13572967.10749 -10559001.71649  23052309.4534   23052316.0224
  20246561.508    -6295324.88549  -4900433.47149  20246563.1194   20246567.9274
  23541402.086   -10958776.55749  -8517761.13149  23541403.6444   23541408.7944
  23789826.784    -9114011.45649  -7088294.83449  23789828.8554   23789834.1234
  22635975.037     3697377.52749   2885393.86549  22635974.5234   22635980.4534
 94  4 30  3 48 59.9990000  0  7 20 17 23  6 22 26 16
  22952483.912    13391712.59849  10431564.56549  22952485.2284   22952492.0354
  20709400.758   -17661328.04549 -13747302.62149  20709402.1954   20709407.8614
  23031334.340   -13683183.56249 -10644884.63549  23031335.9764   23031342.2734
  20247531.295    -6290230.31249  -4896463.67349  20247532.7184   20247537.3814
  23526796.870   -11035524.06649  -8577564.36749  23526798.4994   23526804.3644
  23774983.404    -9192013.82149  -7149075.86849  23774985.0984   23774989.9894
  22648765.072     3764599.99049   2937775.00449  22648766.5074   22648772.6304
 94  4 30  3 49 29.9990000  0  7 20 17 23  6 22 26 16
  22970496.243    13486369.53449  10505323.20549  22970497.6894   22970504.1694
  20700224.419   -17709548.00949 -13784876.59949  20700226.4254   20700231.9914
  23010400.209   -13793196.05549 -10730608.61349  23010401.2374   23010407.8224
  20248581.416    -6284712.47049  -4892164.05249  20248582.6944   20248587.4144
  23512268.342   -11111874.50949  -8637058.20549  23512269.5954   23512275.2124
  23760191.894    -9269739.56749  -7209641.32749  23760194.3184   23760199.8724
  22661622.066     3832165.37049   2990423.35049  22661623.9074   22661630.0824
 94  4 30  3 49 59.9990000  0  7 20 17 23  6 22 26 16
  22988541.946    13581200.14349  10579217.17449  22988543.7434   22988550.0214
  20691103.609   -17757476.11149 -13822223.15049  20691105.7194   20691111.4824
  22989506.749   -13902988.68049 -10816161.26849  22989508.4564   22989514.7784
  20249709.047    -6278784.25349  -4887544.66249  20249710.6654   20249715.4424
  23497815.836   -11187828.56849  -8696243.17149  23497816.5174   23497821.8324
  23745458.013    -9347170.10849  -7269976.78049  23745459.5524   23745464.6584
  22674546.024     3900077.14749   3043341.61249  22674547.0414   22674553.1694
 94  4 30  3 50 29.9990000  0  7 20 17 23  6 22 26 16
  23006620.866    13676200.13649  10653243.12549  23006621.6264   23006628.0794
  20682040.245   -17805111.93149 -13859341.95749  20682041.0064   20682046.6334
  22968654.039   -14012572.99549 -10901551.60049  22968655.4054   22968661.6424
  20250910.929    -6272468.70549  -4882623.45449  20250912.3144   20250917.2534
  23483439.427   -11263377.15149  -8755112.18149  23483439.9734   23483445.6164
  23730778.774    -9424310.43049  -7330086.08149  23730780.6204   23730785.8384
  22687533.613     3968330.96149   3096526.39349  22687535.2344   22687541.3014
 94  4 30  3 50 59.9990000  0  7 20 17 23  6 22 26 16
  23024730.316    13771369.67049  10727401.19049  23024731.7804   23024738.2854
  20673030.047   -17852455.39349 -13896232.95249  20673031.9084   20673037.4394
  22947838.346   -14121959.31449 -10986787.65249  22947839.4674   22947845.8214
  20252187.662    -6265758.31049  -4877394.57849  20252189.3074   20252194.0264
  23469142.053   -11338509.44249  -8813656.81049  23469142.4434   23469148.0804
  23716152.872    -9501165.82349  -7389973.36049  23716155.1804   23716160.6714
  22700586.168     4036924.81449   3149976.13949  22700588.2404   22700594.3904
 94  4 30  3 51 29.9990000  0  7 20 17 23  6 22 26 16
  23042872.168    13866705.95849  10801689.19649  23042873.7204   23042879.8484
  20664074.774   -17899517.45049 -13932904.66749  20664076.2014   20664081.7994
  22927060.605   -14231147.78149 -11071869.53049  22927061.7774   22927068.2334
  20253537.885    -6258661.90349  -4871864.91449  20253539.8114   20253544.5394
  23454926.779   -11413204.55549  -8871860.78049  23454928.5254   23454933.9764
  23701585.382    -9577725.30749  -7449630.06049  23701586.6884   23701592.0734
  22713706.981     4105866.79249   3203697.15649  22713707.3844   22713713.5234
 94  4 30  3 51 59.9990000  0  7 20 17 23  6 22 26 16
  23061043.868    13962201.63949  10876101.39749  23061045.8154   23061052.4144
  20655172.930   -17946296.22449 -13969355.64349  20655174.4234   20655180.0754
  22906316.894   -14340155.50649 -11156810.56949  22906318.0624   22906324.2154
  20254963.579    -6251173.58849  -4866029.86649  20254965.0024   20254969.4204
  23440799.182   -11487451.09249  -8929715.20649  23440800.0124   23440805.2104
  23687070.684    -9653999.75849  -7509064.65949  23687072.0964   23687077.5924
  22726891.112     4175153.06749   3257686.45349  22726892.5854   22726898.1214
 94  4 30  3 52 29.9990000  0  7 20 17 23  6 22 26 16
  23079246.356    14057857.75949  10950638.61549  23079248.4494   23079255.0754
  20646326.119   -17992783.87549 -14005579.77049  20646327.9264   20646333.8284
  22885609.026   -14448977.63849 -11241606.98949  22885609.9214   22885616.0924
  20256466.600    -6243275.45349  -4859875.47649  20256468.0544   20256472.5354
  23426757.868   -11561242.46849  -8987214.95549  23426758.1884   23426763.2864
  23672610.950    -9729987.04549  -7568275.50549  23672611.9384   23672617.7974
  22740142.901     4244796.09549   3311953.74549  22740145.3524   22740150.5524
 94  4 30  3 52 59.9990000  0  7 20 17 23  6 22 26 16
  23097479.838    14153671.16849  11025298.38849  23097481.3774   23097488.1354
  20637535.846   -18038977.35149 -14041574.67149  20637537.6134   20637543.4204
  22864938.023   -14557601.64649 -11326249.01549  22864939.1574   22864945.4574
  20258050.222    -6234949.46149  -4853387.69149  20258052.2484   20258056.8334
  23412801.600   -11634584.56549  -9044364.62749  23412801.5584   23412806.7914
  23658204.026    -9805689.78949  -7627264.61849  23658206.6724   23658211.8764
  22753466.315     4314802.55749   3366504.23549  22753467.1134   22753472.3064
 94  4 30  3 53 29.9990000  0  7 20 17 23  6 22 26 16
  23115741.802    14249638.48449  11100078.09049  23115743.6074   23115749.9374
  20628800.815   -18084876.96749 -14077340.58949  20628803.1514   20628808.8534
  22844307.898   -14666013.64249 -11410725.83849  22844309.0814   22844315.6794
  20259717.229    -6226191.38649  -4846563.21849  20259718.7434   20259723.3664
  23398928.736   -11707483.89649  -9101169.29249  23398929.1314   23398934.2624
  23643853.027    -9881105.80349  -7686030.31349  23643855.2384   23643860.2704
  22766858.735     4385176.58449   3421341.14049  22766858.7864   22766864.1064
 94  4 30  3 53 59.9990000  0  7 20 17 23  6 22 26 16
  23134033.137    14345756.57549  11174975.27849  23134034.5214   23134040.6844
  20620126.558   -18130464.72849 -14112863.49849  20620128.2134   20620133.9514
  22823719.531   -14774203.20149 -11495029.32949  22823721.1114   22823727.7064
  20261468.269    -6216988.99449  -4839392.52349  20261469.8374   20261474.5644
  23385136.982   -11779954.75149  -9157640.07849  23385138.5874   23385143.5144
  23629554.853    -9956237.25849  -7744574.25949  23629557.4674   23629563.1974
  22780316.439     4455904.76849   3476454.01949  22780317.7144   22780323.0694
 94  4 30  3 54 29.9990000  0  7 20 17 23  6 22 26 16
  23152352.629    14442025.73149  11249990.17949  23152353.6494   23152360.2004
  20611514.588   -18175720.23449 -14148127.51949  20611516.2904   20611521.9084
  22803178.260   -14882147.96349 -11579142.07849  22803179.9274   22803186.5584
  20263303.976    -6207342.53149  -4831875.81049  20263305.6844   20263310.3114
  23371427.223   -11852005.61049  -9213783.58949  23371427.5734   23371432.8274
  23615315.295   -10031075.26249  -7802889.55649  23615316.9404   23615322.0094
  22793842.428     4526977.66449   3531835.50049  22793842.7204   22793847.9894
 94  4 30  3 54 59.9990000  0  7 20 17 23  6 22 26 16
  23170699.950    14538442.05949  11325119.76449  23170701.1304   23170707.2814
  20602967.990   -18220633.57549 -14183124.90949  20602969.8044   20602975.4414
  22782681.770   -14989859.86649 -11663073.36449  22782682.8524   22782689.6484
  20265220.875    -6197267.95349  -4824025.50349  20265222.8094   20265227.2764
  23357795.253   -11923639.58649  -9269602.26149  23357796.1404   23357801.2454
  23601129.830   -10105620.80949  -7860976.95749  23601131.3034   23601136.2264
  22807428.657     4598376.72749   3587471.13249  22807429.0434   22807434.7144
 94  4 30  3 55 29.9990000  0  7 20 17 23  6 22 26 16
  23189075.151    14635002.43049  11400361.58249  23189076.3394   23189082.3634
  20594486.239   -18265205.89249 -14217856.56949  20594487.8864   20594493.5164
  22762228.626   -15097339.05249 -11746823.31249  22762230.1574   22762236.6654
  20267216.963    -6186779.92349  -4815853.01649  20267218.6454   20267223.3734
  23344242.811   -11994856.55849  -9325096.00249  23344243.9744   23344248.9664
  23587000.420   -10179865.13749  -7918829.64049  23587002.7964   23587007.9274
  22821074.455     4670086.38949   3643348.79749  22821075.1484   22821080.8174
 94  4 30  3 55 59.9990000  0  7 20 17 23  6 22 26 16
  23207476.714    14731704.73449  11475714.00549  23207477.7654   23207484.4684
  20586071.992   -18309426.88949 -14252314.47449  20586072.7964   20586078.3334
  22741822.107   -15204578.37849 -11830386.35449  22741823.0334   22741829.8124
  20269289.993    -6175885.65449  -4807363.98249  20269291.7874   20269296.6074
  23330772.279   -12065646.40849  -9380256.92249  23330773.0914   23330778.0334
  23572929.117   -10253810.99149  -7976449.75049  23572931.8024   23572936.7304
  22834775.812     4742087.42949   3699453.50449  22834776.6384   22834782.2734
 94  4 30  3 56 29.9990000  0  7 20 17 23  6 22 26 16
  23225905.372    14828546.57049  11551175.14949  23225906.3474   23225912.5304
  20577721.528   -18353305.03549 -14286505.22349  20577723.0324   20577728.5684
  22721460.724   -15311575.45949 -11913760.63449  22721462.1664   22721468.9124
  20271440.719    -6164584.74849  -4798558.08249  20271442.2684   20271447.1444
  23317384.911   -12135993.58349  -9435072.89349  23317386.5904   23317391.5444
  23558916.020   -10327454.72949  -8033834.44249  23558917.5154   23558922.5784
  22848531.775     4814380.81149   3755786.01149  22848533.7814   22848539.2024
 94  4 30  3 56 59.9990000  0  7 20 17 23  6 22 26 16
  23244359.471    14925524.90549  11626742.65649  23244360.4844   23244366.9484
  20569432.812   -18396860.41449 -14320444.46749  20569434.8644   20569440.4654
  22701145.698   -15418330.55949 -11996946.36549  22701147.6514   22701154.1154
  20273668.993    -6152875.39149  -4789433.91249  20273670.3474   20273675.4014
  23304086.107   -12205879.39649  -9489529.36749  23304087.7304   23304092.3574
  23544959.605   -10400795.06249  -8090982.70349  23544961.5124   23544966.9124
  22862343.721     4886967.96049   3812347.42449  22862346.3914   22862352.0984
 94  4 30  3 57 29.9990000  0  7 20 17 23  6 22 26 16
  23262839.051    15022636.60049  11702414.07549  23262840.4074   23262846.7484
  20561204.930   -18440104.01049 -14354140.76049  20561205.8774   20561211.2794
  22680882.169   -15524821.02749 -12079925.88649  22680883.0744   22680889.5584
  20275976.169    -6140749.96749  -4779985.53349  20275977.8814   20275982.7164
  23290878.324   -12275288.24549  -9543614.17949  23290879.5554   23290884.5764
  23531060.431   -10473836.46549  -8147898.03649  23531062.0414   23531067.3694
  22876213.359     4959846.41749   3869135.82949  22876214.6744   22876220.3754
 94  4 30  3 57 59.9990000  0  7 20 17 23  6 22 26 16
  23281343.798    15119879.45749  11778187.69549  23281344.8654   23281351.5994
  20553033.146   -18483042.93549 -14387599.64849  20553034.7054   20553040.1744
  22660667.793   -15631049.61249 -12162701.35049  22660668.6514   22660674.9834
  20278363.513    -6128204.52249  -4770209.87049  20278365.2484   20278370.0934
  23277763.169   -12344212.64349  -9597321.49949  23277763.5954   23277768.7814
  23517218.017   -10546572.66449  -8204575.55149  23517220.7114   23517225.7664
  22890139.386     5033028.08649   3926160.50349  22890140.8374   22890146.4384
 94  4 30  3 58 29.9990000  0  7 20 17 23  6 22 26 16
  23299872.441    15217251.98549  11854062.36649  23299874.3884   23299880.9014
  20544918.305   -18525688.13749 -14420829.66349  20544919.5954   20544924.9484
  22640500.516   -15737028.59249 -12245282.32449  22640501.6314   22640507.6204
  20280830.637    -6115240.29349  -4760107.88049  20280832.1714   20280836.9034
  23264739.574   -12412648.13249  -9650647.84649  23264740.8544   23264745.8484
  23503438.974   -10618986.96849  -8261002.23649  23503440.6854   23503446.2924
  22904128.458     5106531.73649   3983436.07749  22904127.9994   22904133.5324
 94  4 30  3 58 59.9990000  0  7 20 17 23  6 22 26 16
  23318425.902    15314749.44049  11930034.38649  23318427.5294   23318434.0824
  20536858.196   -18568042.90949 -14453833.36349  20536859.7424   20536865.2884
  22620379.050   -15842763.76349 -12327673.31949  22620380.6984   22620387.1374
  20283375.284    -6101867.44849  -4749687.48749  20283376.9414   20283381.6274
  23251807.693   -12480603.60549  -9703600.16449  23251809.5324   23251814.2984
  23489721.192   -10691067.66449  -8317168.96649  23489724.0194   23489729.6734
  22918176.932     5180358.36549   4040963.32249  22918176.7154   22918182.3734
 94  4 30  3 59 29.9990000  0  7 20 17 23  6 22 26 16
  23337003.135    15412369.87949  12006102.23949  23337004.1294   23337010.8974
  20528855.678   -18610096.75549 -14486602.57549  20528857.1124   20528862.6154
  22600305.353   -15948257.22749 -12409875.96649  22600305.9194   22600312.3994
  20285999.640    -6088077.35749  -4738941.96849  20286001.1174   20286005.7624
  23238965.984   -12548091.44949  -9756188.09249  23238966.5714   23238972.0124
  23476069.001   -10762810.86249  -8373072.71349  23476071.5844   23476077.1024
  22932286.119     5254515.16449   4098747.84249  22932288.2464   22932293.9334
 94  4 30  3 59 59.9990000  0  7 20 17 23  6 22 26 16
  23355601.744    15510109.90849  12082263.26649  23355603.4364   23355610.1704
  20520908.020   -18651855.50249 -14519141.84249  20520910.5444   20520916.1404
  22580274.425   -16053516.64649 -12491896.24149  22580275.7674   22580282.1464
  20288706.076    -6073854.44749  -4727859.18549  20288707.6084   20288712.4664
  23226209.335   -12615123.15249  -9808420.58249  23226211.1184   23226216.1284
  23462487.225   -10834187.88949  -8428691.13149  23462489.0324   23462494.2754
  22946462.361     5329006.74649   4156793.22949  22946463.4644   22946469.1404
 94  4 30  4  0 29.9990000  0  7 20 17 23  6 22 26 16
  23374222.974    15607965.54249  12158514.39449  23374224.5714   23374231.3464
  20513018.829   -18693316.53549 -14551449.12549  20513020.7884   20513026.5814
  22560291.084   -16158531.81749 -12573726.19349  22560292.0904   22560298.4464
  20291497.654    -6059183.44149  -4716427.23749  20291499.4424   20291504.2674
  23213539.746   -12681705.18049  -9860302.68149  23213540.9224   23213546.3354
  23448972.741   -10905201.49649  -8484026.36649  23448975.6544   23448980.3894
  22960696.760     5403810.56749   4215081.92049  22960698.2434   22960703.6664
 94  4 30  4  0 59.9990000  0  7 20 17 23  6 22 26 16
  23392867.007    15705934.93649  12234854.15749  23392867.5624   23392874.1124
  20505186.574   -18734474.74549 -14583520.44549  20505188.6974   20505194.4194
  22540358.420   -16263278.16649 -12655346.68249  22540359.0114   22540365.4284
  20294376.516    -6044055.34549  -4704639.12049  20294378.3894   20294383.0004
  23200953.565   -12747846.16449  -9911841.11549  23200954.6264   23200960.1524
  23435527.337   -10975864.04649  -8539088.05449  23435529.3994   23435534.2174
  22974986.673     5478912.28249   4273602.73549  22974989.6654   22974995.1314
 94  4 30  4  1 29.9990000  0  7 20 17 23  6 22 26 16
  23411531.130    15804015.32349  12311280.42249  23411531.7214   23411538.2224
  20497412.578   -18775331.27149 -14615356.68449  20497413.9834   20497419.5204
  22520479.767   -16367736.14349 -12736742.45649  22520481.6814   22520487.9044
  20297343.543    -6028462.34349  -4692488.72849  20297345.5574   20297350.3524
  23188451.756   -12813547.98449  -9963037.33749  23188452.3124   23188457.5514
  23422146.585   -11046183.54749  -8593882.43149  23422147.6514   23422152.4354
  22989335.376     5554303.82049   4332349.38449  22989336.1004   22989341.7724
 94  4 30  4  1 59.9990000  0  7 20 17 23  6 22 26 16
  23430215.124    15902205.16049  12387791.97149  23430216.7294   23430223.7784
  20489695.095   -18815884.80449 -14646956.82449  20489696.9054   20489702.4734
  22500657.394   -16471907.21949 -12817914.67549  22500658.5134   22500664.6204
  20300397.212    -6012416.83249  -4679985.74049  20300398.8494   20300403.5714
  23176033.900   -12878799.41549 -10013882.60849  23176035.2764   23176040.5554
  23408831.331   -11116152.10949  -8648403.35149  23408832.9304   23408838.1564
  23003735.800     5629974.86049   4391313.82549  23003735.8524   23003741.4994
 94  4 30  4  2 29.9990000  0  7 20 17 23  6 22 26 16
  23448919.774    16000502.02749  12464386.92349  23448922.2804   23448928.4664
  20482037.984   -18856123.21849 -14678311.41149  20482039.6014   20482045.3994
  22480888.894   -16575790.19549 -12898862.39149  22480890.1144   22480896.3744
  20303532.993    -5995938.99149  -4667145.87049  20303534.4064   20303539.2534
  23163704.975   -12943591.45549 -10064369.91549  23163705.6674   23163711.1094
  23395578.864   -11185793.13949  -8702669.04749  23395580.5834   23395585.5694
  23018188.291     5705926.05749   4450496.57249  23018189.0364   23018194.4434
 94  4 30  4  2 59.9990000  0  7 20 17 23  6 22 26 16
  23467646.951    16098906.68249  12541065.86149  23467648.0074   23467654.8024
  20474441.144   -18896045.34849 -14709419.54449  20474442.8354   20474448.5994
  22461175.145   -16679387.08949 -12979587.19549  22461176.2644   22461182.2504
  20306747.275    -5979048.20249  -4653984.22449  20306748.6634   20306753.2804
  23151465.513   -13007912.44149 -10114490.16649  23151465.7134   23151471.2064
  23382391.408   -11255092.50449  -8756668.51249  23382393.5214   23382398.3034
  23032699.240     5782180.50649   4509915.62449  23032699.9414   23032705.1794
 94  4 30  4  3 29.9990000  0  7 20 17 23  6 22 26 16
  23486390.380    16197409.74949  12617821.47149  23486391.9704   23486399.1154
  20466904.945   -18935651.38149 -14740281.36649  20466906.1424   20466911.6824
  22441509.664   -16782731.27249 -13060115.07749  22441510.7154   22441516.5384
  20310038.916    -5961750.58349  -4640505.56749  20310040.5894   20310045.1514
  23139316.376   -13071755.07549 -10164237.67249  23139316.9414   23139322.4674
  23369270.504   -11324045.00749  -8810397.69249  23369272.0454   23369277.2474
  23047265.819     5858736.04149   4569569.29149  23047267.8354   23047273.1354
 94  4 30  4  3 59.9990000  0  7 20 17 23  6 22 26 16
  23505153.169    16296007.48549  12694650.84849  23505155.2714   23505161.9384
  20459428.764   -18974936.32549 -14770892.99249  20459430.3084   20459436.0094
  22421886.446   -16885845.28849 -13140463.60349  22421888.2634   22421894.3934
  20313407.405    -5944050.46649  -4626713.27649  20313408.7524   20313413.4174
  23127259.665   -13135113.31749 -10213607.73149  23127260.3004   23127265.7214
  23356217.206   -11392645.96349  -8863852.94749  23356218.2004   23356223.0474
  23061893.745     5935593.80249   4629458.45649  23061893.3104   23061898.9314
 94  4 30  4  4 29.9990000  0  7 20 17 23  6 22 26 16
  23523934.103    16394700.82949  12771554.72749  23523935.7584   23523942.6124
  20452014.842   -19013893.35949 -14801249.10749  20452017.0424   20452022.9344
  22402311.582   -16988713.33749 -13220620.46849  22402313.1654   22402318.9154
  20316853.231    -5925940.78249  -4612601.84449  20316854.7564   20316859.5174
  23115293.830   -13197988.75449 -10262601.57549  23115295.1434   23115301.0834
  23343227.673   -11460893.50449  -8917032.80949  23343230.5924   23343236.0034
  23076576.073     6012758.17349   4689586.53349  23076577.2424   23076582.8374
 94  4 30  4  4 59.9990000  0  7 20 17 23  6 22 26 16
  23542732.183    16493482.54549  12848527.45849  23542732.8484   23542740.1374
  20444663.048   -19052532.56549 -14831357.56949  20444664.2194   20444670.0104
  22382784.273   -17091334.29649 -13300584.80349  22382784.9174   22382790.8034
  20320377.120    -5907422.40049  -4598171.94349  20320378.5384   20320383.4364
  23103419.897   -13260390.27449 -10311226.13749  23103420.2394   23103426.0744
  23330310.756   -11528783.78749  -8969934.28149  23330311.4364   23330316.7164
  23091314.191     6090209.54749   4749938.25249  23091315.8234   23091321.2984
 94  4 30  4  5 29.9990000  0  7 20 17 23  6 22 26 16
  23561546.186    16592354.32849  12925570.38849  23561547.5904   23561554.6834
  20437372.500   -19090842.86249 -14861209.72949  20437374.1844   20437379.6334
  22363304.648   -17193699.16749 -13380349.58049  22363305.3634   22363311.3514
  20323981.581    -5888480.15449  -4583411.76049  20323983.1964   20323988.0984
  23091638.301   -13322301.43149 -10359468.60049  23091639.0494   23091644.9134
  23317457.882   -11596319.11049  -9022559.16749  23317460.1034   23317465.1574
  23106107.074     6167943.05249   4810509.81549  23106108.0234   23106113.4734
 94  4 30  4  5 59.9990000  0  7 20 17 23  6 22 26 16
  23580378.288    16691314.00949  13002681.80149  23580379.6594   23580385.9174
  20430143.636   -19128830.85349 -14890810.74249  20430145.3924   20430150.7844
  22343878.781   -17295779.73049 -13459892.81249  22343880.1414   22343886.3554
  20327665.426    -5869122.49549  -4568327.88049  20327666.9024   20327671.6764
  23079951.411   -13383718.70849 -10407326.22049  23079951.7834   23079957.3734
  23304672.970   -11663494.42749  -9074903.52849  23304676.8084   23304681.9554
  23120949.739     6245945.63349   4871291.04849  23120951.2714   23120956.6424
 94  4 30  4  6 29.9990000  0  7 20 17 23  6 22 26 16
  23599225.678    16790358.74549  13079859.49549  23599226.8314   23599233.4204
  20422975.314   -19166502.82149 -14920165.50849  20422976.3914   20422981.9244
  22324511.923   -17397557.45249 -13539200.06349  22324512.3004   22324518.3494
  20331428.055    -5849349.48049  -4552920.34449  20331429.6194   20331434.4594
  23068358.204   -13444641.95749 -10454798.88149  23068358.5004   23068364.0994
  23291958.268   -11730317.69949  -9126973.57149  23291960.8224   23291966.2174
  23135843.136     6324207.18849   4932274.07549  23135844.1564   23135849.6574
 94  4 30  4  6 59.9990000  0  7 20 17 23  6 22 26 16
  23618088.822    16889485.62249  13157101.19849  23618090.0254   23618096.6304
  20415866.751   -19203857.91849 -14949273.35949  20415868.0464   20415873.4604
  22305200.177   -17499036.23149 -13618274.37449  22305201.8144   22305207.8554
  20335271.064    -5829155.16949  -4537184.52749  20335272.5764   20335277.2684
  23056860.872   -13505062.53349 -10501879.85249  23056861.0294   23056866.5004
  23279309.980   -11796790.03349  -9178770.15049  23279312.1464   23279317.0874
  23150785.496     6402727.77249   4993458.94749  23150785.8934   23150791.4394
 94  4 30  4  7 29.9990000  0  7 20 17 23  6 22 26 16
  23636966.891    16988688.91449  13234402.44349  23636968.0574   23636974.6594
  20408818.520   -19240893.62349 -14978132.33149  20408820.3794   20408825.8234
  22285946.305   -17600216.43649 -13697116.03849  22285947.6494   22285953.7974
  20339195.664    -5808529.56549  -4521112.63949  20339197.3914   20339202.1874
  23045457.661   -13564983.89849 -10548571.82249  23045458.7414   23045463.9944
  23266727.685   -11862901.49049  -9230285.53549  23266730.6864   23266736.1064
  23165776.951     6481510.64249   5054848.19549  23165777.7564   23165783.0554
 94  4 30  4  7 59.9990000  0  7 20 17 23  6 22 26 16
  23655858.245    17087966.21649  13311761.37049  23655859.8594   23655866.8304
  20401830.614   -19277617.19649 -15006748.08949  20401832.2244   20401837.5544
  22266749.776   -17701094.82449 -13775722.52749  22266751.1274   22266757.4914
  20343203.758    -5787467.31749  -4504700.50849  20343205.3944   20343210.2274
  23034147.318   -13624423.27949 -10594888.22849  23034147.9504   23034153.3014
  23254218.245   -11928647.88149  -9281516.45149  23254219.7664   23254224.8334
  23180817.190     6560553.04949   5116439.67649  23180818.9064   23180824.5114
 94  4 30  4  8 29.9990000  0  7 20 17 23  6 22 26 16
  23674764.430    17187315.77749  13389176.59949  23674765.5024   23674772.1224
  20394901.225   -19314032.26549 -15035123.45249  20394902.6054   20394907.9904
  22247608.474   -17801683.06649 -13854102.93249  22247609.8174   22247616.1964
  20347297.607    -5765954.29149  -4487937.12049  20347299.0524   20347304.0094
  23022926.457   -13683386.67949 -10640833.73749  23022927.2794   23022932.7124
  23241775.795   -11994030.71549  -9332464.07649  23241777.3304   23241782.8084
  23195911.989     6639865.38449   5178241.49149  23195911.7624   23195917.1694
 94  4 30  4  8 59.9990000  0  7 20 17 23  6 22 26 16
  23693682.868    17286735.12049  13466646.19649  23693684.3634   23693691.0414
  20388030.071   -19350140.02949 -15063259.36249  20388031.5054   20388037.1114
  22228521.822   -17901984.74049 -13932260.04649  22228523.0534   22228529.3134
  20351478.299    -5743984.16849  -4470817.55149  20351479.9954   20351485.0044
  23011797.723   -13741872.03149 -10686406.74249  23011798.2494   23011803.8894
  23229407.633   -12059031.24649  -9383113.81449  23229408.5484   23229413.4924
  23211054.105     6719449.85949   5240255.36249  23211056.1734   23211061.9954
 94  4 30  4  9 29.9990000  0  7 20 17 23  6 22 26 16
  23712614.516    17386221.30049  13544167.87049  23712615.9824   23712622.6104
  20381215.626   -19385948.64249 -15091162.16549  20381217.2644   20381222.7474
  22209490.271   -18001995.35249 -14010190.35349  22209491.7774   22209498.0154
  20355746.744    -5721554.22149  -4453339.67849  20355748.2694   20355753.0594
  23000759.330   -13799875.82049 -10731604.49849  23000760.7124   23000765.9534
  23217113.003   -12123637.16249  -9433456.04349  23217114.1284   23217119.2374
  23226251.619     6799302.52949   5302478.21449  23226252.0414   23226256.8864
 94  4 30  4  9 59.9990000  0  7 20 17 23  6 22 26 16
  23731559.761    17485776.26649  13621743.14249  23731560.5904   23731567.1624
  20374458.367   -19421458.57149 -15118832.22649  20374459.8054   20374465.5424
  22190514.898   -18101712.09849 -14087891.68249  22190516.2324   22190522.5144
  20360101.100    -5698671.69849  -4435509.14849  20360102.6114   20360107.6684
  22989816.316   -13857383.29549 -10776415.52149  22989817.2194   22989822.5764
  23204893.464   -12187851.12849  -9483492.86049  23204894.8294   23204900.1104
  23241495.661     6879419.02749   5364906.65249  23241497.1454   23241502.7224
 94  4 30  4 10 29.9990000  0  7 20 17 23  6 22 26 16
  23750516.159    17585391.30649  13699365.23149  23750516.7154   23750523.8884
  20367757.818   -19456669.44449 -15146269.25349  20367759.5064   20367765.0824
  22171593.532   -18201145.47549 -14165372.20249  22171594.6324   22171600.6564
  20364539.084    -5675347.19849  -4417334.21949  20364541.2614   20364546.1434
  22978966.989   -13914395.53549 -10820840.64649  22978968.0474   22978973.4664
  23192749.085   -12251671.78449  -9533223.20149  23192750.4274   23192755.1064
  23256789.154     6959784.90049   5427529.40949  23256790.3124   23256795.5964
 94  4 30  4 10 59.9990000  0  7 20 17 23  6 22 26 16
  23769483.678    17685068.68649  13777035.89449  23769484.6024   23769491.4854
  20361116.745   -19491565.33449 -15173460.84449  20361119.0314   20361124.5074
  22152728.806   -18300280.97249 -14242620.61549  22152729.9014   22152735.8164
  20369061.771    -5651582.92149  -4398816.60749  20369063.4524   20369068.2744
  22968214.999   -13970899.57049 -10864869.76049  22968215.5194   22968220.9324
  23180681.588   -12315087.52149  -9582638.01649  23180682.6854   23180687.7714
  23272130.575     7040400.63249   5490346.86549  23272131.1014   23272136.7564
 94  4 30  4 11 29.9990000  0  7 20 17 23  6 22 26 16
  23788462.688    17784800.74949  13854749.16249  23788463.1894   23788469.9774
  20354536.435   -19526147.56649 -15200408.02349  20354538.2494   20354543.7574
  22133921.644   -18399115.21149 -14319634.26849  22133922.2214   22133928.1694
  20373665.517    -5627391.37349  -4379966.06049  20373666.8254   20373671.7654
  22957559.496   -14026893.49749 -10908501.38349  22957559.9554   22957565.5954
  23168688.986   -12378102.90349  -9631740.87549  23168691.1894   23168695.8504
  23287517.423     7121262.79249   5553356.34649  23287518.6504   23287523.9444
 94  4 30  4 11 59.9990000  0  7 20 17 23  6 22 26 16
  23807448.882    17884582.90849  13932501.48249  23807450.9014   23807458.0084
  20348016.210   -19560414.92449 -15227109.84649  20348017.6244   20348022.9284
  22115169.830   -18497651.69049 -14396415.89149  22115171.2774   22115177.3274
  20378347.160    -5602788.30249  -4360794.84249  20378348.6114   20378353.6074
  22946998.165   -14082389.67749 -10951745.15149  22946999.6074   22947004.9234
  23156775.575   -12440713.22649  -9680528.11149  23156776.7274   23156781.8614
  23302950.878     7202365.60849   5616553.35149  23302951.9394   23302957.6484
 94  4 30  4 12 29.9990000  0  7 20 17 23  6 22 26 16
  23826448.663    17984419.18149  14010295.95149  23826449.0064   23826456.2934
  20341556.659   -19594354.62649 -15253556.36049  20341558.8934   20341564.3364
  22096477.694   -18595879.82149 -14472957.23849  22096479.0844   22096485.1084
  20383110.243    -5577759.08349  -4341291.56849  20383111.5754   20383116.4554
  22936532.994   -14137383.08649 -10994597.16049  22936534.7154   22936540.1114
  23144941.898   -12502897.85049  -9728983.63449  23144943.8244   23144948.9904
  23318431.497     7283720.65749   5679946.89449  23318433.3714   23318438.5224
 94  4 30  4 12 59.9990000  0  7 20 17 23  6 22 26 16
  23845454.480    18084303.15549  14088127.59849  23845456.6204   23845463.7764
  20335160.004   -19627973.55049 -15279752.91149  20335161.4884   20335166.6714
  22077847.200   -18693785.46649 -14549247.30549  22077848.4024   22077854.3884
  20387954.548    -5552302.13849  -4321454.99649  20387955.9664   20387960.6704
  22926165.046   -14191871.29749 -11037055.50549  22926165.9314   22926171.2134
  23133189.035   -12564660.71249  -9777110.50149  23133190.3984   23133195.8124
  23333961.738     7365326.29849   5743535.70449  23333962.4354   23333968.0784
 94  4 30  4 13 29.9990000  0  7 20 17 23  6 22 26 16
  23864471.557    18184236.94549  14165998.06949  23864473.5754   23864480.2404
  20328823.076   -19661274.32949 -15305701.56049  20328824.7144   20328829.8274
  22059277.924   -18791364.58149 -14625282.94549  22059279.4064   22059285.7034
  20392881.222    -5526411.27149  -4301280.30549  20392882.7524   20392887.7454
  22915894.338   -14245846.34249 -11079113.98449  22915894.7404   22915900.1444
  23121516.740   -12625993.37949  -9824902.15649  23121519.5294   23121524.1674
  23349536.906     7447179.42949   5807317.37049  23349538.6724   23349543.8584
 94  4 30  4 13 59.9990000  0  7 20 17 23  6 22 26 16
  23883496.472    18284212.97049  14243901.45349  23883497.9684   23883505.4064
  20322544.624   -19694262.96249 -15331406.98649  20322546.7614   20322552.2384
  22040767.825   -18888635.99549 -14701078.81249  22040769.1714   22040775.5694
  20397891.064    -5500081.47149  -4280763.58649  20397893.1784   20397898.1014
  22905721.238   -14299306.56049 -11120771.29849  22905721.7314   22905726.8784
  23109925.909   -12686908.08249  -9872368.11849  23109927.6734   23109932.5624
  23365158.322     7529267.34049   5871281.98049  23365159.4744   23365165.2284
 94  4 30  4 14 29.9990000  0  7 20 17 23  6 22 26 16
  23902530.386    18384231.01749  14321837.59049  23902531.1974   23902537.8134
  20316327.748   -19726935.46849 -15356866.07349  20316329.3974   20316334.9784
  22022317.627   -18985595.35549 -14776631.52349  22022318.6584   22022324.4324
  20402987.898    -5473298.25249  -4259893.55249  20402989.6794   20402994.7594
  22895647.885   -14352241.22649 -11162019.09949  22895649.0444   22895654.0494
  23098410.088   -12747421.30549  -9919521.24049  23098411.9044   23098416.9224
  23380823.977     7611594.18149   5935432.77149  23380825.8194   23380831.1434
 94  4 30  4 14 59.9990000  0  7 20 17 23  6 22 26 16
  23921569.409    18484288.48849  14399804.41649  23921571.2374   23921578.5434
  20310168.314   -19759304.71949 -15382088.85649  20310169.7774   20310175.0544
  22003926.254   -19082243.34649 -14851941.61149  22003927.0554   22003932.9224
  20408171.018    -5446061.91449  -4238670.44549  20408172.6984   20408177.6574
  22885674.824   -14404647.30049 -11202855.00649  22885676.3224   22885681.4964
  23086970.124   -12807539.21449  -9966366.32649  23086972.0074   23086977.0724
  23396536.688     7694158.95549   5999768.96249  23396537.5074   23396542.9124
 94  4 30  4 15 29.9990000  0  7 20 17 23  6 22 26 16
  23940616.223    18584380.17449  14477797.92549  23940617.9864   23940625.5544
  20304066.547   -19791368.52649 -15407073.62749  20304068.0904   20304073.4024
  21985588.202   -19178609.71149 -14927032.25249  21985589.2234   21985595.3534
  20413437.193    -5418390.59849  -4217108.39349  20413438.5504   20413443.3734
  22875802.092   -14456531.15249 -11243283.98149  22875802.8744   22875808.3104
  23075604.987   -12867264.63549 -10012905.58649  23075606.6294   23075611.7004
  23412292.051     7776953.70249   6064284.35149  23412292.5964   23412298.3504
 94  4 30  4 15 59.9990000  0  7 20 17 23  6 22 26 16
  23959671.173    18684509.12549  14555820.46749  23959672.2534   23959679.0084
  20298025.704   -19823117.70349 -15431813.23549  20298026.7994   20298032.0374
  21967304.800   -19274686.67849 -15001897.39049  21967306.1974   21967312.2484
  20418785.430    -5390283.21549  -4195206.54349  20418787.0244   20418792.1874
  22866026.403   -14507901.21449 -11283312.60649  22866027.9484   22866032.6334
  23064313.715   -12926601.77649 -10059142.28649  23064315.6054   23064320.0024
  23428092.805     7859987.40549   6128985.94249  23428093.6254   23428099.2104
 94  4 30  4 16 29.9990000  0  7 20 17 23  6 22 26 16
  23978730.466    18784668.96249  14633867.05949  23978731.7354   23978739.0584
  20292042.534   -19854552.72049 -15456308.04549  20292044.7204   20292050.1214
  21949080.030   -19370458.63049 -15076524.85649  21949081.3244   21949087.3034
  20424215.947    -5361744.99749  -4172968.98249  20424217.5364   20424222.7454
  22856344.952   -14558778.41649 -11322957.18949  22856346.0604   22856351.1504
  23053097.395   -12985543.70549 -10105071.03349  23053098.6684   23053104.0124
  23443938.114     7943258.11249   6193872.19849  23443939.3314   23443944.7964
 94  4 30  4 16 59.9990000  0  7 20 17 23  6 22 26 16
  23997795.354    18884857.13749  14711935.73949  23997797.2324   23997804.4864
  20286120.099   -19885675.70749 -15480559.70749  20286122.2204   20286127.7314
  21930915.148   -19465916.53249 -15150907.60149  21930916.1634   21930922.2184
  20429727.074    -5332784.86549  -4150402.65449  20429728.6124   20429733.9074
  22846760.928   -14609148.17849 -11362206.36249  22846761.1064   22846765.8974
  23041959.566   -13044072.25949 -10150677.66849  23041961.2784   23041966.1544
  23459826.215     8026752.95249   6258933.11049  23459827.8944   23459833.5924
 94  4 30  4 17 29.9990000  0  7 20 17 23  6 22 26 16
  24016865.890    18985067.02849  14790021.34249  24016866.8254   24016873.6084
  20280258.834   -19916481.86749 -15504564.49849  20280260.1554   20280265.4984
  21912812.062   -19561049.41849 -15225037.09349  21912813.1034   21912818.9854
  20435316.195    -5303413.27349  -4127515.71249  20435317.7934   20435323.0284
  22837272.998   -14659006.56849 -11401057.05949  22837273.3784   22837278.1494
  23030900.160   -13102186.68849 -10195961.59849  23030902.0704   23030907.0854
  23475754.292     8110454.88449   6324155.38349  23475755.7614   23475761.6404
 94  4 30  4 17 59.9990000  0  7 20 17 23  6 22 26 16
  24035939.023    19085300.13149  14868125.04049  24035940.5274   24035947.1854
  20274455.005   -19946977.78849 -15528327.54549  20274456.7764   20274462.3644
  21894777.984   -19655818.44049 -15298883.06449  21894779.1934   21894785.0774
  20440988.119    -5273608.27649  -4104291.05049  20440989.7314   20440994.5584
  22827883.347   -14708345.99549 -11439503.37049  22827884.3494   22827889.1744
  23019922.831   -13159873.01649 -10240911.95549  23019924.8784   23019930.2134
  23491722.338     8194368.02049   6389542.24749  23491723.8924   23491729.5094
 94  4 30  4 18 29.9990000  0  7 20 17 23  6 22 26 16
  24055017.434    19185554.53149  14946245.33349  24055018.3324   24055024.8424
  20268711.023   -19977163.03849 -15551848.51149  20268712.6194   20268718.0604
  21876814.118   -19750219.34249 -15372442.19849  21876815.3074   21876821.0854
  20446742.965    -5243366.32249  -4080725.90249  20446744.5864   20446749.4184
  22818598.314   -14757141.17049 -11477525.58549  22818598.8824   22818604.0054
  23009032.142   -13217111.45349 -10285513.30249  23009033.4984   23009038.2544
  23507729.068     8278481.83849   6455085.47049  23507730.3664   23507736.1604
 94  4 30  4 18 59.9990000  0  7 20 17 23  6 22 26 16
  24074098.265    19285825.22449  15024378.32749  24074099.1414   24074106.0134
  20263025.164   -20007043.62649 -15575132.07249  20263026.8334   20263032.1764
  21858917.716   -19844263.81949 -15445723.57049  21858918.8994   21858925.1574
  20452580.109    -5212692.12649  -4056823.93249  20452581.6534   20452586.6244
  22809417.273   -14805386.84249 -11515119.61349  22809417.9214   22809423.4504
  22998224.406   -13273904.53549 -10329767.61849  22998225.5354   22998230.8514
  23523773.645     8362795.95349   6520784.78249  23523774.7994   23523780.4774
 94  4 30  4 19 29.9990000  0  7 20 17 23  6 22 26 16
  24093181.713    19386110.40949  15102522.61049  24093182.9274   24093189.5244
  20257397.481   -20036617.49849 -15598176.63549  20257398.8074   20257404.2404
  21841087.835   -19937960.07049 -15518733.61049  21841089.2504   21841095.3754
  20458502.497    -5181569.43849  -4032572.50149  20458504.0254   20458509.0154
  22800336.553   -14853107.76649 -11552304.74649  22800336.9114   22800342.0204
  22987501.423   -13330255.24349 -10373677.23249  22987502.2254   22987506.9954
  23539858.320     8447321.40449   6586648.77249  23539859.2724   23539865.0674
 94  4 30  4 19 59.9990000  0  7 20 17 23  6 22 26 16
  24112268.287    19486408.21049  15180676.72249  24112268.6814   24112275.1844
  20251827.306   -20065885.94849 -15620983.20549  20251829.0624   20251834.7544
  21823322.345   -20031320.12749 -15591481.68549  21823323.7004   21823329.6144
  20464511.227    -5149992.08749  -4007966.78249  20464513.0154   20464518.1454
  22791352.784   -14900308.90649 -11589084.85449  22791354.6284   22791360.1354
  22976861.988   -13386162.23249 -10417241.09249  22976863.3824   22976867.8774
  23555984.577     8532064.06749   6652682.01749  23555985.7274   23555990.9684
 94  4 30  4 20 29.9990000  0  7 20 17 23  6 22 26 16
  24131355.772    19586717.60149  15258839.86049  24131356.9414   24131364.1264
  20246318.223   -20094838.06049 -15643543.27549  20246319.6934   20246325.3344
  21805617.399   -20124360.46549 -15663980.62249  21805618.4884   21805624.4704
  20470605.081    -5117967.35449  -3983012.45449  20470607.0164   20470612.2214
  22782471.166   -14946992.20549 -11625461.45749  22782471.1544   22782476.2814
  22966307.588   -13441624.89649 -10460458.73049  22966309.5364   22966313.9994
  23572151.680     8617022.05949   6718883.04449  23572152.3794   23572158.3244
 94  4 30  4 20 59.9990000  0  7 20 17 23  6 22 26 16
  24150445.985    19687034.33149  15337008.73749  24150446.3284   24150453.4364
  20240867.651   -20123481.41649 -15665862.76249  20240869.1094   20240874.7704
  21787973.724   -20217076.85449 -15736227.12949  21787975.1414   21787981.0534
  20476784.957    -5085494.52949  -3957708.96749  20476786.5184   20476791.5934
  22773682.146   -14993174.84649 -11661447.93249  22773682.9794   22773688.3654
  22955836.780   -13496651.26349 -10503336.38749  22955838.1754   22955843.1244
  23588358.718     8702195.30649   6785251.80649  23588360.3214   23588365.9094
 94  4 30  4 21 29.9990000  0  7 20 17 23  6 22 26 16
  24169535.037    19787355.28049  15415180.87149  24169536.6624   24169543.6644
  20235475.034   -20151820.23149 -15687944.94949  20235476.5664   20235481.9004
  21770395.041   -20309455.88049 -15808210.75549  21770395.8334   21770401.9194
  20483047.970    -5052580.87849  -3932061.98249  20483049.8514   20483054.7694
  22764990.020   -15038848.55849 -11697037.84149  22764991.7474   22764996.9144
  22945448.483   -13551238.09849 -10545871.55549  22945450.5724   22945455.4424
  23604604.705     8787566.98049   6851775.18249  23604605.9404   23604611.6524
 94  4 30  4 21 59.9990000  0  7 20 17 23  6 22 26 16
  24188626.506    19887678.46149  15493354.76549  24188627.9524   24188634.6714
  20230139.703   -20179858.31749 -15709792.79649  20230141.1304   20230146.4644
  21752881.326   -20401487.83949 -15879923.94449  21752882.4304   21752888.6914
  20489392.259    -5019241.11749  -3906082.96049  20489393.9014   20489399.2224
  22756399.890   -15083993.47549 -11732215.70949  22756401.1004   22756406.0784
  22935146.083   -13605376.29349 -10588057.13349  22935148.3544   22935153.5544
  23620885.163     8873121.13649   6918440.75849  23620886.1424   23620891.9694
 94  4 30  4 22 29.9990000  0  7 20 17 23  6 22 26 16
  24207717.645    19987999.85449  15571527.26049  24207718.2004   24207725.2124
  20224861.602   -20207591.83449 -15731403.31849  20224863.7394   20224868.8954
  21735434.057   -20493171.75149 -15951365.92549  21735435.8694   21735441.8424
  20495817.609    -4985476.48049  -3879772.86349  20495819.3734   20495824.5634
  22747910.735   -15128603.49749 -11766976.77349  22747911.7994   22747917.2424
  22924930.399   -13659066.51149 -10629893.63449  22924931.8884   22924936.1494
  23637197.151     8958851.32049   6985243.47949  23637200.0584   23637205.9214
 94  4 30  4 22 59.9990000  0  7 20 17 23  6 22 26 16
  24226806.595    20088317.88849  15649697.13649  24226807.6264   24226815.2424
  20219642.877   -20235021.13349 -15752776.78649  20219644.0614   20219649.2754
  21718055.927   -20584500.71749 -16022531.32749  21718056.8284   21718062.5334
  20502323.781    -4951286.76449  -3853131.53849  20502325.3474   20502330.6584
  22739526.731   -15172664.34749 -11801309.90949  22739527.3214   22739532.7974
  22914798.443   -13712312.40249 -10671383.90749  22914799.1704   22914803.9874
  23653547.235     9044760.33249   7052185.56449  23653547.7864   23653553.8774
 94  4 30  4 23 29.9990000  0  7 20 17 23  6 22 26 16
  24245894.292    20188626.40949  15727859.59449  24245896.3304   24245902.8854
  20214481.038   -20262142.49149 -15773910.30349  20214483.0784   20214488.1804
  21700740.867   -20675491.94649 -16093433.55649  21700741.4774   21700747.3204
  20508908.608    -4916686.11349  -3826170.00449  20508910.0204   20508915.0394
  22731244.648   -15216181.61149 -11835219.47549  22731246.1644   22731251.4164
  22904747.995   -13765118.50249 -10712531.48249  22904750.5274   22904755.1274
  23669929.402     9130849.13549   7119267.73849  23669930.4294   23669935.8774
 94  4 30  4 23 59.9990000  0  7 20 17 23  6 22 26 16
  24264980.855    20288924.82749  15806014.19349  24264982.3544   24264989.6694
  20209382.376   -20288939.32949 -15794790.94049  20209383.7124   20209388.9494
  21683486.519   -20766160.95449 -16164084.69749  21683487.7274   21683493.7744
  20515573.176    -4881660.66949  -3798877.46149  20515575.0844   20515580.0764
  22723067.058   -15259159.23849 -11868708.54449  22723067.7924   22723073.1114
  22894784.165   -13817478.07049 -10753331.10049  22894786.8174   22894791.6114
  23686348.806     9217133.40449   7186502.23649  23686349.7324   23686355.2824
 94  4 30  4 24 29.9990000  0  7 20 17 23  6 22 26 16
  24284064.215    20389213.59749  15884161.26349  24284066.3474   24284074.0974
  20204346.878   -20315399.89049 -15815409.55049  20204348.1664   20204353.5714
  21666294.386   -20856504.53049 -16234482.26149  21666295.8324   21666301.8084
  20522321.991    -4846196.32249  -3771242.92149  20522323.6094   20522328.5274
  22714990.387   -15301606.68449 -11901784.48949  22714990.6464   22714995.6884
  22884908.369   -13869382.84949 -10793776.36449  22884909.2404   22884914.2254
  23702807.929     9303630.60449   7253902.64049  23702809.1644   23702815.0534
 94  4 30  4 24 59.9990000  0  7 20 17 23  6 22 26 16
  24303145.415    20489488.89149  15962297.84549  24303148.0834   24303155.2774
  20199372.557   -20341538.10449 -15835776.97649  20199374.4064   20199379.6244
  21649166.091   -20946517.06749 -16304621.86549  21649167.0844   21649173.1194
  20529153.852    -4810292.82549  -3743266.17849  20529155.9464   20529160.8084
  22707011.581   -15343533.39349 -11934454.66949  22707012.1464   22707017.3054
  22875118.023   -13920828.01549 -10833863.48749  22875119.3964   22875124.7854
  23719308.275     9390344.52949   7321471.93049  23719310.5744   23719316.2514
 94  4 30  4 25 29.9990000  0  7 20 17 23  6 22 26 16
  24322225.820    20589746.65949  16040420.77449  24322227.5294   24322233.7984
  20194459.586   -20367355.24049 -15855894.21349  20194461.5644   20194466.8864
  21632101.287   -21036192.92449 -16374499.12449  21632102.2624   21632108.1664
  20536072.445    -4773937.86549  -3714937.65649  20536074.0074   20536078.9974
  22699132.242   -15384936.33649 -11966716.71849  22699133.6994   22699138.6224
  22865416.548   -13971804.83949 -10873585.66449  22865419.0504   22865424.0644
  23735851.192     9477272.21349   7389207.78249  23735852.0404   23735858.2894
 94  4 30  4 25 59.9990000  0  7 20 17 23  6 22 26 16
  24341300.545    20689986.02749  16118529.36849  24341302.0614   24341308.8704
  20189608.181   -20392851.28349 -15875761.24349  20189609.8534   20189615.0934
  21615105.863   -21125503.61049 -16444091.84049  21615106.9764   21615113.0444
  20543079.021    -4737115.36149  -3686244.81049  20543081.0024   20543086.2204
  22691358.088   -15425798.69449 -11998557.53149  22691358.0324   22691363.0564
  22855809.014   -14022297.40449 -10912930.48949  22855810.8574   22855815.8444
  23752434.625     9564409.21949   7457106.74849  23752433.9884   23752439.8444
 94  4 30  4 26 29.9990000  0  8 20 17 23  6 22 26 21 16
  24360371.702    20790201.44649  16196619.31149  24360371.6304   24360379.3524
  20184813.060   -20418047.05049 -15895394.29749  20184815.0874   20184820.4854
  21598183.597   -21214429.14349 -16513384.44249  21598184.7684   21598190.8804
  20550173.689    -4699835.27349  -3657195.40449  20550175.3204   20550180.2264
  22683685.585   -15466112.89849 -12029971.21349  22683686.1564   22683691.5664
  22846291.250   -14072310.12149 -10951901.41149  22846293.8174   22846298.8134
  24828528.208    -5328456.20259  -3851189.03859  24828528.6534   24828536.5314
  23769052.213     9651740.20449   7525156.86249  23769052.3084   23769058.2984
 94  4 30  4 26 59.9990000  0  8 20 17 23  6 22 26 21 16
  24379437.660    20890394.59149  16274691.89349  24379438.4764   24379445.4424
  20180075.480   -20442947.20049 -15914797.00149  20180076.8494   20180082.1774
  21581336.766   -21302962.26449 -16582371.26449  21581337.5214   21581343.6614
  20557352.563    -4662108.97749  -3627798.30049  20557354.4994   20557359.3564
  22676121.577   -15505860.99649 -12060943.78149  22676122.4774   22676127.4294
  22836866.187   -14121835.60949 -10990492.68249  22836869.1664   22836874.5814
  24805970.028    -5447007.62549  -3943566.67749  24805968.5594   24805977.3834
  23785704.272     9739254.85449   7593350.10349  23785705.7964   23785711.6964
 94  4 30  4 27 29.9990000  0  8 20 17 23  6 22 26 21 16
  24398498.822    20990562.43449  16352744.74149  24398500.2334   24398506.3674
  20175393.679   -20467547.83249 -15933966.31649  20175395.4814   20175400.9454
  21564562.497   -21391106.26749 -16651054.87549  21564564.1624   21564570.3124
  20564615.595    -4623942.65349  -3598058.31949  20564617.4084   20564622.2304
  22668663.805   -15545049.03549 -12091479.93649  22668665.2544   22668670.6764
  22827537.787   -14170865.23249 -11028697.55849  22827539.1244   22827544.1384
  24783420.684    -5565491.57749  -4035891.71449  24783421.6954   24783431.4114
  23802389.170     9826932.10549   7661670.03749  23802390.2054   23802395.8524
 94  4 30  4 27 59.9990000  0  8 20 17 23  6 22 26 21 16
  24417554.685    21090699.97549  16430774.01049  24417555.0814   24417562.5214
  20170768.098   -20491856.61949 -15952908.21149  20170769.6164   20170775.1894
  21547862.057   -21478872.35149 -16719444.01049  21547863.0954   21547868.9314
  20571959.169    -4585352.20149  -3567987.85149  20571960.8154   20571965.5814
  22661311.235   -15583693.13749 -12121592.23649  22661311.3624   22661316.9114
  22818301.412   -14219400.99249 -11066517.62049  22818303.1574   22818308.2494
  24760882.607    -5683903.47149  -4128160.58449  24760887.9194   24760897.0174
  23819101.702     9914754.87749   7730103.36949  23819102.4174   23819108.3694
 94  4 30  4 28 29.9990000  0  8 20 17 23  6 22 26 21 16
  24436602.830    21190804.44849  16508777.48549  24436604.2854   24436611.1844
  20166196.359   -20515881.19749 -15971628.66049  20166198.1974   20166203.2484
  21531227.963   -21566285.28349 -16787557.97349  21531229.2014   21531234.6594
  20579380.637    -4546353.11149  -3537598.97449  20579381.9864   20579386.9024
  22654058.973   -15621804.62849 -12151289.52749  22654059.1714   22654064.2704
  22809157.069   -14267456.20849 -11103963.21449  22809158.7224   22809163.7254
  24738363.115    -5802249.94149  -4220378.46949  24738369.3204   24738375.5134
  23835839.905    10002724.41949   7798651.07949  23835841.9894   23835848.1304
 94  4 30  4 28 59.9990000  0  8 20 17 23  6 22 26 21 16
  24455646.963    21290874.12349  16586753.86049  24455647.4324   24455654.8904
  20161681.391   -20539609.20349 -15990118.01249  20161682.8344   20161687.8994
  21514659.176   -21653351.71449 -16855401.93849  21514660.6664   21514666.3254
  20586879.151    -4506944.77949  -3506891.19449  20586881.2134   20586886.0084
  22646905.210   -15659388.79949 -12180575.91349  22646906.7124   22646912.2774
  22800103.708   -14315031.25949 -11141034.65549  22800105.7114   22800110.4984
  24715857.345    -5920534.09949  -4312547.85749  24715858.1974   24715867.5754
  23852608.219    10090843.29649   7867315.14149  23852611.4524   23852616.8244
 94  4 30  4 29 29.9990000  0  8 20 17 23  6 22 26 21 16
  24474681.515    21390908.77949  16664702.95349  24474682.8814   24474689.4704
  20157224.884   -20563029.37649 -16008367.48649  20157226.0354   20157231.1684
  21498157.580   -21740070.91249 -16922975.31849  21498158.6374   21498164.2914
  20594459.366    -4467115.39249  -3475855.32549  20594460.6684   20594465.4364
  22639856.442   -15696436.78249 -12209444.49849  22639857.1424   22639862.5374
  22791139.232   -14362140.22749 -11177742.91749  22791141.1704   22791145.7984
  24693358.453    -6038760.27649  -4404672.01549  24693362.0094   24693369.4414
  23869409.567    10179124.10549   7936105.38949  23869410.2194   23869416.2844
 94  4 30  4 29 59.9990000  0  8 20 17 23  6 22 26 21 16
  24493709.453    21490901.68849  16742619.53149  24493710.7044   24493718.0584
  20152827.930   -20586133.18849 -16026370.44349  20152829.6284   20152834.6834
  21481721.267   -21826442.03449 -16990277.46549  21481722.6314   21481728.6274
  20602116.346    -4426873.86049  -3444498.30049  20602118.1404   20602123.0764
  22632911.370   -15732934.15249 -12237884.02849  22632911.7404   22632917.1464
  22782262.584   -14408792.55049 -11214095.35349  22782263.0854   22782268.2914
  24670871.888    -6156925.58749  -4496748.76849  24670875.2374   24670883.3774
  23886241.644    10267575.50749   8005028.56449  23886241.8654   23886247.6494
 94  4 30  4 30 29.9990000  0  8 20 17 23  6 22 26 21 16
  24512730.116    21590851.68549  16820502.67049  24512730.6774   24512738.6504
  20148492.311   -20608915.52949 -16044122.90349  20148494.2464   20148499.2634
  21465353.048   -21912460.25449 -17057304.62449  21465353.8274   21465359.6494
  20609853.918    -4386214.07849  -3412815.37049  20609855.2314   20609860.4834
  22626072.752   -15768868.98549 -12265885.21649  22626073.4154   22626078.8644
  22773471.413   -14454985.14449 -11250089.55749  22773472.9804   22773477.4274
  24648398.831    -6275032.04349  -4588779.66749  24648399.9114   24648407.4334
  23903105.629    10356198.80949   8074085.70249  23903106.5884   23903111.6874
 94  4 30  4 30 59.9990000  0  8 20 17 23  6 22 26 21 16
  24531739.937    21690756.37149  16898350.48649  24531742.2124   24531748.5424
  20144220.165   -20631366.77649 -16061617.36749  20144221.9594   20144226.9824
  21449052.872   -21998116.55949 -17124049.78049  21449053.9514   21449059.7744
  20617672.485    -4345123.73849  -3380796.93949  20617674.4844   20617679.7244
  22619343.324   -15804235.85749 -12293443.83149  22619343.3774   22619348.4984
  22764769.110   -14500710.17449 -11285719.42949  22764771.7074   22764776.6494
  24625942.312    -6393062.54449  -4680751.40849  24625939.4284   24625947.1094
  23920000.607    10444983.19349   8143268.34349  23920001.8504   23920007.5204
 94  4 30  4 31 29.9990000  0  8 20 17 23  6 22 26 21 16
  24550743.493    21790613.64449  16976161.35249  24550744.2624   24550751.3474
  20140011.033   -20653487.70049 -16078854.44449  20140012.4914   20140017.6084
  21432821.184   -22083412.63749 -17190514.24049  21432822.7344   21432828.4784
  20625575.970    -4303594.07749  -3348436.18349  20625577.4314   20625582.4304
  22612720.914   -15839033.50349 -12320558.89849  22612721.7424   22612726.9164
  22756158.631   -14545966.35049 -11320983.96249  22756159.7414   22756164.5314
  24603496.740    -6510992.32749  -4772644.65649  24603498.7034   24603506.0594
  23936924.291    10533920.71649   8212570.32549  23936926.0604   23936931.5884
 94  4 30  4 31 59.9990000  0  8 20 17 23  6 22 26 21 16
  24569735.804    21890419.36349  17053932.05549  24569736.5424   24569743.5824
  20135863.661   -20675282.44549 -16095837.35149  20135864.9544   20135870.1534
  21416659.009   -22168345.35149 -17256695.55349  21416660.5084   21416666.2294
  20633563.157    -4261621.44849  -3315730.25749  20633564.7214   20633569.6734
  22606202.054   -15873287.25549 -12347250.14749  22606203.4944   22606208.7644
  22747638.701   -14590738.57249 -11355871.38949  22747639.9404   22747644.4934
  24581077.443    -6628816.89249  -4864455.92749  24581077.3774   24581085.1544
  23953874.719    10623000.41949   8281983.08449  23953877.0174   23953882.6804
 94  4 30  4 32 29.9990000  0  7 17 23  6 22 26 21 16
  20131774.881   -20696767.77449 -16112579.15349  20131776.4954   20131781.5034
  21400567.685   -22252908.01749 -17322588.52749  21400568.9394   21400574.6144
  20641636.039    -4219197.07149  -3282672.31149  20641637.9144   20641642.8644
  22599785.735   -15907009.39949 -12373527.16349  22599786.2854   22599791.7384
  22739210.918   -14635022.97349 -11390378.69349  22739212.8794   22739217.5904
  24558675.330    -6746533.46249  -4956183.04749  24558676.7594   24558684.7724
  23970855.022    10712225.43249   8351509.07049  23970856.3004   23970862.2104
 94  4 30  4 32 59.9990000  0  7 17 23  6 22 26 21 16
  20127745.120   -20717945.59849 -16129081.34649  20127746.4234   20127751.3904
  21384550.504   -22337080.10849 -17388177.16149  21384551.6334   21384557.2524
  20649796.199    -4176313.93149  -3249256.89649  20649798.2644   20649803.1514
  22593471.129   -15940197.52249 -12399388.05449  22593470.8144   22593476.3834
  22730877.890   -14678815.93449 -11424503.05749  22730879.2984   22730884.1234
  24536295.753    -6864142.83649  -5047826.64849  24536294.7294   24536303.2774
  23987862.556    10801607.51449   8421157.44849  23987865.0974   23987871.0554
 94  4 30  4 33 29.9990000  0  7 17 23  6 22 26 21 16
  20123773.462   -20738814.40049 -16145342.74149  20123775.0934   20123780.3014
  21368609.247   -22420851.60149 -17453453.63149  21368610.4064   21368615.8704
  20658044.503    -4132971.61249  -3215483.67449  20658046.0004   20658050.9144
  22587256.357   -15972849.55649 -12424831.20549  22587257.3624   22587263.0654
  22722640.469   -14722103.68949 -11458233.75249  22722641.9064   22722647.1464
  24513931.992    -6981658.60849  -5139397.30049  24513933.9164   24513940.4394
  24004905.865    10891157.28549   8490936.48749  24004905.5864   24004911.6694
 94  4 30  4 33 59.9990000  0  7 17 23  6 22 26 21 16
  20119858.206   -20759389.37349 -16161375.18049  20119859.9154   20119865.1194
  21352743.630   -22504225.59149 -17518420.35749  21352744.7024   21352750.4224
  20666376.637    -4089184.73849  -3181364.05349  20666378.4864   20666383.2704
  22581143.800   -16004969.82049 -12449859.99049  22581145.0554   22581150.7574
  22714500.366   -14764875.57349 -11491562.47049  22714502.5924   22714507.4094
  24491584.416    -7099107.08749  -5230915.51549  24491584.3444   24491590.5054
  24021974.755    10980869.74649   8560842.30149  24021977.6564   24021983.3114
 94  4 30  4 34 29.9990000  0  7 17 23  6 22 26 21 16
  20115998.312   -20779675.49849 -16177182.54349  20115999.5514   20116004.5424
  21336953.098   -22587203.01049 -17583078.06049  21336954.6624   21336960.3364
  20674793.061    -4044957.06749  -3146900.95049  20674794.9034   20674799.5574
  22575138.657   -16036530.02749 -12474452.36449  22575139.7534   22575144.9124
  22706459.010   -14807129.56949 -11524487.63949  22706461.5744   22706466.4654
  24469246.060    -7216491.24949  -5322383.62349  24469245.8424   24469252.6504
  24039079.860    11070744.06249   8630874.23249  24039079.8404   24039085.7464
 94  4 30  4 34 59.9990000  0  7 17 23  6 22 26 21 16
  20112193.168   -20799669.30849 -16192762.12749  20112194.9764   20112199.8574
  21321236.110   -22669795.77349 -17647436.03249  21321237.7434   21321243.5564
  20683293.090    -4000290.05349  -3112095.50149  20683294.6704   20683299.6244
  22569238.954   -16067531.04649 -12498609.00949  22569240.2114   22569245.8364
  22698516.741   -14848870.37549 -11557012.92449  22698518.5974   22698523.9054
  24446923.501    -7333808.07549  -5413799.24749  24446921.2334   24446928.9834
  24056211.993    11160772.26449   8701026.06749  24056211.8884   24056217.9304
 94  4 30  4 35 29.9990000  0  7 17 23  6 22 26 21 16
  20108443.900   -20819371.35949 -16208114.37049  20108445.8124   20108450.6594
  21305590.175   -22752016.81049 -17711504.35349  21305591.6084   21305597.3004
  20691873.897    -3955196.63449  -3076957.78949  20691875.5374   20691880.4574
  22563444.317   -16097983.88349 -12522338.48849  22563445.3504   22563450.8374
  22690672.974   -14890089.25949 -11589131.51549  22690674.9864   22690680.0374
  24424611.284    -7451039.71549  -5505148.49149  24424613.2094   24424620.3174
  24073369.557    11250944.75149   8771290.33249  24073371.0384   24073377.4444
 94  4 30  4 35 59.9990000  0  7 17 23  6 22 26 21 16
  20104750.096   -20838784.48649 -16223241.47549  20104751.6234   20104756.4544
  21290016.676   -22833857.72949 -17775276.47749  21290017.7534   21290023.7064
  20700534.332    -3909682.69249  -3041492.39749  20700536.5024   20700541.3324
  22557755.335   -16127882.06949 -12545635.77349  22557755.9584   22557761.3964
  22682926.133   -14930796.28049 -11620851.25749  22682928.4274   22682933.9594
  24402321.400    -7568169.76149  -5596418.57349  24402324.1524   24402330.6564
  24090553.078    11341251.01049   8841658.83149  24090555.8824   24090561.5864
 94  4 30  4 36 29.9990000  0  7 17 23  6 22 26 21 16
  20101112.304   -20857899.93749 -16238136.62549  20101114.1284   20101118.9524
  21274515.303   -22915314.46449 -17838749.23349  21274516.7494   21274522.6804
  20709276.127    -3863750.93349  -3005701.42949  20709277.1934   20709281.9574
  22552169.797   -16157231.19049 -12568505.21849  22552170.8334   22552176.1174
  22675275.073   -14971004.09849 -11652182.00849  22675277.5954   22675282.7344
  24380055.192    -7685184.42949  -5687598.76249  24380057.1614   24380063.6984
  24107765.170    11431690.01649   8912130.77349  24107766.0914   24107772.0134
 94  4 30  4 36 59.9990000  0  7 17 23  6 22 26 21 16
  20097533.320   -20876708.12649 -16252792.34949  20097535.0624   20097539.9714
  21259089.657   -22996377.81149 -17901915.45249  21259090.9594   21259096.8884
  20718095.089    -3817404.13849  -2969587.05849  20718096.7214   20718101.6184
  22546686.671   -16186050.59649 -12590961.90049  22546686.7164   22546692.0204
  22667719.039   -15010714.99549 -11683125.54249  22667720.7144   22667726.1594
  24357811.428    -7802080.31449  -5778686.38149  24357812.6834   24357819.3684
  24124995.067    11522241.45749   8982690.32549  24124996.8624   24125002.9024
 94  4 30  4 37 29.9990000  0  7 17 23  6 22 26 21 16
  20094015.150   -20895198.18849 -16267200.18249  20094016.4064   20094021.3654
  21243740.605   -23077038.44449 -17964767.87149  21243741.7174   21243747.4574
  20726990.418    -3770656.93849  -2933160.68349  20726992.3244   20726997.5534
  22541306.769   -16214330.09149 -12612997.87349  22541305.4744   22541310.7374
  22660257.914   -15049925.30349 -11713679.00049  22660259.2674   22660264.2344
  24335586.188    -7918870.10749  -5869691.33949  24335587.7604   24335595.1004
  24142246.498    11612893.03549   9053327.91849  24142247.6164   24142253.4254
 94  4 30  4 37 59.9990000  0  7 17 23  6 22 26 21 16
  20090559.342   -20913358.01349 -16281350.68449  20090560.7974   20090565.5584
  21228468.292   -23157294.87849 -18027305.32849  21228469.4954   21228475.1884
  20735965.505    -3723493.00449  -2896409.58449  20735967.0904   20735972.2134
  22536028.575   -16242049.64249 -12634597.52349  22536030.3694   22536035.5824
  22652891.946   -15088632.30149 -11743840.28149  22652893.4334   22652898.3794
  24313382.453    -8035556.48849  -5960615.72049  24313384.1264   24313389.9764
  24159512.986    11703638.50749   9124038.65949  24159515.7504   24159521.4414
 94  4 30  4 38 29.9990000  0  7 17 23  6 22 26 21 16
  20087167.048   -20931183.22049 -16295240.44549  20087168.7924   20087173.4844
  21213272.979   -23237146.77849 -18089527.56549  21213274.3464   21213279.8874
  20745022.869    -3675899.01849  -2859323.37649  20745024.2194   20745029.1614
  22530859.791   -16269216.73649 -12655766.68749  22530860.4944   22530865.9584
  22645625.267   -15126818.89749 -11773596.04549  22645627.5264   22645631.8224
  24291196.259    -8152138.34349  -6051458.65649  24291198.7814   24291205.9514
  24176801.781    11794483.92749   9194827.27449  24176802.9284   24176809.1764
 94  4 30  4 38 59.9990000  0  7 17 23  6 22 26 21 16
  20083836.935   -20948682.79049 -16308876.46649  20083838.5334   20083843.4104
  21198154.375   -23316596.18649 -18151436.16949  21198155.7014   21198161.1054
  20754161.197    -3627874.08149  -2821901.36749  20754163.0774   20754168.1484
  22525799.332   -16295811.50449 -12676489.88649  22525799.6674   22525805.3294
  22638459.462   -15164483.54349 -11802945.10249  22638459.6704   22638464.7784
  24269029.624    -8268620.08949  -6142223.58549  24269032.4254   24269039.8104
  24194111.163    11885423.91949   9265689.60049  24194109.2394   24194114.2154
 94  4 30  4 39 29.9990000  0  7 17 23  6 22 26 21 16
  20080565.743   -20965872.83049 -16322271.29549  20080567.5524   20080572.3594
  21183110.229   -23395652.63649 -18213038.56949  21183111.6454   21183116.9974
  20763381.392    -3579420.52549  -2784145.36049  20763383.5284   20763388.5284
  22520850.783   -16321819.58649 -12696755.92549  22520850.3794   22520856.2374
  22631389.250   -15201628.11249 -11831888.89849  22631391.6964   22631396.1074
  24246883.802    -8385002.32049  -6232910.96649  24246885.8884   24246892.6854
  24211434.277    11976477.22249   9336640.21349  24211435.1154   24211441.2554
 94  4 30  4 39 59.9990000  0  7 17 23  6 22 26 21 16
  20077352.097   -20982761.56249 -16335431.34049  20077353.7504   20077358.5404
  21168144.536   -23474299.58749 -18274321.88349  21168145.6534   21168151.1964
  20772687.953    -3530516.09249  -2746038.02849  20772689.6204   20772694.7204
  22516012.092   -16347246.31749 -12716568.96149  22516012.0674   22516017.5904
  22624421.364   -15238248.34149 -11860424.12549  22624422.8914   22624427.5224
  24224759.480    -8501270.30049  -6323509.33149  24224760.0774   24224767.8714
  24228787.134    12067657.67949   9407689.89749  24228786.4294   24228792.5884
 94  4 30  4 40 29.9990000  0  7 17 23  6 22 26 21 16
  20074196.699   -20999343.55149 -16348352.36549  20074198.4314   20074203.0884
  21153258.183   -23552528.95249 -18335279.80449  21153259.0444   21153264.6444
  20782078.347    -3481168.49249  -2707585.37249  20782080.0444   20782085.1344
  22511282.019   -16372094.54949 -12735931.22349  22511283.5044   22511288.9034
  22617550.283   -15274354.39649 -11888558.69049  22617552.1124   22617556.6474
  24202655.337    -8617417.28249  -6414013.39049  24202658.7364   24202665.7654
  24246163.381    12158983.64449   9478852.98549  24246165.2434   24246170.9094
 94  4 30  4 40 59.9990000  0  7 17 23  6 22 26 21 16
  20071096.580   -21015636.74549 -16361048.35649  20071097.8684   20071102.4904
  21138446.373   -23630362.38649 -18395929.20849  21138447.7254   21138453.5614
  20791548.051    -3431404.22149  -2668808.03349  20791549.8044   20791554.7804
  22506663.337   -16396368.53649 -12754846.02349  22506664.2484   22506669.9924
  22610772.093   -15309973.34949 -11916313.69449  22610774.1214   22610778.5254
  24180573.948    -8733460.90949  -6504436.93049  24180575.8324   24180583.1064
  24263567.829    12250438.42049   9550116.43349  24263568.2384   24263574.0064
 94  4 30  4 41 29.9990000  0  7 17 23  6 22 26 21 16
  20068052.203   -21031632.50949 -16373512.58149  20068053.7624   20068058.6494
  21123711.434   -23707791.87949 -18456263.86049  21123713.2134   21123719.0214
  20801097.599    -3381218.42449  -2629702.23449  20801099.9504   20801104.9564
  22502149.934   -16420091.94549 -12773331.79449  22502150.0594   22502155.6204
  22604087.288   -15345104.74049 -11943688.77649  22604088.6244   22604093.1934
  24158511.905    -8849401.90649  -6594780.49349  24158513.3804   24158520.3224
  24280994.202    12342025.82249   9621483.23849  24280997.5674   24281003.2374
 94  4 30  4 41 59.9990000  0  7 17 23  6 22 26 21 16
  20065067.277   -21047318.31449 -16385735.27949  20065068.7434   20065073.7734
  21109053.260   -23784826.89949 -18516291.13049  21109053.9914   21109059.8184
  20810729.104    -3330609.13849  -2590266.43849  20810730.5704   20810735.4954
  22497738.423   -16443277.17749 -12791398.21649  22497738.1674   22497743.3634
  22597494.321   -15379749.68149 -11970684.81449  22597495.8044   22597499.9634
  24136468.303    -8965235.79949  -6685040.60349  24136470.5494   24136477.9074
  24298447.920    12433734.47249   9692944.51949  24298448.6834   24298454.8284
 94  4 30  4 42 29.9990000  0  7 17 23  6 22 26 21 16
  20062140.388   -21062697.39349 -16397718.96949  20062142.0864   20062147.2464
  21094464.878   -23861485.49149 -18576025.07349  21094466.4074   21094471.9294
  20820437.876    -3279587.65049  -2550509.45649  20820439.6064   20820444.7984
  22493431.038   -16465909.43649 -12809033.74349  22493431.2874   22493436.7334
  22590995.508   -15413897.90849 -11997293.79749  22590997.8664   22591002.2684
  24114448.478    -9080963.63849  -6775218.07549  24114448.1484   24114455.3464
  24315920.095    12525563.92049   9764499.91949  24315923.3284   24315928.9844
 94  4 30  4 42 59.9990000  0  7 17 23  6 22 26 21 16
  20059270.543   -21077780.05849 -16409471.68849  20059272.2294   20059277.0724
  21079950.524   -23937760.66049 -18635460.25149  21079951.6854   21079957.2614
  20830226.330    -3228148.78649  -2510427.24349  20830228.2154   20830233.4554
  22489228.511   -16487986.17349 -12826236.39849  22489230.1824   22489235.6464
  22584598.370   -15447519.04849 -12023492.06749  22584599.7304   22584604.6184
  24092442.167    -9196591.88249  -6865317.93549  24092444.6134   24092452.1504
  24333418.647    12617504.37249   9836141.83749  24333418.7044   24333424.5064
 94  4 30  4 43 29.9990000  0  7 17 23  6 22 26 21 16
  20056458.901   -21092553.53649 -16420983.47549  20056461.0284   20056465.8674
  21065510.124   -24013646.06949 -18694591.71749  21065511.2784   21065516.7724
  20840096.213    -3176282.76949  -2470012.18449  20840098.0404   20840103.0794
  22485132.085   -16509512.02949 -12843009.79649  22485134.1434   22485139.3854
  22578305.469   -15480585.36149 -12049258.00349  22578306.9954   22578312.0274
  24070463.424    -9312100.17749  -6955324.33649  24070464.0544   24070471.2864
  24350933.697    12709556.81149   9907871.00949  24350935.7124   24350941.5544
 94  4 30  4 43 59.9990000  0  7 17 23  6 22 26 21 16
  20053704.780   -21107028.49249 -16432262.65549  20053706.5114   20053711.3394
  21051140.988   -24089156.92949 -18753431.32849  21051142.0434   21051147.5304
  20850043.729    -3124008.04149  -2429278.65449  20850045.6124   20850050.8914
  22481140.901   -16530492.08949 -12859357.90849  22481141.6584   22481147.2644
  22572120.064   -15513086.96949 -12074583.90949  22572122.4824   22572127.2744
  24048506.688    -9427488.10249  -7045236.93549  24048507.0654   24048513.9614
  24368470.256    12801704.17949   9979674.15149  24368471.0554   24368476.9784
 94  4 30  4 44 29.9990000  0  7 17 23  6 22 26 21 16
  20051005.954   -21121208.90049 -16443312.31849  20051007.9314   20051012.9224
  21036845.714   -24164275.18049 -18811965.01249  21036847.1844   21036852.8844
  20860068.623    -3071324.80149  -2388226.79949  20860070.6664   20860076.0184
  22477252.283   -16550922.62049 -12875277.80849  22477253.6464   22477259.2354
  22566047.675   -15545007.70949 -12099457.19449  22566047.7814   22566052.6854
  24026569.509    -9542754.77949  -7135055.05549  24026571.7824   24026579.6974
  24386023.194    12893943.46849  10051548.93449  24386023.4704   24386029.1684
 94  4 30  4 44 59.9990000  0  7 17 23  6 22 26 21 16
  20048367.136   -21135079.30149 -16454120.41349  20048368.5104   20048373.5074
  21022629.224   -24238983.12749 -18870178.97549  21022630.7544   21022636.4054
  20870175.247    -3018216.20149  -2346843.48849  20870177.0274   20870182.3504
  22473467.132   -16570818.05949 -12890780.75249  22473467.9094   22473473.5564
  22560079.938   -15576357.44049 -12123885.53249  22560082.4574   22560086.6364
  24004663.392    -9657891.01149  -7224771.52549  24004662.4774   24004669.4534
  24403589.004    12986263.54549  10123486.66349  24403591.2164   24403597.5164
 94  4 30  4 45 29.9990000  0  7 17 23  6 22 26 21 16
  20045785.128   -21148646.44349 -16464692.20749  20045786.8834   20045791.8354
  21008491.035   -24313283.34049 -18928075.22049  21008492.1094   21008497.6214
  20880359.143    -2964700.05049  -2305142.61149  20880360.6784   20880366.0274
  22469781.467   -16590185.08249 -12905871.93949  22469782.6504   22469788.2844
  22554219.580   -15607158.39949 -12147886.26149  22554221.5994   22554225.8624
  23982777.407    -9772889.39549  -7314380.58849  23982779.3474   23982785.5784
  24421173.062    13078665.62949  10195488.29249  24421174.6764   24421180.3144
 94  4 30  4 45 59.9990000  0  7 17 23  6 22 26 21 16
  20043259.895   -21161916.20349 -16475032.27549  20043261.6014   20043266.6344
  20994432.362   -24387160.00149 -18985641.43049  20994433.6954   20994439.0814
  20890621.733    -2910770.42149  -2263119.53849  20890623.4314   20890628.4524
  22466199.157   -16609012.43949 -12920542.61049  22466199.7704   22466205.0714
  22548460.945   -15637419.14449 -12171466.04949  22548462.7644   22548467.5174
  23960920.203    -9887757.35249  -7403888.00849  23960920.2324   23960927.5214
  24438774.932    13171151.26749  10267555.04649  24438774.1094   24438779.8764
 94  4 30  4 46 29.9990000  0  7 17 23  6 22 26 21 16
  20040790.862   -21174890.24849 -16485141.91249  20040792.6644   20040797.6374
  20980457.410   -24460598.64249 -19042866.32149  20980458.6234   20980464.2574
  20900963.646    -2856424.15949  -2220771.81449  20900965.3684   20900970.1634
  22462721.164   -16627288.20549 -12934783.47149  22462722.2224   22462727.8144
  22542803.730   -15667148.91149 -12194632.08149  22542805.7114   22542810.3304
  23939084.781   -10002489.69149  -7493289.77049  23939086.9864   23939094.1804
  24456390.113    13263729.61949  10339694.03649  24456391.4194   24456396.6434
 94  4 30  4 46 59.9990000  0  7 17 23  6 22 26 21 16
  20038380.384   -21187561.00849 -16495015.22349  20038381.7214   20038386.4624
  20966565.829   -24533599.68649 -19099750.22749  20966567.2554   20966572.6044
  20911381.914    -2801673.31449  -2178108.83749  20911383.8054   20911388.9404
  22459348.707   -16645006.28949 -12948589.78049  22459350.3054   22459355.8454
  22537246.488   -15696354.85349 -12217389.94049  22537247.9514   22537252.3944
  23917278.648   -10117084.11349  -7582584.05449  23917280.8694   23917287.6354
  24474025.604    13356411.60449  10411913.78549  24474028.0714   24474033.9444
 94  4 30  4 47 29.9990000  0  6 17 23  6 22 26 21
  20036024.746   -21199937.62049 -16504659.33049  20036026.5754   20036031.2584
  20952755.352   -24606176.92149 -19156303.89649  20952756.3194   20952761.5824
  20921874.285    -2746537.22549  -2135145.67049  20921875.8684   20921881.0494
  22456086.812   -16662156.13249 -12961953.30149  22456086.4604   22456092.1644
  22531788.460   -15725034.10149 -12239737.39149  22531790.1854   22531794.5714
  23895497.712   -10231543.16849  -7671772.86449  23895499.9054   23895506.4924
 94  4 30  4 47 59.9990000  0  6 17 23  6 22 26 21
  20033729.679   -21211998.49949 -16514057.41049  20033731.2864   20033736.0144
  20939025.430   -24678325.25849 -19212523.35649  20939026.9334   20939032.2034
  20932444.578    -2690989.11049  -2091861.44549  20932446.3274   20932451.5054
  22452931.509   -16678725.73849 -12974864.69149  22452933.5494   22452939.0934
  22526432.175   -15753178.82249 -12261668.32549  22526434.5614   22526439.1634
  23873744.955   -10345851.17649  -7760843.96949  23873748.2274   23873753.8484
 94  4 30  4 48 29.9990000  0  6 17 23  6 22 26 21
  20031493.350   -21223750.37549 -16523214.71249  20031495.0684   20031499.7324
  20925373.959   -24750065.08749 -19268424.49949  20925375.2574   20925380.7104
  20943091.809    -2635039.79249  -2048264.59349  20943093.2854   20943098.5584
  22449889.235   -16694718.50849 -12987326.60549  22449890.3924   22449895.8704
  22521176.869   -15780795.57349 -12283187.85849  22521178.9174   22521183.7154
  23852024.627   -10460009.12549  -7849798.15449  23852023.6434   23852030.9524
 94  4 30  4 48 59.9990000  0  6 17 23  6 22 26 21
  20029314.515   -21235200.93049 -16532137.21649  20029316.0794   20029320.7664
  20911798.538   -24821404.05449 -19324013.28449  20911799.8164   20911805.3384
  20953818.162    -2578673.74549  -2004343.01949  20953819.3454   20953824.5034
  22446954.951   -16710136.44449 -12999340.59349  22446956.5084   22446961.7034
  22516023.265   -15807877.28949 -12304290.47849  22516025.6294   22516030.1944
  23830327.941   -10574015.99849  -7938634.62449  23830329.2844   23830335.4084
 94  4 30  4 49 29.9990000  0  6 17 23  6 22 26 21
  20027188.875   -21246370.81749 -16540841.02249  20027190.3984   20027195.3674
  20898299.195   -24892342.56649 -19379290.02749  20898300.6804   20898306.0084
  20964625.701    -2521879.18349  -1960087.53949  20964627.1074   20964632.2404
  22444129.469   -16724986.97849 -13010912.45549  22444130.5614   22444135.7364
  22510970.371   -15834431.93449 -12324982.39349  22510972.5094   22510977.2994
  23808662.897   -10687861.22349  -8027345.12349  23808665.4584   23808672.0394
 94  4 30  4 49 59.9990000  0  6 17 23  6 22 26 21
  20025114.753   -21257269.41749 -16549333.43149  20025116.3564   20025121.4154
  20884875.849   -24962880.90049 -19434254.93849  20884877.5114   20884883.0674
  20975513.920    -2464658.14349  -1915499.73149  20975515.9314   20975521.0564
  22441408.869   -16739284.46149 -13022053.36049  22441409.8334   22441415.3134
  22506019.269   -15860456.01149 -12345260.87349  22506020.4604   22506025.1134
  23787030.061   -10801546.20249  -8115930.76749  23787031.8274   23787037.8864
 94  4 30  4 50 29.9990000  0  6 17 23  6 22 26 21
  20023091.967   -21267899.66449 -16557616.73449  20023093.6024   20023098.5014
  20871531.269   -25033009.17449 -19488900.32649  20871532.5084   20871538.0814
  20986481.539    -2407022.25849  -1870588.67049  20986483.6724   20986488.7244
  22438792.246   -16753035.74249 -13032768.65449  22438793.0454   22438798.5384
  22501167.968   -15885944.29049 -12365121.85649  22501170.2334   22501174.5344
  23765423.356   -10915086.31249  -8204403.53049  23765425.5374   23765432.5154
 94  4 30  4 50 59.9990000  0  6 17 23  6 22 26 21
  20021123.799   -21278242.53449 -16565676.10449  20021125.4324   20021130.2964
  20858269.137   -25102703.49049 -19543207.56549  20858270.1854   20858275.7384
  20997527.795    -2348976.25249  -1825358.03349  20997529.3664   20997534.5424
  22436277.784   -16766241.81349 -13043059.10249  22436279.8914   22436285.4864
  22496418.760   -15910903.47749 -12384570.55449  22496420.0954   22496424.6464
  23743844.391   -11028485.66649  -8292766.60049  23743846.6564   23743852.7904
 94  4 30  4 51 29.9990000  0  6 17 23  6 22 26 21
  20019214.125   -21288276.38049 -16573494.68149  20019215.9204   20019220.9434
  20845089.684   -25171960.31649 -19597173.90349  20845091.1044   20845096.8744
  21008647.210    -2290542.20749  -1779825.03149  21008648.9864   21008654.2914
  22433867.944   -16778910.50549 -13052930.82249  22433869.4934   22433874.6884
  22491768.632   -15935340.58449 -12403612.44149  22491770.1434   22491774.8324
  23722292.201   -11141754.74049  -8381028.17249  23722292.1514   23722298.4834
 94  4 30  4 51 59.9990000  0  6 17 23  6 22 26 21
  20017366.741   -21297984.13549 -16581059.15649  20017368.5364   20017373.5724
  20831994.957   -25240773.96249 -19650794.90249  20831996.1564   20832001.8724
  21019841.055    -2231720.76849  -1733990.16049  21019842.6244   21019847.7584
  22431558.674   -16791042.81049 -13062384.57749  22431560.7114   22431565.7314
  22487220.120   -15959239.69049 -12422235.09949  22487222.3904   22487227.0784
  23700757.988   -11254909.01349  -8469200.28249  23700760.1274   23700765.9284
 94  4 30  4 52 29.9990000  0  6 17 23  6 22 26 21
  20015584.171   -21307351.99749 -16588358.78449  20015585.8034   20015590.7764
  20818985.738   -25309137.35249 -19704065.05649  20818987.0154   20818992.6464
  21031109.851    -2172503.92149  -1687847.18049  21031111.1454   21031116.1004
  22429354.304   -16802626.32349 -13071410.70449  22429356.4024   22429361.6004
  22482774.291   -15982599.20349 -12440437.29549  22482776.9494   22482781.5844
  23679246.453   -11367954.02749  -8557287.25749  23679247.4134   23679254.4364
 94  4 30  4 52 59.9990000  0  6 17 23  6 22 26 21
  20013863.362   -21316396.50549 -16595406.44849  20013864.8534   20013869.9644
  20806056.925   -25377079.03249 -19757006.60249  20806058.1934   20806063.7804
  21042454.656    -2112884.66149  -1641390.62949  21042456.4994   21042461.3304
  22427257.113   -16813661.01749 -13080009.18049  22427256.6964   22427262.2804
  22478432.926   -16005415.99749 -12458216.59449  22478435.2954   22478439.9684
  23657758.046   -11480874.67449  -8645277.33249  23657759.8414   23657765.7494
 94  4 30  4 53 29.9990000  0  6 17 23  6 22 26 21
  20012201.263   -21325128.33949 -16602210.47149  20012203.2434   20012208.2514
  20793206.270   -25444607.13949 -19809625.88749  20793207.9254   20793213.5454
  21053880.477    -2052841.81249  -1594604.01449  21053882.1194   21053887.1334
  22425261.701   -16824144.17049 -13088177.88349  22425261.7884   22425267.2114
  22474200.647   -16027656.14349 -12475546.55749  22474203.1234   22474207.4784
  23636297.096   -11593650.41949  -8733154.49649  23636299.3954   23636305.4074
 94  4 30  4 53 59.9990000  0  6 17 23  6 22 26 21
  20010598.588   -21333552.91549 -16608775.06949  20010600.1574   20010605.0314
  20780436.796   -25511716.06549 -19861918.53149  20780437.6614   20780443.0334
  21065388.710    -1992363.99949  -1547478.45949  21065390.5824   21065395.6664
  22423375.364   -16834054.61049 -13095900.31249  22423375.5724   22423381.1374
  22470082.203   -16049304.03949 -12492415.02649  22470083.6794   22470088.0284
  23614867.601   -11706259.08249  -8820901.45249  23614870.2554   23614876.5124
 94  4 30  4 54 29.9990000  0  6 17 23  6 22 26 21
  20009052.507   -21341675.07149 -16615104.01449  20009054.5004   20009059.4064
  20767744.970   -25578408.87249 -19913886.93049  20767746.3284   20767751.9124
  21076979.024    -1931456.29449  -1500017.93049  21076981.0464   21076985.9264
  22421598.650   -16843386.12049 -13103171.63349  22421599.5784   22421605.1384
  22466075.241   -16070356.43949 -12508819.47349  22466077.5904   22466081.9544
  23593474.685   -11818680.71249  -8908502.67849  23593477.0944   23593483.5724
 94  4 30  4 54 59.9990000  0  6 17 23  6 22 26 21
  20007562.451   -21349507.61049 -16621207.28649  20007564.0934   20007569.0094
  20755135.485   -25644673.17249 -19965521.42649  20755136.6524   20755142.2264
  21088649.875    -1870129.79949  -1452231.06649  21088651.3114   21088656.0614
  22419929.870   -16852151.71849 -13110001.98249  22419931.8284   22419937.4694
  22462182.164   -16090813.84449 -12524760.29349  22462184.5174   22462188.8714
  23572122.032   -11930894.00049  -8995941.56149  23572123.0704   23572130.0574
 94  4 30  4 55 29.9990000  0  6 17 23  6 22 26 21
  20006127.269   -21357047.53249 -16627082.54549  20006129.4054   20006134.4224
  20742610.447   -25710493.54349 -20016810.00749  20742611.4734   20742617.0644
  21100393.922    -1808409.04549  -1404136.98749  21100396.1834   21100401.2724
  22418369.455   -16860358.26049 -13116396.70449  22418370.4684   22418375.6374
  22458400.485   -16110691.55349 -12540249.39849  22458402.0454   22458406.4104
  23550805.040   -12042917.46649  -9083232.53249  23550806.5094   23550812.7714
 94  4 30  4 55 59.9990000  0  6 17 23  6 22 26 21
  20004748.248   -21364295.53149 -16632730.32949  20004750.0594   20004754.9584
  20730169.608   -25775869.88649 -20067752.58949  20730170.6924   20730176.4414
  21112209.787    -1746316.31249  -1355753.05449  21112211.8984   21112217.0754
  22416913.504   -16868008.89049 -13122358.24549  22416914.5504   22416920.0804
  22454722.239   -16130013.26349 -12555305.25549  22454725.0394   22454729.3994
  23529521.185   -12154755.27449  -9170378.82749  23529524.1634   23529529.9454
 94  4 30  4 56 29.9980000  0  6 17 23  6 22 26 21
  20003424.783   -21371252.56449 -16638151.38849  20003426.2364   20003431.1564
  20717812.545   -25840804.74849 -20118351.16049  20717813.9904   20717819.5094
  21124096.946    -1683851.19649  -1307078.95249  21124098.6314   21124104.1134
  22415559.587   -16875122.98649 -13127901.70849  22415560.9424   22415566.1544
  22451150.356   -16148786.72049 -12569933.91349  22451152.1284   22451156.8434
  23508276.049   -12266411.46049  -9257383.60749  23508277.0924   23508283.6434
 94  4 30  4 56 59.9980000  0  7 28 17 23  6 22 26 21
  24407890.205    -5534125.03559  -4283642.49059  24407889.6944   24407893.7864
  20002156.991   -21377912.43049 -16643340.88649  20002158.8694   20002163.7514
  20705538.634   -25905305.37649 -20168611.36549  20705539.9784   20705545.2724
  21136056.195    -1621008.13049  -1258110.34949  21136057.5654   21136062.7144
  22414307.796   -16881699.06549 -13133025.93949  22414309.5244   22414315.1124
  22447680.177   -16167023.76249 -12584144.57349  22447682.2314   22447686.6354
  23487058.204   -12377907.30749  -9344263.44049  23487059.8044   23487066.2494
 94  4 30  4 57 29.9980000  0  7 28 17 23  6 22 26 21
  24385311.840    -5652770.46349  -4376093.44149  24385312.1714   24385316.6594
  20000946.832   -21384273.99749 -16648297.94949  20000948.2544   20000953.1824
  20693344.157   -25969388.22749 -20218546.03349  20693345.2624   20693350.5904
  21148085.590    -1557792.67449  -1208851.56949  21148087.0524   21148092.1134
  22413161.324   -16887734.34249 -13137728.76749  22413161.0084   22413166.6764
  22444310.444   -16184731.07849 -12597942.46649  22444312.5184   22444317.1734
  23465866.344   -12489264.98249  -9431035.60649  23465868.5954   23465875.5614
 94  4 30  4 57 59.9980000  0  7 28 17 23  6 22 26 21
  24362740.463    -5771385.44449  -4468520.68049  24362741.5094   24362744.5214
  19999792.003   -21390341.13349 -16653025.58249  19999793.6604   19999798.5784
  20681227.928   -26033056.99849 -20268158.04349  20681229.5094   20681235.0464
  21160186.417    -1494198.51249  -1159297.69349  21160188.4154   21160193.6774
  22412115.755   -16893227.29549 -13142008.99549  22412115.4294   22412121.1014
  22441043.386   -16201901.08149 -12611321.67349  22441044.9964   22441049.8124
  23444705.124   -12600472.07149  -9517690.44349  23444706.9184   23444713.4714
 94  4 30  4 58 29.9980000  0  7 28 17 23  6 22 26 21
  24340171.302    -5889973.85049  -4560927.19249  24340174.0134   24340179.0904
  19998694.968   -21396104.62649 -16657516.60749  19998696.9544   19998701.7784
  20669192.769   -26096302.49249 -20317440.22149  20669194.3504   20669200.0334
  21172362.607    -1430214.21549  -1109439.80749  21172364.4264   21172369.5914
  22411174.522   -16898166.01049 -13145857.35549  22411175.7694   22411181.6144
  22437880.402   -16218520.88049 -12624272.14949  22437882.5814   22437887.2244
  23423571.883   -12711528.32249  -9604227.75049  23423573.0764   23423580.0254
 94  4 30  4 58 59.9980000  0  7 28 17 23  6 22 26 21
  24317613.594    -6008522.85049  -4653303.02049  24317615.0944   24317619.9574
  19997655.112   -21401571.21649 -16661776.28249  19997656.5624   19997661.4894
  20657239.262   -26159118.39949 -20366387.65449  20657240.7394   20657246.3984
  21184611.555    -1365846.28549  -1059282.98849  21184613.1414   21184618.3014
  22410342.818   -16902539.88649 -13149265.58349  22410343.5424   22410349.1554
  22434822.709   -16234587.46649 -12636791.55649  22434825.3804   22434829.9064
  23402466.456   -12822433.27349  -9690647.14449  23402468.6524   23402475.5124
 94  4 30  4 59 29.9980000  0  7 28 17 23  6 22 26 21
  24295066.624    -6127009.46549  -4745630.23649  24295067.5064   24295072.6154
  19996670.876   -21406743.27149 -16665806.44549  19996672.4084   19996677.3144
  20645368.551   -26221500.09449 -20414996.74249  20645369.9484   20645375.5284
  21196933.602    -1301095.25549  -1008827.65049  21196934.9664   21196939.8594
  22409616.976   -16906350.00149 -13152234.50349  22409618.5204   22409624.1864
  22431871.929   -16250097.21349 -12648877.05649  22431873.8834   22431878.4264
  23381392.575   -12933180.89949  -9776943.94649  23381394.0294   23381401.4014
 94  4 30  4 59 59.9980000  0  7 28 17 23  6 22 26 21
  24272530.523    -6245435.45949  -4837910.21949  24272531.9934   24272536.3594
  19995744.040   -21411612.89849 -16669600.95049  19995745.8824   19995750.7334
  20633581.847   -26283436.37549 -20463258.75249  20633583.6854   20633589.3384
  21209329.826    -1235949.87149   -958065.02249  21209331.5174   21209336.6654
  22409001.195   -16909592.93349 -13154761.46549  22409001.2964   22409006.8774
  22429027.309   -16265044.66749 -12660524.40949  22429029.6994   22429034.3494
  23360352.406   -13043749.87749  -9863101.55249  23360353.5124   23360360.7244
 94  4 30  5  0 29.9980000  0  7 28 17 23  6 22 26 21
  24250006.927    -6363801.72549  -4930143.67349  24250007.2954   24250012.1664
  19994875.420   -21416178.02749 -16673158.18549  19994877.2024   19994882.0104
  20621881.899   -26344924.01349 -20511171.17449  20621882.9644   20621888.4514
  21221803.170    -1170403.39349   -906989.85549  21221804.5104   21221809.8664
  22408489.849   -16912279.13549 -13156854.60949  22408490.5854   22408495.9194
  22426289.891   -16279429.85349 -12671733.63049  22426291.9164   22426296.4914
  23339344.630   -13154143.47449  -9949122.49549  23339346.0704   23339353.3614
 94  4 30  5  0 59.9980000  0  7 28 17 23  6 22 26 21
  24227493.417    -6482108.46749  -5022330.74749  24227495.0284   24227499.3364
  19994062.726   -21420447.66049 -16676485.16549  19994064.4624   19994069.4894
  20610265.891   -26405965.03149 -20558735.57949  20610267.5124   20610272.7864
  21234353.192    -1104450.63549   -855598.10449  21234354.8894   21234360.1634
  22408081.414   -16914419.51549 -13158522.44149  22408083.1504   22408088.5834
  22423658.227   -16293258.75549 -12682509.38449  22423660.1304   22423665.0554
  23318370.853   -13264361.42249 -10035006.56149  23318372.0164   23318379.5224
 94  4 30  5  1 29.9980000  0  7 28 17 23  6 22 26 21
  24204990.618    -6600362.07249  -5114476.42249  24204991.3494   24204995.9714
  19993306.415   -21424423.59449 -16679583.28949  19993307.8764   19993312.9594
  20598733.774   -26466567.64049 -20605958.36649  20598735.0944   20598740.3734
  21246980.486    -1038094.53549   -803892.05849  21246982.0244   21246987.6004
  22407776.439   -16916027.40949 -13159775.34749  22407777.0624   22407782.6574
  22421131.488   -16306542.55549 -12692860.38049  22421132.4594   22421137.1994
  23297430.801   -13374403.37949 -10120753.49749  23297431.7664   23297438.9894
 94  4 30  5  1 59.9980000  0  7 28 17 23  6 22 26 21
  24182496.701    -6718573.12249  -5206588.92049  24182497.0624   24182502.4254
  19992604.565   -21428111.61049 -16682457.05849  19992606.2024   19992611.1944
  20587286.430   -26526724.76949 -20652834.02549  20587287.5784   20587293.0424
  21259683.451     -971341.69849   -751876.86349  21259684.6514   21259690.2624
  22407570.389   -16917103.83049 -13160614.11549  22407572.0604   22407577.7064
  22418707.989   -16319271.15249 -12702778.74949  22418710.2624   22418715.0624
  23276522.801   -13484272.90449 -10206366.07549  23276524.1844   23276531.0954
 94  4 30  5  2 29.9980000  0  7 28 17 23  6 22 26 21
  24160009.595    -6836734.28849  -5298662.55349  24160011.3644   24160015.6644
  19991956.928   -21431516.25049 -16685110.01649  19991958.3014   19991963.3144
  20575922.733   -26586439.90949 -20699365.28249  20575924.2134   20575929.4814
  21272459.115     -904203.62149   -699561.48849  21272460.6954   21272466.1874
  22407468.448   -16917649.38349 -13161039.21949  22407468.0534   22407473.9464
  22416391.842   -16331441.91649 -12712262.45049  22416393.6484   22416399.0564
  23255645.708   -13593981.47449 -10291853.21949  23255647.4434   23255654.3934
 94  4 30  5  2 59.9980000  0  7 28 17 23  6 22 26 21
  24137535.565    -6954842.67849  -5390695.05349  24137536.2604   24137541.4564
  19991362.498   -21434635.30649 -16687540.44349  19991364.7804   19991369.8264
  20564643.912   -26645713.16149 -20745552.21049  20564644.9854   20564650.0704
  21285305.028     -836695.11849   -646957.47149  21285307.2364   21285312.7794
  22407466.093   -16917655.94249 -13161044.33749  22407467.0274   22407473.0624
  22414181.682   -16343057.52449 -12721313.56149  22414183.6804   22414188.6054
  23234799.907   -13703531.76349 -10377217.04649  23234801.1314   23234807.7014
 94  4 30  5  3 29.9980000  0  7 28 17 23  6 22 26 21
  24115072.884    -7072884.18049  -5482675.43449  24115073.9064   24115078.2844
  19990826.288   -21437458.02349 -16689739.95849  19990827.6704   19990832.5494
  20553448.845   -26704541.85049 -20791392.72549  20553450.0394   20553455.4114
  21298222.462     -768819.74349   -594067.57449  21298223.5114   21298228.8244
  22407570.057   -16917114.25449 -13160622.25149  22407569.9324   22407575.9364
  22412079.966   -16354102.91149 -12729920.35149  22412082.1264   22412086.9874
  23213985.211   -13812909.03649 -10462446.05349  23213987.2754   23213994.2894
 94  4 30  5  3 59.9980000  0  7 28 17 23  6 22 26 21
  24092622.080    -7190865.72749  -5574609.08549  24092622.9054   24092627.6884
  19990346.238   -21439981.20049 -16691706.06649  19990347.6654   19990352.3724
  20542338.759   -26762922.96549 -20836884.48249  20542340.2644   20542345.8594
  21311207.740     -700576.97049   -540891.39049  21311209.7934   21311214.7494
  22407776.337   -16916023.81749 -13159772.56949  22407777.4114   22407783.4224
  22410088.217   -16364566.66149 -12738073.91149  22410090.7004   22410095.4424
  23193205.150   -13922109.59949 -10547537.36349  23193207.0754   23193213.9074
 94  4 30  5  4 29.9980000  0  7 28 17 23  6 22 26 21
  24070182.479    -7308782.96849  -5666492.61949  24070183.9244   24070189.2024
  19989922.156   -21442205.90049 -16693439.58749  19989924.0904   19989929.0264
  20531313.718   -26820862.68749 -20882032.28849  20531314.8284   20531320.3154
  21324265.754     -631961.12249   -487424.49949  21324267.1024   21324271.8494
  22408087.063   -16914394.67949 -13158503.10649  22408087.3484   22408093.3744
  22408206.369   -16374456.83449 -12745780.51849  22408208.8704   22408213.5934
  23172463.407   -14031115.46649 -10632476.96149  23172464.1034   23172470.6344
 94  4 30  5  4 59.9980000  0  7 28 17 23  6 22 26 21
  24047754.312    -7426644.85549  -5758333.03349  24047755.1034   24047760.3064
  19989556.914   -21444127.68349 -16694937.07549  19989558.5384   19989563.3794
  20520371.457   -26878362.51549 -20926837.32649  20520372.9454   20520378.3184
  21337395.769     -562961.14549   -433658.29049  21337397.0914   21337402.0904
  22408499.815   -16912225.23849 -13156812.63149  22408500.2114   22408505.9744
  22406434.519   -16383767.89449 -12753035.88049  22406437.0684   22406441.3864
  23151758.166   -14139915.63249 -10717256.27549  23151760.0734   23151766.5594
 94  4 30  5  5 29.9980000  0  7 28 17 23  6 22 26 21
  24025334.954    -7544461.09549  -5850137.85149  24025335.5634   24025340.4894
  19989248.938   -21445747.05149 -16696198.91649  19989250.3974   19989255.2734
  20509512.095   -26935429.35649 -20971304.96749  20509513.2364   20509518.8464
  21350597.351     -493583.63649   -379597.90049  21350599.1604   21350604.4134
  22409014.016   -16909522.42949 -13154706.55349  22409014.7294   22409020.1774
  22404774.576   -16392493.55749 -12759835.07949  22404776.4324   22404781.2364
  23131094.872   -14248504.60749 -10801871.02149  23131095.6884   23131102.6074
 94  4 30  5  5 59.9980000  0  7 28 17 23  6 22 26 21
  24002922.062    -7662239.01149  -5941912.80949  24002923.6824   24002928.2424
  19988996.804   -21447071.92049 -16697231.27649  19988998.3664   19989002.9994
  20498733.789   -26992068.02249 -21015438.96649  20498735.4524   20498740.7854
  21363866.872     -423848.83749   -325259.10249  21363869.1334   21363874.4784
  22409627.312   -16906300.76449 -13152196.17349  22409627.8814   22409633.6034
  22403223.223   -16400644.88849 -12766186.74549  22403225.0954   22403229.9924
  23110468.057   -14356895.51649 -10886331.43649  23110470.0014   23110476.2684
 94  4 30  5  6 29.9980000  0  7 28 17 23  6 22 26 21
  23980520.439    -7779958.34949  -6033642.12349  23980521.8234   23980525.8104
  19988800.654   -21448102.40549 -16698034.24749  19988802.2014   19988807.1624
  20488037.627   -27048277.50649 -21059238.54149  20488039.2124   20488044.3964
  21377205.035     -353761.05649   -270645.25749  21377206.5504   21377211.9254
  22410338.629   -16902557.93649 -13149279.69549  22410339.9304   22410345.6034
  22401781.462   -16408224.39449 -12772092.84449  22401783.5304   22401787.9954
  23089880.439   -14465086.42949 -10970636.00449  23089881.8744   23089888.0394
 94  4 30  5  6 59.9980000  0  7 28 17 23  6 22 26 21
  23958130.328    -7897617.30149  -6125324.38449  23958131.9984   23958137.0574
  19988660.665   -21448836.46449 -16698606.23449  19988662.2524   19988667.3514
  20477423.911   -27104055.31149 -21102701.74149  20477425.0164   20477430.4334
  21390609.022     -283319.49049   -215755.72949  21390611.4044   21390616.6674
  22411151.205   -16898286.87549 -13145951.60949  22411152.7004   22411158.5004
  22400447.962   -16415232.47449 -12777553.67049  22400449.6524   22400454.2684
  23069328.616   -14573084.82949 -11054790.56549  23069330.2174   23069337.0124
 94  4 30  5  7 29.9980000  0  7 28 17 23  6 22 26 21
  23935756.673    -8015191.75149  -6216940.79249  23935758.5294   23935763.4024
  19988576.416   -21449281.17749 -16698952.75549  19988577.8574   19988582.8714
  20466893.350   -27159392.45149 -21145821.56649  20466894.4984   20466900.0184
  21404080.675     -212530.99749   -160595.87249  21404081.8164   21404087.0874
  22412065.272   -16893488.30649 -13142212.48249  22412066.0604   22412071.9384
  22399221.742   -16421671.78149 -12782571.29849  22399224.0534   22399228.8454
  23048814.790   -14680887.00449 -11138792.22449  23048816.4254   23048822.7244
 94  4 30  5  7 59.9980000  0  7 28 17 23  6 22 26 21
  23913403.239    -8132664.55049  -6308477.99749  23913403.9244   23913408.9744
  19988546.176   -21449438.12249 -16699075.04349  19988548.1314   19988552.9664
  20456448.561   -27214278.99249 -21188590.27649  20456449.8834   20456455.6244
  21417618.905     -141379.86649   -105153.44349  21417621.3024   21417626.9514
  22413081.341   -16888154.22749 -13138056.06649  22413081.2564   22413087.0804
  22398104.068   -16427551.26549 -12787152.70049  22398105.2954   22398110.0624
  23028341.176   -14788480.92149 -11222631.58749  23028342.0914   23028348.5814
 94  4 30  5  8 29.9980000  0  7 28 17 23  6 22 26 21
  23891066.096    -8250042.65149  -6399941.41349  23891066.9794   23891072.9054
  19988570.629   -21449309.33349 -16698974.68149  19988572.2584   19988577.0914
  20446089.320   -27268717.66149 -21231009.99549  20446090.6144   20446096.2764
  21431232.197      -69847.40949    -49413.87349  21431233.8604   21431239.2424
  22414198.428   -16882270.95449 -13133471.71449  22414200.7064   22414206.4364
  22397089.713   -16432872.91149 -12791299.42949  22397092.4204   22397097.0164
  23007909.331   -14895849.43049 -11306295.31749  23007910.7084   23007916.4974
 94  4 30  5  8 59.9980000  0  7 28 17 23  6 22 26 21
  23868747.209    -8367330.79949  -6491334.74649  23868748.3844   23868753.4584
  19988650.761   -21448888.52849 -16698646.77349  19988652.5084   19988657.4284
  20435815.173   -27322708.48149 -21273080.73949  20435816.5744   20435822.1484
  21444916.761        2065.20449      6621.91949  21444918.2704   21444923.5774
  22415423.299   -16875841.59449 -13128461.83449  22415424.2174   22415429.7904
  22396183.098   -16437639.90149 -12795013.95749  22396185.7454   22396190.0204
  22987520.390   -15002991.88049 -11389782.90849  22987521.8074   22987527.8764
 94  4 30  5  9 29.9980000  0  7 28 17 23  6 22 26 21
  23846447.573    -8484516.15449  -6582647.97449  23846447.9064   23846453.2144
  19988788.578   -21448162.59949 -16698081.10649  19988790.5994   19988795.6824
  20425627.666   -27376244.32149 -21314796.95649  20425629.3134   20425634.5584
  21458671.764       74349.42549     62947.27649  21458673.5934   21458678.7154
  22416750.202   -16868867.00249 -13123027.10249  22416751.2664   22416757.2894
  22395382.144   -16441850.51349 -12798294.94049  22395384.0074   22395388.8464
  22967175.979   -15109902.65649 -11473089.97449  22967177.5714   22967183.5014
 94  4 30  5  9 59.9980000  0  7 28 17 23  6 22 26 21
  23824164.712    -8601610.61449  -6673890.38449  23824165.8714   23824171.2564
  19988986.274   -21447126.81549 -16697273.99949  19988987.6744   19988992.7264
  20415526.874   -27429326.41449 -21356159.60349  20415527.9764   20415533.1154
  21472500.235      147015.09849    119569.87149  21472501.4234   21472506.2794
  22418180.189   -16861353.68349 -13117172.58549  22418181.4954   22418186.9704
  22394687.353   -16445505.78049 -12801143.19149  22394688.6234   22394693.5114
  22946872.794   -15216593.59349 -11556225.72349  22946874.5414   22946880.9814
 94  4 30  5 10 29.9980000  0  7 28 17 23  6 22 26 21
  23801899.448    -8718613.00249  -6765061.04449  23801900.6774   23801906.2624
  19989242.318   -21445781.59249 -16696225.76149  19989243.7944   19989248.8534
  20405511.612   -27481954.87449 -21397168.76749  20405513.0264   20405518.1734
  21486400.313      220065.28849    176492.09049  21486402.4924   21486407.4924
  22419711.487   -16853309.72749 -13110904.58649  22419712.0584   22419717.8404
  22394100.881   -16448587.91949 -12803544.84649  22394102.0254   22394106.5864
  22926608.072   -15323087.54049 -11639207.97049  22926609.6064   22926615.9114
 94  4 30  5 10 59.9980000  0  7 28 17 23  6 22 26 21
  23779656.263    -8835506.61249  -6856146.94049  23779656.8714   23779662.3764
  19989557.018   -21444125.79349 -16694935.51949  19989558.8694   19989563.8464
  20395586.348   -27534114.97149 -21437812.97949  20395587.4634   20395592.4994
  21500372.126      293489.10549    233705.44649  21500374.4144   21500379.4524
  22421340.948   -16844748.54349 -13104233.55449  22421341.3514   22421346.8244
  22393623.405   -16451089.73549 -12805494.30249  22393625.8294   22393630.2434
  22906375.589   -15429410.72749 -11722057.16649  22906377.3254   22906383.0574
 94  4 30  5 11 29.9980000  0  7 28 17 23  6 22 26 21
  23757430.612    -8952301.61449  -6947156.00549  23757431.8344   23757437.2674
  19989928.567   -21442174.78649 -16693415.24649  19989930.0604   19989935.1854
  20385747.973   -27585813.33849 -21478097.40049  20385749.3564   20385754.4764
  21514415.449      367284.84249    291208.60749  21514417.2164   21514422.3174
  22423068.897   -16835668.25949 -13097158.02849  22423069.1564   22423074.8874
  22393258.674   -16453008.04949 -12806989.07549  22393260.7404   22393265.4614
  22886174.958   -15535566.15949 -11804775.64049  22886176.2524   22886181.8864
 94  4 30  5 11 59.9980000  0  7 28 17 23  6 22 26 21
  23735220.388    -9069013.65649  -7038100.43049  23735222.3034   23735227.2554
  19990353.875   -21439939.42749 -16691673.39849  19990355.3434   19990360.5684
  20375996.238   -27637058.98649 -21518029.05349  20375997.5894   20376002.7744
  21528528.584      441447.89449    348997.99249  21528530.1054   21528535.1414
  22424895.134   -16826069.72149 -13089678.67049  22424895.5354   22424901.4514
  22393004.809   -16454345.76949 -12808031.43949  22393006.5574   22393010.8024
  22866006.336   -15641551.67249 -11887361.71949  22866007.7694   22866013.7714
 94  4 30  5 12 29.9980000  0  7 28 17 23  6 22 26 21
  23713028.030    -9185636.23249  -7128975.14549  23713030.0064   23713034.6454
  19990832.370   -21437422.67849 -16689712.28649  19990834.2284   19990839.4154
  20366329.484   -27687859.41849 -21557613.78449  20366330.7354   20366335.8584
  21542705.771      515949.20449    407050.94549  21542707.1534   21542712.3554
  22426817.603   -16815962.99949 -13081803.31549  22426818.7024   22426824.8304
  22392858.233   -16455116.10149 -12808631.68549  22392859.6364   22392864.0584
  22845874.609   -15747346.31149 -11969799.06049  22845875.8754   22845881.7584
 94  4 30  5 12 59.9980000  0  7 28 17 23  6 22 26 21
  23690852.508    -9302174.25849  -7219783.97349  23690853.5214   23690858.2344
  19991363.961   -21434630.71349 -16687536.72549  19991365.6304   19991370.6464
  20356747.612   -27738212.45149 -21596849.88949  20356748.9484   20356753.9674
  21556945.032      590775.76049    465357.33849  21556946.2234   21556951.6354
  22428839.827   -16805342.45349 -13073527.58349  22428839.7324   22428845.7724
  22392817.257   -16455331.95249 -12808799.87049  22392819.0654   22392823.2684
  22825784.091   -15852922.63249 -12052066.28949  22825785.5804   22825790.6874
 94  4 30  5 13 29.9980000  0  7 28 17 23  6 22 26 21
  23668688.830    -9418637.05149  -7310534.17149  23668690.5864   23668695.6414
  19991948.335   -21431561.64849 -16685145.24249  19991949.7834   19991954.7424
  20347248.764   -27788128.62849 -21635745.58449  20347250.1344   20347255.2294
  21571244.871      665925.38349    523915.46649  21571246.6904   21571252.1504
  22430959.209   -16794202.16649 -13064846.85249  22430959.7184   22430965.5514
  22392878.941   -16455004.34449 -12808544.57249  22392881.1354   22392885.3714
  22805740.719   -15958249.95249 -12134139.49349  22805742.0244   22805747.6564
 94  4 30  5 13 59.9980000  0  7 28 17 23  6 22 26 21
  23646547.115    -9535003.29449  -7401209.12249  23646547.3484   23646552.1684
  19992585.369   -21428212.27449 -16682535.33349  19992586.9914   19992592.0744
  20337834.638   -27837602.70949 -21674296.79249  20337835.6754   20337840.5944
  21585607.041      741394.68349    582722.70649  21585608.2734   21585613.3534
  22433174.995   -16782553.94049 -13055770.31849  22433176.2894   22433182.0284
  22393045.213   -16454128.05549 -12807861.73249  22393047.8404   22393052.0544
  22785744.742   -16063324.92749 -12216016.06549  22785746.6534   22785753.0994
 94  4 30  5 14 29.9980000  0  7 28 17 23  6 22 26 21
  23624425.955    -9651254.32849  -7491794.31049  23624425.6954   23624430.6814
  19993276.106   -21424581.14849 -16679705.87649  19993278.0704   19993283.0154
  20328503.698   -27886633.41549 -21712502.51649  20328505.1014   20328510.4244
  21600030.608      817193.88249    641787.00449  21600032.3784   21600037.4174
  22435488.573   -16770392.90649 -13046294.20149  22435490.3264   22435496.1634
  22393321.222   -16452682.72649 -12806735.48549  22393322.8144   22393327.3744
  22765796.571   -16168151.17149 -12297698.82149  22765798.6334   22765804.3744
 94  4 30  5 14 59.9980000  0  7 28 17 23  6 22 26 21
  23602323.592    -9767394.43149  -7582293.06949  23602324.5354   23602329.3734
  19994022.129   -21420663.85949 -16676653.43649  19994023.4464   19994028.4014
  20319259.145   -27935213.12649 -21750356.81349  20319260.7344   20319266.0804
  21614520.484      893336.20349    701118.67649  21614521.7984   21614526.9874
  22437906.184   -16757698.61849 -13036402.55649  22437905.8834   22437912.0464
  22393706.876   -16450655.90349 -12805156.12549  22393708.7204   22393713.0224
  22745893.038   -16272748.45549 -12379203.16949  22745894.5754   22745900.6814
 94  4 30  5 15 29.9980000  0  7 28 17 23  6 22 26 21
  23580249.411    -9883398.33349  -7672685.68049  23580250.1214   23580254.9864
  19994823.983   -21416447.42049 -16673367.89449  19994825.6974   19994830.6404
  20310099.972   -27983345.35749 -21787862.42549  20310101.2554   20310106.8294
  21629076.466      969830.79149    760724.83649  21629077.9854   21629083.4444
  22440421.835   -16744470.33349 -13026094.80849  22440423.2274   22440429.2304
  22394205.122   -16448036.88349 -12803115.31649  22394206.6674   22394211.2724
  22726031.403   -16377120.88449 -12460532.30449  22726033.1144   22726039.3194
 94  4 30  5 15 59.9980000  0  7 28 17 23  6 22 26 21
  23558201.113    -9999258.33149  -7762966.17349  23558202.5804   23558207.3184
  19995684.161   -21411928.53149 -16669846.67749  19995685.7874   19995690.6194
  20301026.646   -28031025.52549 -21825015.77549  20301028.0484   20301033.3974
  21643700.760     1046683.44949    820610.01649  21643702.7934   21643707.7584
  22443038.517   -16730718.15949 -13015378.83549  22443040.3174   22443046.0324
  22394818.447   -16444808.96549 -12800600.04249  22394820.8344   22394825.6514
  22706210.808   -16481282.58249 -12541697.24849  22706211.8794   22706217.3414
 94  4 30  5 16 29.9980000  0  7 28 17 23  6 22 26 21
  23536180.247   -10114984.39449  -7853142.30849  23536180.7894   23536185.4764
  19996601.303   -21407108.98449 -16666091.17849  19996602.9444   19996607.8414
  20292039.931   -28078251.07249 -21861814.87849  20292041.5044   20292046.7964
  21658393.687     1123892.45849    880772.87249  21658394.9294   21658400.2294
  22445756.463   -16716441.26749 -13004253.98949  22445757.1274   22445762.9634
  22395546.839   -16440986.10649 -12797621.17949  22395548.3174   22395553.2034
  22686428.543   -16585236.12349 -12622699.97249  22686430.4284   22686436.0664
 94  4 30  5 16 59.9980000  0  7 28 17 23  6 22 26 21
  23514183.349   -10230573.95449  -7943212.08149  23514184.8224   23514189.0914
  19997574.522   -21401992.80749 -16662104.54249  19997576.4714   19997581.4394
  20283140.754   -28125017.20249 -21898255.99749  20283142.1514   20283147.5164
  21673150.108     1201443.55249    941202.28449  21673152.4874   21673157.6724
  22448570.482   -16701654.76149 -12992732.04549  22448571.0864   22448576.8304
  22396384.669   -16436584.69149 -12794191.49349  22396386.3104   22396390.8914
  22666687.898   -16688974.11049 -12703534.73149  22666689.4544   22666695.5304
 94  4 30  5 17 29.9980000  0  7 28 17 23  6 22 26 21
  23492215.658   -10346019.24549  -8033169.43149  23492216.4674   23492221.0604
  19998604.040   -21396581.67949 -16657888.07349  19998605.8364   19998610.9954
  20274327.519   -28171330.83449 -21934344.51749  20274329.0294   20274334.3444
  21687971.678     1279329.93449   1001892.95749  21687973.9274   21687979.1354
  22451475.927   -16686385.84949 -12980834.20049  22451476.8604   22451482.6004
  22397331.248   -16431609.64349 -12790314.81949  22397333.2414   22397337.2044
  22646991.461   -16792480.23849 -12784188.81349  22646992.7614   22646999.0884
 94  4 30  5 17 59.9980000  0  7 28 17 23  6 22 26 21
  23470271.392   -10461331.54249  -8123023.15649  23470273.1074   23470277.2214
  19999688.268   -21390884.72049 -16653448.87849  19999689.9834   19999695.2204
  20265599.881   -28217194.68349 -21970082.55849  20265601.3814   20265606.7984
  21702854.480     1357540.12049   1062835.94249  21702856.5804   21702862.1284
  22454470.902   -16670640.56249 -12968565.14749  22454472.5134   22454479.0694
  22398385.147   -16426068.65449 -12785997.15449  22398387.2324   22398391.7574
  22627337.736   -16895762.17749 -12864668.20249  22627338.8894   22627345.2524
 94  4 30  5 18 29.9980000  0  7 28 17 23  6 22 26 21
  23448355.182   -10576505.13049  -8212768.79949  23448356.5234   23448361.0984
  20000824.852   -21384913.03849 -16648795.61449  20000826.3884   20000831.5264
  20256956.797   -28262613.15049 -22005473.54849  20256958.3474   20256963.8044
  21717798.269     1436070.86649   1124028.71749  21717800.4844   21717805.7284
  22457560.017   -16654407.40449 -12955915.93949  22457561.8404   22457567.9834
  22399543.485   -16419983.87249 -12781255.75149  22399545.2914   22399549.4804
  22607726.430   -16998817.67149 -12944971.13949  22607728.1094   22607734.4054
 94  4 30  5 18 59.9980000  0  7 28 17 23  6 22 26 21
  23426464.648   -10691539.59649  -8302406.02649  23426465.9434   23426470.5954
  20002014.378   -21378659.17449 -16643922.46249  20002016.3634   20002021.6344
  20248398.944   -28307588.31149 -22040519.10649  20248400.0194   20248405.3374
  21732805.289     1514931.62849   1185478.65049  21732807.6094   21732812.7974
  22460743.147   -16637681.08149 -12942882.45049  22460745.0944   22460750.9234
  22400804.913   -16413356.47749 -12776091.53549  22400806.4674   22400810.7004
  22588159.164   -17101641.65549 -13025093.68149  22588161.3434   22588167.8544
 94  4 30  5 19 29.9980000  0  7 28 17 23  6 22 26 21
  23404597.436   -10806454.07449  -8391949.77149  23404598.5874   23404602.9474
  20003256.797   -21372128.65049 -16638833.73749  20003259.0554   20003264.4504
  20239922.682   -28352129.68949 -22075226.64949  20239923.9404   20239929.3774
  21747878.339     1594139.88149   1247199.35049  21747880.4144   21747885.8324
  22464023.363   -16620452.06349 -12929457.25049  22464023.5314   22464029.2454
  22402167.630   -16406191.08249 -12770508.09849  22402169.7994   22402174.3394
  22568635.961   -17204245.21849 -13105044.47349  22568636.8264   22568643.0814
 94  4 30  5 19 59.9980000  0  7 28 17 23  6 22 26 21
  23382750.043   -10921258.31449  -8481407.59649  23382751.7044   23382756.7014
  20004551.375   -21365330.82349 -16633536.71949  20004552.6264   20004558.1164
  20231530.444   -28396231.60949 -22109591.75349  20231531.6114   20231536.9184
  21763018.557     1673702.18149   1309195.92949  21763020.5844   21763026.0274
  22467401.276   -16602696.27549 -12915621.58049  22467402.3774   22467408.1034
  22403633.656   -16398491.61049 -12764508.49649  22403635.2654   22403639.4864
  22549149.981   -17306636.60249 -13184829.93149  22549152.2034   22549158.3774
 94  4 30  5 20 29.9980000  0  7 28 17 23  6 22 26 21
  23360925.061   -11035950.15849  -8570777.82649  23360926.5134   23360931.6094
  20005898.072   -21358250.63749 -16628019.68549  20005899.7964   20005905.4174
  20223224.323   -28439879.95549 -22143603.42649  20223225.5634   20223231.0254
  21778228.023     1753631.45549   1371478.46049  21778230.4464   21778236.0054
  22470882.598   -16584407.68649 -12901370.73249  22470882.4674   22470888.5684
  22405199.810   -16390260.26449 -12758094.45349  22405201.2424   22405205.8934
  22529710.278   -17408798.87949 -13264436.86549  22529711.1204   22529717.7654
 94  4 30  5 20 59.9980000  0  7 28 17 23  6 22 26 21
  23339120.530   -11150538.11549  -8660067.11649  23339121.1724   23339126.2584
  20007300.001   -21350884.90049 -16622280.14449  20007301.5504   20007307.0674
  20215004.070   -28483075.51649 -22177262.28249  20215005.6874   20215011.1034
  21793505.241     1833911.27249   1434034.14449  21793506.7674   21793512.6304
  22474461.300   -16565599.70049 -12886715.16749  22474461.7474   22474467.3424
  22406869.227   -16381485.55849 -12751257.00249  22406871.1324   22406875.4964
  22510312.369   -17510734.36149 -13343867.06349  22510313.5234   22510319.8994
 94  4 30  5 21 29.9980000  0  7 28 17 23  6 22 26 21
  23317335.916   -11265015.68449  -8749270.37549  23317337.0684   23317341.6454
  20008756.948   -21343227.55649 -16616313.38849  20008758.6124   20008764.1444
  20206872.545   -28525806.40249 -22210559.06049  20206874.1824   20206879.5514
  21808845.730     1914521.99749   1496847.66349  21808846.9404   21808852.4284
  22478139.338   -16546271.54449 -12871654.27349  22478139.4484   22478145.1724
  22408644.463   -16372153.55149 -12743985.29049  22408646.7484   22408651.4874
  22490958.645   -17612436.03649 -13423115.07849  22490960.4654   22490966.7984
 94  4 30  5 21 59.9980000  0  7 28 17 23  6 22 26 21
  23295575.243   -11379366.77249  -8838375.07549  23295576.3424   23295581.3374
  20010271.123   -21335269.45349 -16610112.26349  20010273.0464   20010278.4904
  20198831.108   -28568066.24449 -22243488.77949  20198832.2974   20198837.7584
  21824243.468     1995442.28049   1559902.41049  21824245.4014   21824250.9654
  22481912.240   -16526441.29649 -12856202.14449  22481913.0304   22481919.1324
  22410528.112   -16362256.23149 -12736273.07949  22410530.2614   22410534.8784
  22471650.612   -17713902.89349 -13502180.11649  22471652.0564   22471657.9884
 94  4 30  5 22 29.9980000  0  7 28 17 23  6 22 26 21
  23273843.324   -11493570.14249  -8927364.67549  23273844.4924   23273849.2914
  20011846.492   -21326992.42849 -16603662.63249  20011848.3394   20011853.5834
  20190878.408   -28609858.07249 -22276053.81749  20190879.7364   20190885.1564
  21839699.862     2076664.93449   1623192.76249  21839701.6354   21839706.9594
  22485778.003   -16506122.76449 -12840369.53449  22485779.6194   22485785.7284
  22412521.824   -16351779.67149 -12728109.51449  22412523.9024   22412528.6024
  22452385.980   -17815137.09349 -13581063.86549  22452387.6894   22452393.8174
 94  4 30  5 22 59.9980000  0  7 28 17 23  6 22 26 21
  23252140.235   -11607619.04249  -9016233.90749  23252141.5184   23252145.7864
  20013480.834   -21318404.72049 -16596970.90749  20013482.5974   20013487.7994
  20183014.232   -28651185.15649 -22308256.71849  20183015.4854   20183020.7874
  21855211.819     2158184.53649   1686714.50949  21855214.0964   21855219.4254
  22489737.658   -16485320.11849 -12824159.68649  22489738.1404   22489744.5074
  22414629.205   -16340704.46949 -12719479.47449  22414631.3644   22414636.1194
  22433165.721   -17916141.19449 -13659768.31749  22433167.2844   22433173.2984
 94  4 30  5 23 29.9980000  0  7 28 17 23  6 22 26 21
  23230466.819   -11721509.02149  -9104979.29649  23230468.7074   23230473.4934
  20015174.841   -21309503.07749 -16590034.56149  20015176.5164   20015181.8074
  20175235.925   -28692058.87049 -22340106.34149  20175237.3614   20175242.7864
  21870782.845     2240009.15749   1750473.94149  21870785.0354   21870790.0534
  22493788.693   -16464033.21649 -12807572.50149  22493789.0354   22493795.1474
  22416849.932   -16329035.33249 -12710386.62649  22416852.0894   22416856.8094
  22413987.882   -18016916.78049 -13738294.71149  22413990.3644   22413996.2444
 94  4 30  5 23 59.9980000  0  7 28 17 23  6 22 26 21
  23208829.231   -11835223.06549  -9193587.58649  23208828.7784   23208834.6604
  20016927.469   -21300294.06449 -16582858.70849  20016928.9344   20016934.0604
  20167542.886   -28732487.13749 -22371608.86049  20167544.1154   20167549.4254
  21886415.137     2322155.16349   1814483.80249  21886416.6884   21886421.6934
  22497929.673   -16442264.60749 -12790609.97249  22497931.3824   22497937.2754
  22419183.502   -16316777.94249 -12700835.39849  22419184.5414   22419189.3224
  22394856.342   -18117453.08449 -13816634.63949  22394858.6214   22394864.5334
 94  4 30  5 24 29.9980000  0  7 28 17 23  6 22 26 21
  23187221.186   -11948762.56249  -9282059.86649  23187223.6594   23187229.0304
  20018735.318   -21290791.24949 -16575453.91949  20018737.2914   20018742.2774
  20159934.558   -28772469.28049 -22402763.75349  20159935.7504   20159940.9784
  21902108.494     2404626.95049   1878747.51849  21902110.4684   21902115.6494
  22502167.799   -16420005.35149 -12773265.12049  22502167.4004   22502173.0254
  22421624.696   -16303946.93149 -12690837.18649  22421626.0984   22421630.8884
  22375773.832   -18217734.51749 -13894775.98149  22375775.8084   22375781.6564
 94  4 30  5 24 59.9980000  0  7 28 17 23  6 22 26 21
  23165646.076   -12062152.51249  -9370415.61149  23165646.6514   23165651.1724
  20020596.530   -21281012.85049 -16567834.38649  20020598.1304   20020603.1964
  20152410.061   -28812009.02849 -22433573.92649  20152411.5424   20152416.7904
  21917864.869     2487417.20249   1943259.39049  21917865.4644   21917870.4724
  22506494.668   -16397261.77249 -12755542.86949  22506495.3054   22506501.1684
  22424170.972   -16290559.64749 -12680405.52149  22424173.4274   22424178.1674
  22356741.224   -18317750.06449 -13972710.12549  22356743.4564   22356749.5194
 94  4 30  5 25 29.9980000  0  7 28 17 23  6 22 26 21
  23144096.615   -12175388.29749  -9458651.22749  23144097.4894   23144102.9934
  20022509.490   -21270960.41849 -16560001.32749  20022511.0174   20022516.2604
  20144970.288   -28851106.07549 -22464039.13749  20144971.6094   20144976.8084
  21933678.264     2570521.37349   2008015.87049  21933679.3984   21933684.6174
  22510911.638   -16374045.61149 -12737452.37149  22510912.9144   22510918.8524
  22426822.415   -16276634.40049 -12669554.66349  22426823.3454   22426828.1674
  22337761.183   -18417493.90049 -14050432.56549  22337762.7024   22337768.5104
 94  4 30  5 25 59.9980000  0  7 28 17 23  6 22 26 21
  23122580.382   -12288458.17949  -9546757.56849  23122581.4864   23122587.0504
  20024473.513   -21260641.33449 -16551960.48449  20024474.6844   20024479.9114
  20137617.455   -28889746.30449 -22494148.38349  20137618.7314   20137623.8504
  21949551.353     2653943.31949   2073019.97149  21949554.2624   21949559.2534
  22515420.001   -16350354.09949 -12718991.46649  22515421.5044   22515427.5634
  22429574.715   -16262165.12649 -12658279.89049  22429576.9494   22429581.8044
  22318833.146   -18516957.57849 -14127936.68949  22318835.5284   22318841.4454
 94  4 30  5 26 29.9980000  0  7 28 17 23  6 22 26 21
  23101092.188   -12401376.82549  -9634746.06549  23101093.7054   23101098.5844
  20026489.411   -21250045.14749 -16543703.71649  20026490.9494   20026496.1964
  20130349.851   -28927936.58249 -22523907.02149  20130351.1984   20130356.4054
  21965485.372     2737675.06149   2138265.47149  21965487.9784   21965493.0924
  22520017.502   -16326192.20049 -12700164.02349  22520019.1534   22520025.4954
  22432430.669   -16247156.55449 -12646584.88849  22432432.8964   22432437.4364
  22299956.135   -18616160.36349 -14205237.52049  22299957.5564   22299963.8134
 94  4 30  5 26 59.9980000  0  7 28 17 23  6 22 26 21
  23079636.340   -12514129.72449  -9722605.40049  23079637.5124   23079642.8554
  20028560.810   -21239158.86449 -16535220.89849  20028562.6554   20028567.8134
  20123168.351   -28965675.59349 -22553314.01749  20123169.5744   20123175.0494
  21981477.505     2821708.59849   2203746.13649  21981478.9864   21981484.5384
  22524707.072   -16301560.12649 -12680970.21149  22524706.4224   22524712.4864
  22435392.650   -16231593.20649 -12634457.58549  22435394.5414   22435398.6944
  22281126.626   -18715109.11949 -14282340.41049  22281127.8044   22281134.2554
 94  4 30  5 27 29.9980000  0  7 28 17 23  6 22 26 21
  23058217.734   -12626686.12449  -9810311.63049  23058219.3434   23058223.5174
  20030689.876   -21227971.53649 -16526503.49649  20030691.6384   20030696.7984
  20116074.821   -29002951.69649 -22582360.30849  20116076.1414   20116081.6764
  21997527.614     2906052.97949   2269469.02149  21997529.1814   21997534.6374
  22529482.486   -16276449.06049 -12661403.15549  22529484.8694   22529491.1244
  22438460.978   -16215468.45149 -12621892.82149  22438462.6604   22438466.9924
  22262343.958   -18813808.74949 -14359249.18049  22262345.8664   22262352.5924
 94  4 30  5 27 59.9980000  0  7 28 17 23  6 22 26 21
  23036836.331   -12739047.90449  -9897866.21949  23036837.0324   23036841.9734
  20032877.846   -21216475.07449 -16517545.21249  20032879.2384   20032884.5074
  20109068.754   -29039767.19849 -22611047.69049  20109070.3654   20109075.8774
  22013635.536     2990698.43849   2335426.51149  22013636.7204   22013642.2004
  22534355.527   -16250853.73849 -12641458.75949  22534355.7984   22534361.8864
  22441635.981   -16198779.45049 -12608888.39449  22441638.5154   22441643.2934
  22243608.370   -18912268.17149 -14435970.77349  22243610.0934   22243616.2714
 94  4 30  5 28 29.9980000  0  7 28 17 23  6 22 26 21
  23015490.199   -12851221.95949  -9985274.52749  23015491.3274   23015496.0984
  20035123.771   -21204669.59949 -16508346.13649  20035125.6294   20035130.9584
  20102150.809   -29076123.62549 -22639377.35049  20102152.2214   20102157.2884
  22029798.468     3075636.36949   2401611.89649  22029799.7374   22029805.3714
  22539316.629   -16224780.91349 -12621142.28449  22539317.1234   22539323.2604
  22444919.445   -16181526.65649 -12595444.64549  22444921.8634   22444926.3814
  22224918.671   -19010484.87249 -14512503.22849  22224920.1304   22224926.0614
 94  4 30  5 28 59.9980000  0  7 28 17 23  6 22 26 21
  22994181.490   -12963203.76849 -10072533.03749  22994182.0714   22994186.6134
  20037425.010   -21192576.46449 -16498922.91649  20037426.8884   20037432.2414
  20095318.507   -29112024.67749 -22667352.17749  20095320.3924   20095325.6154
  22046014.948     3160858.00449   2468018.33649  22046016.8464   22046022.6384
  22544366.383   -16198241.99149 -12600462.61549  22544367.6164   22544373.3534
  22448309.447   -16163712.24549 -12581563.28249  22448311.8264   22448316.2994
  22206275.298   -19108454.25149 -14588842.96649  22206276.6764   22206283.1814
 94  4 30  5 29 29.9980000  0  7 28 17 23  6 22 26 21
  22972905.500   -13075005.94249 -10159651.57949  22972906.6714   22972911.1304
  20039780.769   -21180197.19649 -16489276.72849  20039782.5674   20039787.8254
  20088571.488   -29147482.91549 -22694981.95549  20088572.8124   20088578.2214
  22062288.397     3246371.82249   2534652.45649  22062289.7604   22062295.3434
  22549502.232   -16171250.52949 -12579430.31749  22549504.1734   22549509.7014
  22451805.179   -16145345.44649 -12567251.47849  22451807.1554   22451810.8254
  22187679.601   -19206171.83549 -14664986.50049  22187681.8644   22187687.8614
 94  4 30  5 29 59.9980000  0  7 28 17 23  6 22 26 21
  22951661.914   -13186641.48549 -10246640.28249  22951663.0994   22951667.0904
  20042189.282   -21167541.16649 -16479414.88349  20042191.0114   20042195.9794
  20081906.604   -29182508.49349 -22722274.59549  20081907.6224   20081912.9874
  22078616.740     3332176.42749   2601513.16349  22078618.0724   22078623.6394
  22554724.763   -16143809.55049 -12558047.74549  22554725.6734   22554731.7384
  22455406.209   -16126420.06649 -12552504.42449  22455408.1194   22455412.2304
  22169132.979   -19303637.95049 -14740934.09649  22169134.8054   22169140.8714
 94  4 30  5 30 29.9980000  0  7 28 17 23  6 22 26 21
  22930450.709   -13298109.54449 -10333498.48449  22930451.2774   22930455.4294
  20044648.319   -21154617.52949 -16469344.51149  20044650.2704   20044655.2824
  20075323.658   -29217101.63049 -22749230.26949  20075324.9284   20075330.0254
  22095001.889     3418283.28349   2668609.39349  22095003.4614   22095008.7824
  22560034.934   -16115909.08849 -12536307.13049  22560035.3214   22560040.7684
  22459114.022   -16106938.50449 -12537323.99049  22459115.6484   22459119.6464
  22150632.523   -19400856.89649 -14816689.09049  22150634.1784   22150640.4304
 94  4 30  5 30 59.9980000  0  7 28 17 23  6 22 26 21
  22909272.702   -13409402.26449 -10420220.05849  22909273.1414   22909277.1254
  20047159.318   -21141422.49949 -16459062.66749  20047161.1544   20047166.0744
  20068821.843   -29251267.87649 -22775853.29949  20068823.3894   20068828.4594
  22111442.013     3504680.87649   2735932.17549  22111444.3214   22111450.0424
  22565429.255   -16087556.22049 -12514213.99549  22565430.4614   22565436.3704
  22462923.140   -16086920.33949 -12521725.40749  22462924.8624   22462928.8554
  22132178.477   -19497836.99549 -14892257.96749  22132179.4554   22132185.7634
 94  4 30  5 31 29.9980000  0  7 28 17 23  6 22 26 21
  22888130.350   -13520502.20849 -10506791.41949  22888131.4494   22888135.4444
  20049725.254   -21127940.13249 -16448556.92949  20049726.7834   20049731.8624
  20062402.322   -29285002.38949 -22802139.91549  20062403.7384   20062408.9854
  22127939.587     3591372.87649   2803484.36749  22127941.1614   22127946.8794
  22570915.109   -16058727.21349 -12491749.84149  22570916.4024   22570921.9874
  22466836.537   -16066354.37149 -12505699.95649  22466838.3134   22466842.6274
  22113769.864   -19594572.39749 -14967636.16049  22113771.5354   22113777.4974
 94  4 30  5 31 59.9980000  0  7 28 17 23  6 22 26 21
  22867027.937   -13631393.55249 -10593200.22749  22867029.4734   22867033.5954
  20052344.842   -21114172.50149 -16437828.90349  20052346.6954   20052351.8024
  20056068.109   -29318290.84949 -22828078.95349  20056069.2884   20056074.4234
  22144490.810     3678347.86249   2871257.07149  22144491.9904   22144497.5074
  22576496.028   -16029407.36549 -12468903.21949  22576495.9044   22576501.4334
  22470854.563   -16045240.67449 -12489247.71049  22470855.9534   22470860.2714
  22095406.094   -19691072.51949 -15042831.02349  22095408.0654   22095414.6414
 94  4 30  5 32 29.9980000  0  7 28 17 23  6 22 26 21
  22845969.661   -13742060.15749 -10679433.91749  22845970.3514   22845974.7074
  20055021.314   -21100108.27649 -16426869.76049  20055022.9754   20055028.1864
  20049818.933   -29351127.56449 -22853665.98649  20049820.3894   20049825.6544
  22161093.429     3765599.21149   2939245.11849  22161095.3964   22161101.2274
  22582165.992   -15999607.08349 -12445682.23349  22582166.4514   22582172.5974
  22474976.136   -16023579.08049 -12472368.53449  22474978.0314   22474982.6944
  22077091.218   -19787320.23049 -15117829.20149  22077093.0954   22077098.9944
 94  4 30  5 32 59.9980000  0  7 28 17 23  6 22 26 21
  22824953.308   -13852501.84649 -10765492.35349  22824953.8204   22824957.9854
  20057753.705   -21085749.55449 -16415681.13849  20057755.4444   20057760.6654
  20043656.655   -29383510.69949 -22878899.58049  20043657.9584   20043663.4644
  22177748.963     3853124.80549   3007446.86249  22177750.8274   22177757.1074
  22587924.777   -15969344.53349 -12422101.03949  22587925.3424   22587931.2214
  22479204.938   -16001356.58349 -12455052.30249  22479206.6284   22479211.4074
  22058828.447   -19883295.12449 -15192614.80249  22058829.3974   22058835.5944
 94  4 30  5 33 29.9980000  0  7 28 17 23  6 22 26 21
  22803974.498   -13962739.41849 -10851391.73049  22803976.5384   22803980.3904
  20060540.894   -21071103.81049 -16404268.86749  20060542.5464   20060547.6544
  20037584.002   -29415425.03849 -22903767.87649  20037585.0924   20037590.1754
  22194458.199     3940931.07949   3075867.32349  22194459.9554   22194466.1204
  22593771.094   -15938615.63149 -12398156.44749  22593773.0694   22593778.8114
  22483541.677   -15978566.07749 -12437293.45249  22483543.7474   22483548.3454
  22040616.097   -19978997.97849 -15267188.41849  22040617.8274   22040623.7474
 94  4 30  5 33 59.9980000  0  7 28 17 23  6 22 26 21
  22783032.190   -14072794.45849 -10937148.87449  22783033.1574   22783037.7154
  20063380.106   -21056182.20549 -16392641.63949  20063381.8484   20063387.0334
  20031602.603   -29446858.19849 -22928261.23149  20031603.6034   20031608.7344
  22211220.822     4029018.37749   3144506.76649  22211222.2334   22211228.3334
  22599704.691   -15907442.14749 -12373865.42549  22599704.9124   22599710.8104
  22487984.089   -15955221.07149 -12419102.52649  22487986.3904   22487990.5464
  22022458.757   -20074420.02149 -15341543.22449  22022459.9334   22022465.5364
 94  4 30  5 34 29.9980000  0  7 28 17 23  6 22 26 21
  22762121.608   -14182678.20849 -11022772.54149  22762122.8614   22762127.9474
  20066270.353   -21040993.34949 -16380806.16049  20066272.0344   20066277.3754
  20025710.890   -29477817.08049 -22952385.01749  20025712.4204   20025717.3204
  22228038.840     4117398.91649   3213374.71049  22228040.4914   22228046.8034
  22605719.424   -15875831.82649 -12349234.01349  22605720.1344   22605726.3714
  22492529.619   -15931334.71349 -12400489.76449  22492532.0224   22492536.1554
  22004357.090   -20169543.11749 -15415665.07649  22004358.7324   22004364.2794
 94  4 30  5 34 59.9980000  0  7 28 17 23  6 22 26 21
  22741243.499   -14292393.14849 -11108264.66649  22741245.0744   22741249.4644
  20069211.404   -21025535.61349 -16368761.16249  20069213.5764   20069218.7824
  20019911.072   -29508296.84149 -22976135.46249  20019912.2304   20019917.2024
  22244914.252     4206083.38549   3282479.48449  22244916.6774   22244922.8074
  22611820.299   -15843770.61749 -12324251.26349  22611821.3234   22611827.5804
  22497176.821   -15906915.62949 -12381461.89649  22497178.4914   22497182.8024
  21986311.561   -20264373.31049 -15489558.69349  21986312.8224   21986318.7124
 94  4 30  5 35 29.9980000  0  7 28 17 23  6 22 26 21
  22720402.008   -14401917.63649 -11193608.38249  22720403.0204   22720407.7474
  20072206.210   -21009800.32349 -16356499.89549  20072208.0944   20072213.0944
  20014201.296   -29538300.29649 -22999514.76149  20014202.6924   20014207.8904
  22261846.861     4295058.43349   3351810.67149  22261848.2344   22261853.9964
  22618007.143   -15811255.35649 -12298914.70649  22618008.8154   22618015.0414
  22501921.463   -15881976.65249 -12362028.92249  22501924.1404   22501928.7914
  21968319.449   -20358921.36849 -15563232.47349  21968320.7444   21968326.7414
 94  4 30  5 35 59.9980000  0  7 28 17 23  6 22 26 21
  22699601.519   -14511230.48749 -11278787.18549  22699601.7334   22699606.3094
  20075252.604   -20993793.63549 -16344027.14949  20075254.1264   20075259.1954
  20008577.355   -29567854.20349 -23022543.76349  20008578.6814   20008583.7304
  22278832.289     4384320.69349   3421365.66749  22278834.1764   22278840.2064
  22624278.345   -15778307.59749 -12273241.14449  22624278.8274   22624284.9634
  22506767.258   -15856517.01649 -12342190.23349  22506769.2914   22506773.5994
  21950381.930   -20453185.02949 -15636684.64149  21950382.9894   21950389.0084
 94  4 30  5 36 29.9980000  0  7 28 17 23  6 22 26 21
  22678845.317   -14620305.03849 -11363780.29749  22678845.5034   22678849.8964
  20078353.207   -20977498.05449 -16331329.29349  20078354.7794   20078360.0974
  20003036.501   -29596971.26749 -23045232.36949  20003037.8634   20003042.9954
  22295872.310     4473867.85349   3491142.65849  22295874.7714   22295880.3644
  22630631.024   -15744920.73349 -12247225.42249  22630632.0724   22630638.1514
  22511712.797   -15830526.11449 -12321937.57649  22511715.0364   22511719.6044
  21932495.819   -20547173.56249 -15709922.42749  21932497.4814   21932503.4134
 94  4 30  5 36 59.9980000  0  7 28 17 23  6 22 26 21
  22658135.672   -14729127.21449 -11448576.75349  22658136.9644   22658141.4534
  20081511.782   -20960898.56449 -16318394.62349  20081513.6284   20081518.6894
  19997579.595   -29625647.77749 -23067577.68749  19997580.9744   19997585.9834
  22312962.777     4563677.15649   3561123.91549  22312964.8374   22312970.3754
  22637067.404   -15711101.11449 -12220872.48549  22637067.9864   22637073.8174
  22516764.292   -15803980.95649 -12301253.03349  22516766.5054   22516771.0994
  21914658.481   -20640906.27149 -15782960.87749  21914660.5034   21914666.5624
 94  4 30  5 37 29.9980000  0  7 28 17 23  6 22 26 21
  22637474.408   -14837702.13449 -11533180.53449  22637475.6704   22637480.3314
  20084729.882   -20943989.04449 -16305218.36849  20084731.4844   20084736.3744
  19992205.151   -29653889.63449 -23089584.31349  19992206.5954   19992211.6874
  22330100.373     4653737.19249   3631300.54249  22330102.8154   22330108.2484
  22643583.562   -15676857.94849 -12194189.51149  22643583.9144   22643589.7034
  22521922.995   -15776877.38949 -12280133.36649  22521924.1844   22521928.4324
  21896871.315   -20734379.35249 -15855797.01949  21896873.1274   21896879.3254
 94  4 30  5 37 59.9980000  0  7 28 17 23  6 22 26 21
  22616858.829   -14946044.24749 -11617602.90949  22616859.1054   22616863.4184
  20088005.320   -20926776.06549 -16291805.64849  20088007.1384   20088012.1124
  19986912.738   -29681701.94649 -23111256.23149  19986914.0694   19986919.0614
  22347288.829     4744060.63849   3701682.42949  22347290.4684   22347296.4784
  22650179.350   -15642193.50349 -12167178.26249  22650180.1264   22650186.8234
  22527186.231   -15749211.78449 -12258575.74249  22527188.7794   22527192.7344
  21879136.152   -20827583.16949 -15928423.33749  21879137.4064   21879143.2914
 94  4 30  5 38 29.9980000  0  7 28 17 23  6 22 26 21
  22596285.228   -15054157.61949 -11701847.04249  22596285.8414   22596290.1004
  20091338.595   -20909258.72849 -16278155.76949  20091340.4534   20091345.4484
  19981701.960   -29709084.56249 -23132593.32149  19981703.4764   19981708.3594
  22364524.908     4834635.21949   3772260.00249  22364526.6614   22364532.0024
  22656857.365   -15607100.73849 -12139833.25749  22656858.2754   22656864.6644
  22532554.716   -15721004.20649 -12236595.79849  22532556.6294   22532560.8504
  21861449.467   -20920524.54949 -16000845.16449  21861450.9004   21861457.2294
 94  4 30  5 38 59.9980000  0  7 28 17 23  6 22 26 21
  22575754.054   -15162050.87049 -11785919.65549  22575754.3374   22575759.0114
  20094728.376   -20891444.71349 -16264274.71849  20094730.3524   20094735.4004
  19976575.355   -29736026.71849 -23153587.19649  19976576.5674   19976581.3834
  22381808.117     4925458.92549   3843031.69749  22381809.6494   22381815.2204
  22663615.707   -15571590.62449 -12112163.05049  22663615.4684   22663621.6164
  22538024.247   -15692260.29949 -12214197.94249  22538026.1244   22538030.4094
  21843814.896   -21013192.19649 -16073053.69149  21843816.9204   21843823.1044
 94  4 30  5 39 29.9980000  0  7 28 17 23  6 22 26 21
  22555262.978   -15269729.17549 -11869824.77049  22555263.9664   22555268.7774
  20098172.321   -20873346.89649 -16250172.52349  20098174.2054   20098179.3044
  19971530.431   -29762535.28449 -23174243.20949  19971532.0014   19971537.0854
  22399141.502     5016545.74949   3914008.43349  22399143.3364   22399148.8434
  22670449.010   -15535671.31849 -12084173.99849  22670451.1734   22670457.1264
  22543590.540   -15663007.40649 -12191403.47349  22543592.8204   22543597.2764
  21826235.681   -21105573.60949 -16145039.17549  21826237.4074   21826243.1554
 94  4 30  5 39 59.9980000  0  7 28 17 23  6 22 26 21
  22534815.249   -15377181.01749 -11953553.42249  22534816.4824   22534821.0624
  20101666.581   -20854983.94149 -16235863.72649  20101668.5884   20101673.7164
  19966569.860   -29788604.94049 -23194557.20949  19966571.0324   19966576.0374
  22416523.845     5107889.64949   3985185.48449  22416525.3324   22416530.6444
  22677363.015   -15499345.21349 -12055867.95649  22677363.9114   22677369.3814
  22549253.203   -15633252.25149 -12168217.63149  22549255.3124   22549259.5964
  21808709.541   -21197675.42349 -16216806.79549  21808710.9774   21808716.8354
 94  4 30  5 40 29.9980000  0  7 28 17 23  6 22 26 21
  22514413.263   -15484396.82849 -12037098.16449  22514414.1774   22514418.5194
  20105212.242   -20836352.57149 -16221345.77549  20105214.0324   20105219.2754
  19961694.780   -29814221.77349 -23214518.36649  19961696.1534   19961701.3304
  22433951.880     5199477.26749   4056552.44249  22433953.5794   22433958.8734
  22684353.498   -15462606.17149 -12027240.14149  22684354.6434   22684360.6774
  22555011.254   -15602996.58449 -12144641.78049  22555012.8454   22555017.0064
  21791234.914   -21289500.58749 -16288358.84749  21791236.9444   21791243.1764
 94  4 30  5 40 59.9980000  0  7 28 17 23  6 22 26 21
  22494053.955   -15591382.45249 -12120463.54349  22494055.5534   22494059.9314
  20108808.208   -20817458.86449 -16206623.40949  20108809.4574   20108814.6644
  19956907.134   -29839379.54549 -23234121.80849  19956908.8954   19956914.1174
  22451426.271     5291311.88749   4128111.86049  22451429.0024   22451434.3514
  22691422.059   -15425462.05549 -11998296.68349  22691423.0694   22691429.2424
  22560866.460   -15572222.91849 -12120662.29349  22560868.5554   22560872.8114
  21773815.439   -21381044.32349 -16359691.60649  21773816.7314   21773822.9444
 94  4 30  5 41 29.9980000  0  7 28 17 23  6 22 26 21
  22473740.945   -15698131.32549 -12203644.44749  22473741.7474   22473746.2924
  20112452.039   -20798304.44649 -16191697.89149  20112454.1324   20112459.5324
  19952205.607   -29864089.53449 -23253376.32849  19952206.7344   19952211.9474
  22468949.653     5383393.83749   4199864.00949  22468952.0294   22468957.2114
  22698567.512   -15387906.44149 -11969032.57749  22698569.5214   22698575.7384
  22566822.320   -15540926.26149 -12096275.28349  22566824.0244   22566828.5124
  21756446.420   -21472317.83449 -16430813.80449  21756448.0784   21756454.2454
 94  4 30  5 41 59.9980000  0  7 28 17 23  6 22 26 21
  22453474.415   -15804629.32849 -12286629.85849  22453475.7294   22453480.3964
  20116148.995   -20778879.78349 -16176561.79149  20116150.5814   20116155.8184
  19947587.456   -29888354.88549 -23272284.38049  19947589.0704   19947594.2584
  22486517.722     5475710.33749   4271798.93149  22486519.1044   22486524.4774
  22705796.904   -15349923.04649 -11939435.13349  22705797.6704   22705803.6484
  22572880.435   -15509090.55749 -12071468.23649  22572882.1904   22572886.6034
  21739130.045   -21563315.31749 -16501720.91049  21739131.6124   21739137.8374
 94  4 30  5 42 29.9980000  0  7 28 17 23  6 22 26 21
  22433257.436   -15910874.18149 -12369418.01949  22433257.9674   22433262.7654
  20119898.887   -20759172.08449 -16161205.13949  20119900.7944   20119906.0074
  19943054.462   -29912178.04849 -23290847.86949  19943055.8004   19943061.0084
  22504131.165     5568271.69249   4343924.66249  22504132.8844   22504138.3634
  22713104.121   -15311521.04349 -11909511.50449  22713104.9554   22713111.0974
  22579042.057   -15476709.35049 -12046236.12249  22579043.8044   22579048.1834
  21721867.488   -21654028.11549 -16572406.19749  21721869.6084   21721875.3174
 94  4 30  5 42 59.9980000  0  7 28 17 23  6 22 26 21
  22413088.943   -16016853.98549 -12451999.65149  22413090.8554   22413095.7794
  20123706.587   -20739163.61549 -16145614.12549  20123708.2944   20123713.7154
  19938605.121   -29935560.11349 -23309067.64549  19938606.3164   19938611.5764
  22521792.763     5661090.33549   4416250.86649  22521795.8624   22521800.9394
  22720492.233   -15272695.30049 -11879257.69049  22720493.1714   22720499.3784
  22585307.872   -15443780.66149 -12020577.40049  22585309.9834   22585314.5374
  21704661.210   -21744450.84349 -16642865.45349  21704662.8574   21704668.6994
 94  4 30  5 43 29.9980000  0  7 28 17 23  6 22 26 21
  22392975.225   -16122554.43049 -12534363.60049  22392976.8274   22392981.2384
  20127572.028   -20718850.17749 -16129785.47349  20127574.0144   20127579.1094
  19934236.363   -29958516.39449 -23326955.63949  19934237.8044   19934243.1074
  22539503.773     5754154.39949   4488768.32149  22539505.3424   22539510.6274
  22727961.668   -15233442.34649 -11848670.98449  22727962.7194   22727968.8714
  22591675.910   -15410318.92849 -11994503.31649  22591677.6154   22591682.0334
  21687510.501   -21834580.38449 -16713096.24549  21687511.6784   21687517.2044
 94  4 30  5 43 59.9980000  0  7 28 17 23  6 22 26 21
  22372915.668   -16227965.53249 -12616502.09049  22372917.6084   22372922.1724
  20131496.509   -20698228.58049 -16113716.69749  20131498.2554   20131503.2814
  19929951.882   -29981035.19249 -23344502.73749  19929952.8254   19929957.8434
  22557261.104     5847470.84049   4561482.43449  22557262.4284   22557268.2704
  22735516.150   -15193750.48949 -11817742.27449  22735515.8384   22735522.1984
  22598143.329   -15376328.72049 -11968017.43349  22598145.4934   22598150.2254
  21670417.909   -21924397.11349 -16783083.28949  21670420.1024   21670426.1834
 94  4 30  5 44 29.9980000  0  7 28 17 23  6 22 26 21
  22352910.001   -16333101.86649 -12698426.48449  22352910.7864   22352915.0504
  20135477.712   -20677306.74649 -16097413.97049  20135479.4814   20135484.5374
  19925750.099   -30003111.43449 -23361704.98849  19925751.7164   19925756.9514
  22575069.468     5941054.10249   4634404.45249  22575071.0234   22575076.3144
  22743147.206   -15153641.30849 -11786488.36849  22743149.1634   22743154.8124
  22604711.597   -15341813.39949 -11941122.37449  22604713.7274   22604718.1244
  21653386.564   -22013905.88349 -16852830.36749  21653387.5074   21653392.9964
 94  4 30  5 44 59.9980000  0  7 28 17 23  6 22 26 21
  22332955.297   -16437965.45849 -12780138.35649  22332956.2964   22332960.4624
  20139513.861   -20656096.93349 -16080886.84549  20139515.4524   20139520.6034
  19921631.620   -30024754.63449 -23378569.80849  19921632.8244   19921638.4094
  22592925.263     6034883.99349   4707518.65549  22592926.5514   22592932.0164
  22750861.887   -15113102.93349 -11754900.03849  22750862.9554   22750869.4504
  22611378.994   -15306777.99849 -11913822.05049  22611380.7204   22611385.1524
  21636409.727   -22103114.38349 -16922343.46849  21636411.6234   21636417.1544
 94  4 30  5 45 29.9980000  0  7 28 17 23  6 22 26 21
  22313050.339   -16542565.97849 -12861645.24349  22313050.9864   22313055.2174
  20143601.536   -20634617.14949 -16064149.35549  20143602.9834   20143608.1454
  19917595.685   -30045963.33449 -23395096.05649  19917597.1214   19917602.4974
  22610825.907     6128954.41849   4780820.28449  22610827.0174   22610832.7724
  22758654.944   -15072151.94549 -11722990.17849  22758655.5304   22758662.1774
  22618145.183   -15271222.59849 -11886116.53949  22618146.8704   22618151.1384
  21619490.874   -22192022.74349 -16991622.69249  21619492.9034   21619498.4464
 94  4 30  5 45 59.9980000  0  7 28 17 23  6 22 26 21
  22293192.278   -16646916.19849 -12942957.08649  22293193.8004   22293198.1404
  20147737.171   -20612882.15049 -16047212.99249  20147738.9824   20147744.3554
  19913646.133   -30066719.45349 -23411269.64449  19913647.4264   19913652.6484
  22628773.013     6223272.41149   4854314.81949  22628775.6194   22628780.8074
  22766521.871   -15030807.09549 -11690773.41949  22766523.3034   22766529.5854
  22625009.012   -15235153.45749 -11858010.70549  22625010.8144   22625014.8764
  21602625.835   -22280646.56249 -17060680.20049  21602628.1664   21602633.6144
 94  4 30  5 46 29.9980000  0  7 28 17 23  6 22 26 21
  22273383.053   -16751019.88249 -13024076.82649  22273383.7134   22273387.5034
  20151922.170   -20590891.11449 -16030077.12049  20151923.7154   20151929.0744
  19909782.438   -30087025.36649 -23427092.42049  19909783.4514   19909788.5074
  22646765.508     6317817.58649   4927986.37449  22646766.7824   22646772.4054
  22774462.980   -14989078.94349 -11658257.97749  22774464.0454   22774470.4714
  22631972.006   -15198563.29749 -11829498.87849  22631973.4964   22631977.5474
  21585814.611   -22368992.93849 -17129521.51249  21585816.4034   21585822.1994
 94  4 30  5 46 59.9980000  0  7 28 17 23  6 22 26 21
  22253622.956   -16854860.78949 -13104991.80549  22253623.2444   22253627.0894
  20156155.535   -20568643.80449 -16012741.55749  20156157.2764   20156162.5954
  19906001.735   -30106889.36449 -23442570.84449  19906003.3904   19906008.4104
  22664795.171     6412564.03149   5001814.75749  22664796.4684   22664802.0094
  22782477.289   -14946963.88349 -11625441.04949  22782477.6274   22782484.6724
  22639030.326   -15161466.84549 -11800592.53749  22639032.7734   22639036.8864
  21569053.757   -22457073.55649 -17198155.74749  21569055.1034   21569060.8674
 94  4 30  5 47 29.9980000  0  7 28 17 23  6 22 26 21
  22233912.180   -16958432.81849 -13185697.26949  22233914.0904   22233917.8564
  20160441.202   -20546121.43249 -15995191.65949  20160443.1344   20160448.4904
  19902308.093   -30126299.34649 -23457695.48649  19902309.7354   19902314.7854
  22682865.763     6507531.30449   5075815.22049  22682868.5364   22682873.6124
  22790562.269   -14904475.94749 -11592333.57649  22790562.9354   22790570.0684
  22646185.153   -15123869.62149 -11771295.98849  22646187.2354   22646191.4544
  21552345.351   -22544877.61149 -17266574.48149  21552346.7274   21552352.2424
 94  4 30  5 47 59.9980000  0  7 28 17 23  6 22 26 21
  22214256.364   -17061725.67649 -13266185.20149  22214257.9204   22214261.8154
  20164781.294   -20523315.07849 -15977420.47149  20164783.0104   20164788.2954
  19898699.735   -30145264.43549 -23472473.45949  19898700.9884   19898705.9894
  22700977.629     6602708.81249   5149979.50949  22700979.6244   22700984.9304
  22798718.677   -14861615.39049 -11558935.74449  22798719.4384   22798725.3064
  22653434.761   -15085772.73549 -11741610.10449  22653436.8584   22653441.5774
  21535689.247   -22632405.14649 -17334777.74249  21535690.8294   21535696.5014
 94  4 30  5 48 29.9980000  0  7 28 17 23  6 22 26 21
  22194654.604   -17164735.32549 -13346452.44149  22194655.7924   22194659.5374
  20169179.084   -20500204.83049 -15959412.48149  20169180.8604   20169186.0054
  19895170.423   -30163809.49349 -23486924.13249  19895171.8894   19895176.9514
  22719127.841     6698086.25149   5224299.58849  22719129.5784   22719135.0784
  22806947.505   -14818370.72849 -11525238.62049  22806948.5114   22806954.4794
  22660780.741   -15047168.84149 -11711529.14849  22660783.0254   22660787.3204
  21519087.202   -22719648.80049 -17402759.78549  21519089.3144   21519094.2844
 94  4 30  5 48 59.9980000  0  7 28 17 23  6 22 26 21
  22175106.115   -17267459.14549 -13426496.95249  22175108.0534   22175112.2184
  20173635.892   -20476785.29149 -15941163.48549  20173637.6004   20173642.6304
  19891720.528   -30181940.20349 -23501051.93949  19891721.7274   19891726.5964
  22737320.702     6793693.66049   5298798.88449  22737322.8564   22737328.2814
  22815247.955   -14774749.83249 -11491248.32049  22815248.8124   22815255.3464
  22668223.080   -15008059.05949 -11681053.99049  22668225.3494   22668229.4594
  21502539.880   -22806604.95749 -17470517.81449  21502541.4694   21502547.1974
 94  4 30  5 49 29.9980000  0  7 28 17 23  6 22 26 21
  22155612.182   -17369905.12149 -13506324.96149  22155613.1634   22155617.1294
  20178149.396   -20453065.66649 -15922680.65849  20178151.2034   20178156.2724
  19888347.933   -30199661.35749 -23514860.61349  19888349.5744   19888354.2894
  22755559.954     6889541.99649   5373485.90649  22755562.6464   22755567.8144
  22823621.136   -14730761.63549 -11456971.82149  22823620.2864   22823626.3684
  22675763.977   -14968432.39849 -11650176.06849  22675765.8424   22675770.2654
  21486049.381   -22893264.46249 -17538044.68149  21486050.9614   21486056.5084
 94  4 30  5 49 59.9980000  0  7 28 17 23  6 22 26 21
  22136171.165   -17472070.26549 -13585934.13449  22136171.8384   22136176.2884
  20182717.062   -20429061.67249 -15903976.24349  20182718.9034   20182724.0484
  19885052.452   -30216978.45449 -23528354.44049  19885054.1444   19885059.2844
  22773844.867     6985615.37649   5448348.27849  22773844.5124   22773849.6264
  22832061.018   -14686399.31249 -11422403.79249  22832062.2274   22832068.1024
  22683403.456   -14928284.55649 -11618892.03249  22683405.9504   22683410.1874
  21469613.535   -22979633.73849 -17605345.39249  21469615.2304   21469620.7744
 94  4 30  5 50 29.9980000  0  7 28 17 23  6 22 26 21
  22116782.247   -17573958.28549 -13665327.36949  22116783.6424   22116787.8614
  20187336.744   -20404784.28849 -15885058.79649  20187338.7174   20187344.0314
  19881834.384   -30233889.48149 -23541531.85049  19881836.0094   19881841.0984
  22792169.339     7081920.95549   5523391.58349  22792171.1554   22792176.2794
  22840573.501   -14641663.41449 -11387544.67949  22840574.6084   22840581.3784
  22691140.663   -14887628.65349 -11587212.10049  22691142.5624   22691146.5294
  21453233.606   -23065711.02749 -17672418.58449  21453235.0434   21453241.0084
 94  4 30  5 50 59.9980000  0  7 28 17 23  6 22 26 21
  22097448.349   -17675555.06049 -13744493.65849  22097450.0154   22097454.3244
  20192008.358   -20380236.30349 -15865930.48849  20192010.0454   20192015.1924
  19878699.487   -30250366.91649 -23554371.40049  19878700.5814   19878705.5584
  22810539.996     7178462.62249   5598618.84849  22810542.0444   22810547.6394
  22849154.762   -14596565.51149 -11352403.47749  22849156.7754   22849163.0694
  22698970.441   -14846479.52949 -11555147.84549  22698972.5094   22698976.8704
  21436910.892   -23151486.65049 -17739256.70949  21436912.3744   21436918.3374
 94  4 30  5 51 29.9980000  0  7 28 17 23  6 22 26 21
  22078173.009   -17776851.35949 -13823425.80849  22078174.0304   22078178.2984
  20196731.693   -20355414.87849 -15846589.11149  20196733.4824   20196738.6454
  19875648.925   -30266397.51949 -23566862.76649  19875650.0384   19875655.0614
  22828951.965     7275213.95749   5674009.50449  22828953.2444   22828958.5904
  22857808.300   -14551101.52149 -11316977.01249  22857808.4164   22857814.4004
  22706890.412   -14804860.93249 -11522717.76149  22706892.5844   22706896.0314
  21420645.581   -23236957.47449 -17805857.32649  21420648.0264   21420653.7604
 94  4 30  5 51 59.9980000  0  7 28 17 23  6 22 26 21
  22058956.040   -17877836.21149 -13902115.27449  22058957.0924   22058961.4134
  20201510.508   -20330301.42549 -15827020.18149  20201512.2794   20201517.5184
  19872685.333   -30281967.90149 -23578995.52549  19872687.0264   19872692.2034
  22847403.047     7372178.00549   5749565.91049  22847404.5514   22847410.4224
  22866529.758   -14505262.61049 -11281258.40649  22866531.5254   22866538.0534
  22714900.017   -14762772.84249 -11489921.83849  22714902.0794   22714905.6314
  21404441.540   -23322113.87449 -17872212.94549  21404443.1854   21404449.1984
 94  4 30  5 52 29.9980000  0  7 28 17 23  6 22 26 21
  22039799.959   -17978503.44149 -13980557.24749  22039800.7594   22039804.8924
  20206345.649   -20304892.83749 -15807221.27649  20206347.3914   20206352.7024
  19869810.154   -30297080.33749 -23590771.43849  19869811.2884   19869816.3014
  22865896.039     7469352.21949   5825286.08149  22865896.5144   22865902.3944
  22875323.331   -14459052.03349 -11245250.18349  22875324.8314   22875330.9474
  22722998.443   -14720215.65849 -11456760.38849  22723000.2044   22723004.0694
  21388297.312   -23406953.76249 -17938321.92749  21388298.8924   21388304.5774
 94  4 30  5 52 59.9980000  0  7 28 17 23  6 22 26 21
  22020705.564   -18078844.49149 -14058745.05249  22020706.3184   22020710.7174
  20211237.378   -20279186.62649 -15787190.45749  20211239.2694   20211244.5604
  19867020.643   -30311738.22949 -23602193.16249  19867021.9684   19867026.9574
  22884423.052     7566726.73549   5901162.31249  22884426.2114   22884432.1604
  22884189.408   -14412464.01449 -11208947.84749  22884190.4774   22884196.2184
  22731187.011   -14677180.24049 -11423226.29749  22731189.2764   22731193.5434
  21372211.942   -23491482.76949 -18004188.67249  21372213.5624   21372219.1394
 94  4 30  5 53 29.9980000  0  7 28 17 23  6 22 26 21
  22001672.812   -18178860.92749 -14136679.91149  22001673.7334   22001678.3814
  20216182.569   -20253199.34549 -15766940.62349  20216184.3194   20216189.7284
  19864315.411   -30325956.97749 -23613272.69449  19864316.2964   19864321.2414
  22902990.251     7664295.25149   5977189.71549  22902993.0884   22902998.4664
  22893128.265   -14365492.08049 -11172346.35449  22893129.2984   22893135.3604
  22739472.630   -14633641.69549 -11389300.15749  22739474.5324   22739478.7674
  21356185.339   -23575702.14549 -18069814.13949  21356187.0134   21356192.8584
 94  4 30  5 53 59.9980000  0  7 28 17 23  6 22 26 21
  21982700.784   -18278559.82749 -14214367.34049  21982702.0624   21982706.4694
  20221179.281   -20226941.31749 -15746479.81649  20221180.9074   20221186.3384
  19861690.678   -30339748.17549 -23624019.06849  19861692.0604   19861696.9684
  22921592.722     7762047.44249   6053360.26349  22921594.6774   22921600.2934
  22902136.586   -14318152.74749 -11135458.57649  22902137.0104   22902143.4954
  22747857.135   -14589576.00149 -11354963.24649  22747859.7074   22747864.2334
  21340218.498   -23659609.85049 -18135196.74049  21340219.9884   21340225.9444
 94  4 30  5 54 29.9980000  0  7 28 17 23  6 22 26 21
  21963789.620   -18377941.17549 -14291807.32449  21963790.3894   21963794.9304
  20226225.993   -20200421.69049 -15725815.16249  20226227.6834   20226232.9714
  19859148.411   -30353106.84649 -23634428.40649  19859149.9154   19859154.9154
  22940227.511     7859972.39649   6129665.42049  22940228.9204   22940234.6514
  22911214.570   -14270446.72849 -11098285.06049  22911215.0954   22911221.5744
  22756341.194   -14544993.68849 -11320223.78149  22756343.0374   22756347.8954
  21324310.845   -23743205.86749 -18200336.47449  21324312.1644   21324317.9244
 94  4 30  5 54 59.9980000  0  7 28 17 23  6 22 26 21
  21944937.590   -18477007.73949 -14369002.02349  21944938.7254   21944942.9814
  20231322.007   -20173640.34049 -15704946.56649  20231323.7424   20231329.0404
  19856686.831   -30366043.77749 -23644509.11649  19856688.0464   19856693.0024
  22958895.222     7958074.52749   6206108.64149  22958897.4804   22958902.8534
  22920358.713   -14222396.45349 -11060843.29849  22920359.3474   22920365.6694
  22764922.468   -14499900.42049 -11285086.16749  22764924.2144   22764928.4414
  21308461.904   -23826488.65149 -18265232.12949  21308464.0034   21308469.6014
 94  4 30  5 55 29.9980000  0  7 28 17 23  6 22 26 21
  21926144.521   -18575766.80049 -14445957.11249  21926145.4234   21926149.7544
  20236467.001   -20146602.08349 -15683877.78849  20236468.9514   20236474.3674
  19854303.885   -30378566.83849 -23654267.32849  19854304.9214   19854310.0504
  22977596.134     8056349.23649   6282686.33549  22977598.3504   22977603.5294
  22929562.307   -14174028.66749 -11023154.12049  22929563.2244   22929569.8704
  22773598.495   -14454304.28549 -11249556.70449  22773600.9774   22773605.2324
  21292674.756   -23909453.44949 -18329880.00549  21292676.2734   21292681.8774
